<?xml version="1.0" encoding="UTF-8" standalone="no" ?>
<gpx xmlns="http://www.topografix.com/GPX/1/1" xmlns:xsi="http://www.w3.org/2001/XMLSchema-instance" xsi:schemaLocation="http://www.topografix.com/GPX/1/1 http://www.topografix.com/GPX/1/1/gpx.xsd" version="1.1" creator="VisuGPX - https://www.visugpx.com">
  <metadata>
    <name>Circuit col de Conode-col de Matachare</name>
    <desc><![CDATA[Circuit sympas sur pistes forestières très roulantes situées sur les flancs Sud du Pic de Bure (Dévoluy)]]></desc>
  </metadata>
  <trk>
    <name><![CDATA[20180815194029-K6Fui]]></name>
    <trkseg>
      <trkpt lat="44.56191" lon="5.95602">
        <ele>936</ele>
        <time>2018-08-15T12:38:05Z</time>
      </trkpt>
      <trkpt lat="44.56191" lon="5.95602">
        <ele>936</ele>
        <time>2018-08-15T12:38:06Z</time>
      </trkpt>
      <trkpt lat="44.56193" lon="5.9561">
        <ele>936</ele>
        <time>2018-08-15T12:38:23Z</time>
      </trkpt>
      <trkpt lat="44.56198" lon="5.95627">
        <ele>936</ele>
        <time>2018-08-15T12:38:28Z</time>
      </trkpt>
      <trkpt lat="44.56202" lon="5.95638">
        <ele>937</ele>
        <time>2018-08-15T12:38:30Z</time>
      </trkpt>
      <trkpt lat="44.56215" lon="5.95678">
        <ele>938</ele>
        <time>2018-08-15T12:38:36Z</time>
      </trkpt>
      <trkpt lat="44.5622" lon="5.95687">
        <ele>938</ele>
        <time>2018-08-15T12:38:38Z</time>
      </trkpt>
      <trkpt lat="44.56223" lon="5.95692">
        <ele>938</ele>
        <time>2018-08-15T12:38:39Z</time>
      </trkpt>
      <trkpt lat="44.56231" lon="5.95705">
        <ele>939</ele>
        <time>2018-08-15T12:38:42Z</time>
      </trkpt>
      <trkpt lat="44.56235" lon="5.95715">
        <ele>939</ele>
        <time>2018-08-15T12:38:44Z</time>
      </trkpt>
      <trkpt lat="44.5624" lon="5.95724">
        <ele>939</ele>
        <time>2018-08-15T12:38:46Z</time>
      </trkpt>
      <trkpt lat="44.56245" lon="5.95732">
        <ele>939</ele>
        <time>2018-08-15T12:38:48Z</time>
      </trkpt>
      <trkpt lat="44.56251" lon="5.95737">
        <ele>940</ele>
        <time>2018-08-15T12:38:50Z</time>
      </trkpt>
      <trkpt lat="44.56257" lon="5.95736">
        <ele>940</ele>
        <time>2018-08-15T12:38:52Z</time>
      </trkpt>
      <trkpt lat="44.56264" lon="5.95733">
        <ele>940</ele>
        <time>2018-08-15T12:38:54Z</time>
      </trkpt>
      <trkpt lat="44.56271" lon="5.95731">
        <ele>940</ele>
        <time>2018-08-15T12:38:56Z</time>
      </trkpt>
      <trkpt lat="44.56279" lon="5.95731">
        <ele>940</ele>
        <time>2018-08-15T12:38:58Z</time>
      </trkpt>
      <trkpt lat="44.56284" lon="5.95732">
        <ele>940</ele>
        <time>2018-08-15T12:38:59Z</time>
      </trkpt>
      <trkpt lat="44.56288" lon="5.95732">
        <ele>940</ele>
        <time>2018-08-15T12:39:00Z</time>
      </trkpt>
      <trkpt lat="44.56293" lon="5.95732">
        <ele>940</ele>
        <time>2018-08-15T12:39:01Z</time>
      </trkpt>
      <trkpt lat="44.56297" lon="5.95732">
        <ele>940</ele>
        <time>2018-08-15T12:39:02Z</time>
      </trkpt>
      <trkpt lat="44.56302" lon="5.95732">
        <ele>940</ele>
        <time>2018-08-15T12:39:03Z</time>
      </trkpt>
      <trkpt lat="44.56311" lon="5.95732">
        <ele>940</ele>
        <time>2018-08-15T12:39:05Z</time>
      </trkpt>
      <trkpt lat="44.56316" lon="5.95733">
        <ele>940</ele>
        <time>2018-08-15T12:39:06Z</time>
      </trkpt>
      <trkpt lat="44.56358" lon="5.95728">
        <ele>941</ele>
        <time>2018-08-15T12:39:16Z</time>
      </trkpt>
      <trkpt lat="44.56364" lon="5.95728">
        <ele>941</ele>
        <time>2018-08-15T12:39:18Z</time>
      </trkpt>
      <trkpt lat="44.56387" lon="5.95722">
        <ele>942</ele>
        <time>2018-08-15T12:39:24Z</time>
      </trkpt>
      <trkpt lat="44.56394" lon="5.95723">
        <ele>942</ele>
        <time>2018-08-15T12:39:26Z</time>
      </trkpt>
      <trkpt lat="44.56397" lon="5.95729">
        <ele>942</ele>
        <time>2018-08-15T12:39:28Z</time>
      </trkpt>
      <trkpt lat="44.56398" lon="5.9574">
        <ele>942</ele>
        <time>2018-08-15T12:39:30Z</time>
      </trkpt>
      <trkpt lat="44.56399" lon="5.95747">
        <ele>942</ele>
        <time>2018-08-15T12:39:32Z</time>
      </trkpt>
      <trkpt lat="44.56398" lon="5.95754">
        <ele>943</ele>
        <time>2018-08-15T12:39:34Z</time>
      </trkpt>
      <trkpt lat="44.56397" lon="5.95765">
        <ele>943</ele>
        <time>2018-08-15T12:39:37Z</time>
      </trkpt>
      <trkpt lat="44.56401" lon="5.95775">
        <ele>943</ele>
        <time>2018-08-15T12:39:39Z</time>
      </trkpt>
      <trkpt lat="44.56408" lon="5.95781">
        <ele>943</ele>
        <time>2018-08-15T12:39:41Z</time>
      </trkpt>
      <trkpt lat="44.56432" lon="5.95788">
        <ele>948</ele>
        <time>2018-08-15T12:39:47Z</time>
      </trkpt>
      <trkpt lat="44.56459" lon="5.95794">
        <ele>949</ele>
        <time>2018-08-15T12:39:54Z</time>
      </trkpt>
      <trkpt lat="44.56473" lon="5.95794">
        <ele>950</ele>
        <time>2018-08-15T12:39:58Z</time>
      </trkpt>
      <trkpt lat="44.5648" lon="5.9579">
        <ele>950</ele>
        <time>2018-08-15T12:40:00Z</time>
      </trkpt>
      <trkpt lat="44.56485" lon="5.95781">
        <ele>951</ele>
        <time>2018-08-15T12:40:02Z</time>
      </trkpt>
      <trkpt lat="44.56486" lon="5.95773">
        <ele>951</ele>
        <time>2018-08-15T12:40:04Z</time>
      </trkpt>
      <trkpt lat="44.56472" lon="5.95701">
        <ele>954</ele>
        <time>2018-08-15T12:40:16Z</time>
      </trkpt>
      <trkpt lat="44.56472" lon="5.9569">
        <ele>955</ele>
        <time>2018-08-15T12:40:18Z</time>
      </trkpt>
      <trkpt lat="44.56472" lon="5.9568">
        <ele>956</ele>
        <time>2018-08-15T12:40:20Z</time>
      </trkpt>
      <trkpt lat="44.56474" lon="5.95659">
        <ele>961</ele>
        <time>2018-08-15T12:40:24Z</time>
      </trkpt>
      <trkpt lat="44.56474" lon="5.95642">
        <ele>961</ele>
        <time>2018-08-15T12:40:28Z</time>
      </trkpt>
      <trkpt lat="44.56475" lon="5.95633">
        <ele>961</ele>
        <time>2018-08-15T12:40:30Z</time>
      </trkpt>
      <trkpt lat="44.56482" lon="5.95574">
        <ele>967</ele>
        <time>2018-08-15T12:40:42Z</time>
      </trkpt>
      <trkpt lat="44.56483" lon="5.95551">
        <ele>965</ele>
        <time>2018-08-15T12:40:46Z</time>
      </trkpt>
      <trkpt lat="44.56484" lon="5.9553">
        <ele>965</ele>
        <time>2018-08-15T12:40:50Z</time>
      </trkpt>
      <trkpt lat="44.56484" lon="5.95523">
        <ele>966</ele>
        <time>2018-08-15T12:40:52Z</time>
      </trkpt>
      <trkpt lat="44.56485" lon="5.95513">
        <ele>967</ele>
        <time>2018-08-15T12:40:54Z</time>
      </trkpt>
      <trkpt lat="44.56484" lon="5.95466">
        <ele>964</ele>
        <time>2018-08-15T12:41:03Z</time>
      </trkpt>
      <trkpt lat="44.56476" lon="5.95425">
        <ele>964</ele>
        <time>2018-08-15T12:41:12Z</time>
      </trkpt>
      <trkpt lat="44.56478" lon="5.95409">
        <ele>965</ele>
        <time>2018-08-15T12:41:15Z</time>
      </trkpt>
      <trkpt lat="44.56491" lon="5.95369">
        <ele>965</ele>
        <time>2018-08-15T12:41:26Z</time>
      </trkpt>
      <trkpt lat="44.56493" lon="5.95354">
        <ele>967</ele>
        <time>2018-08-15T12:41:30Z</time>
      </trkpt>
      <trkpt lat="44.56495" lon="5.95341">
        <ele>971</ele>
        <time>2018-08-15T12:41:33Z</time>
      </trkpt>
      <trkpt lat="44.56493" lon="5.95299">
        <ele>967</ele>
        <time>2018-08-15T12:41:43Z</time>
      </trkpt>
      <trkpt lat="44.56491" lon="5.95285">
        <ele>967</ele>
        <time>2018-08-15T12:41:46Z</time>
      </trkpt>
      <trkpt lat="44.56479" lon="5.9521">
        <ele>966</ele>
        <time>2018-08-15T12:42:02Z</time>
      </trkpt>
      <trkpt lat="44.56483" lon="5.95197">
        <ele>967</ele>
        <time>2018-08-15T12:42:05Z</time>
      </trkpt>
      <trkpt lat="44.56493" lon="5.95203">
        <ele>968</ele>
        <time>2018-08-15T12:42:09Z</time>
      </trkpt>
      <trkpt lat="44.56496" lon="5.95218">
        <ele>968</ele>
        <time>2018-08-15T12:42:12Z</time>
      </trkpt>
      <trkpt lat="44.56497" lon="5.95232">
        <ele>970</ele>
        <time>2018-08-15T12:42:15Z</time>
      </trkpt>
      <trkpt lat="44.56498" lon="5.95246">
        <ele>975</ele>
        <time>2018-08-15T12:42:18Z</time>
      </trkpt>
      <trkpt lat="44.56502" lon="5.95261">
        <ele>981</ele>
        <time>2018-08-15T12:42:21Z</time>
      </trkpt>
      <trkpt lat="44.5651" lon="5.9527">
        <ele>982</ele>
        <time>2018-08-15T12:42:24Z</time>
      </trkpt>
      <trkpt lat="44.5652" lon="5.95267">
        <ele>983</ele>
        <time>2018-08-15T12:42:27Z</time>
      </trkpt>
      <trkpt lat="44.56523" lon="5.95254">
        <ele>983</ele>
        <time>2018-08-15T12:42:30Z</time>
      </trkpt>
      <trkpt lat="44.56522" lon="5.95237">
        <ele>984</ele>
        <time>2018-08-15T12:42:33Z</time>
      </trkpt>
      <trkpt lat="44.56519" lon="5.9522">
        <ele>984</ele>
        <time>2018-08-15T12:42:36Z</time>
      </trkpt>
      <trkpt lat="44.56517" lon="5.95204">
        <ele>984</ele>
        <time>2018-08-15T12:42:39Z</time>
      </trkpt>
      <trkpt lat="44.56517" lon="5.95188">
        <ele>984</ele>
        <time>2018-08-15T12:42:42Z</time>
      </trkpt>
      <trkpt lat="44.56521" lon="5.95173">
        <ele>984</ele>
        <time>2018-08-15T12:42:45Z</time>
      </trkpt>
      <trkpt lat="44.56528" lon="5.95164">
        <ele>982</ele>
        <time>2018-08-15T12:42:48Z</time>
      </trkpt>
      <trkpt lat="44.56558" lon="5.95152">
        <ele>986</ele>
        <time>2018-08-15T12:42:58Z</time>
      </trkpt>
      <trkpt lat="44.56622" lon="5.95161">
        <ele>1000</ele>
        <time>2018-08-15T12:43:18Z</time>
      </trkpt>
      <trkpt lat="44.56641" lon="5.95148">
        <ele>1002</ele>
        <time>2018-08-15T12:43:24Z</time>
      </trkpt>
      <trkpt lat="44.5665" lon="5.95139">
        <ele>1002</ele>
        <time>2018-08-15T12:43:27Z</time>
      </trkpt>
      <trkpt lat="44.56659" lon="5.95127">
        <ele>1002</ele>
        <time>2018-08-15T12:43:30Z</time>
      </trkpt>
      <trkpt lat="44.56672" lon="5.95101">
        <ele>1008</ele>
        <time>2018-08-15T12:43:36Z</time>
      </trkpt>
      <trkpt lat="44.5668" lon="5.95074">
        <ele>1006</ele>
        <time>2018-08-15T12:43:42Z</time>
      </trkpt>
      <trkpt lat="44.56688" lon="5.95063">
        <ele>1006</ele>
        <time>2018-08-15T12:43:45Z</time>
      </trkpt>
      <trkpt lat="44.56695" lon="5.95069">
        <ele>1006</ele>
        <time>2018-08-15T12:43:48Z</time>
      </trkpt>
      <trkpt lat="44.5669" lon="5.95083">
        <ele>1006</ele>
        <time>2018-08-15T12:43:51Z</time>
      </trkpt>
      <trkpt lat="44.5668" lon="5.95095">
        <ele>1008</ele>
        <time>2018-08-15T12:43:54Z</time>
      </trkpt>
      <trkpt lat="44.56675" lon="5.95111">
        <ele>1008</ele>
        <time>2018-08-15T12:43:57Z</time>
      </trkpt>
      <trkpt lat="44.56676" lon="5.95128">
        <ele>1009</ele>
        <time>2018-08-15T12:44:00Z</time>
      </trkpt>
      <trkpt lat="44.5669" lon="5.95152">
        <ele>1009</ele>
        <time>2018-08-15T12:44:06Z</time>
      </trkpt>
      <trkpt lat="44.567" lon="5.95162">
        <ele>1010</ele>
        <time>2018-08-15T12:44:09Z</time>
      </trkpt>
      <trkpt lat="44.56808" lon="5.95198">
        <ele>1019</ele>
        <time>2018-08-15T12:44:40Z</time>
      </trkpt>
      <trkpt lat="44.5682" lon="5.95203">
        <ele>1020</ele>
        <time>2018-08-15T12:44:44Z</time>
      </trkpt>
      <trkpt lat="44.56828" lon="5.95205">
        <ele>1020</ele>
        <time>2018-08-15T12:44:46Z</time>
      </trkpt>
      <trkpt lat="44.56855" lon="5.95218">
        <ele>1027</ele>
        <time>2018-08-15T12:44:54Z</time>
      </trkpt>
      <trkpt lat="44.56861" lon="5.95222">
        <ele>1027</ele>
        <time>2018-08-15T12:44:56Z</time>
      </trkpt>
      <trkpt lat="44.56866" lon="5.95228">
        <ele>1027</ele>
        <time>2018-08-15T12:44:58Z</time>
      </trkpt>
      <trkpt lat="44.56878" lon="5.95262">
        <ele>1029</ele>
        <time>2018-08-15T12:45:06Z</time>
      </trkpt>
      <trkpt lat="44.56885" lon="5.95267">
        <ele>1030</ele>
        <time>2018-08-15T12:45:08Z</time>
      </trkpt>
      <trkpt lat="44.56894" lon="5.95265">
        <ele>1030</ele>
        <time>2018-08-15T12:45:10Z</time>
      </trkpt>
      <trkpt lat="44.569" lon="5.95258">
        <ele>1031</ele>
        <time>2018-08-15T12:45:12Z</time>
      </trkpt>
      <trkpt lat="44.56908" lon="5.95223">
        <ele>1031</ele>
        <time>2018-08-15T12:45:18Z</time>
      </trkpt>
      <trkpt lat="44.5691" lon="5.95216">
        <ele>1031</ele>
        <time>2018-08-15T12:45:19Z</time>
      </trkpt>
      <trkpt lat="44.56917" lon="5.95181">
        <ele>1037</ele>
        <time>2018-08-15T12:45:25Z</time>
      </trkpt>
      <trkpt lat="44.5692" lon="5.95172">
        <ele>1036</ele>
        <time>2018-08-15T12:45:27Z</time>
      </trkpt>
      <trkpt lat="44.56924" lon="5.9516">
        <ele>1037</ele>
        <time>2018-08-15T12:45:29Z</time>
      </trkpt>
      <trkpt lat="44.56927" lon="5.95149">
        <ele>1038</ele>
        <time>2018-08-15T12:45:31Z</time>
      </trkpt>
      <trkpt lat="44.5693" lon="5.95139">
        <ele>1040</ele>
        <time>2018-08-15T12:45:34Z</time>
      </trkpt>
      <trkpt lat="44.56935" lon="5.95122">
        <ele>1040</ele>
        <time>2018-08-15T12:45:37Z</time>
      </trkpt>
      <trkpt lat="44.56947" lon="5.95054">
        <ele>1043</ele>
        <time>2018-08-15T12:45:49Z</time>
      </trkpt>
      <trkpt lat="44.56947" lon="5.95044">
        <ele>1043</ele>
        <time>2018-08-15T12:45:51Z</time>
      </trkpt>
      <trkpt lat="44.56946" lon="5.95033">
        <ele>1043</ele>
        <time>2018-08-15T12:45:53Z</time>
      </trkpt>
      <trkpt lat="44.56943" lon="5.95014">
        <ele>1043</ele>
        <time>2018-08-15T12:45:56Z</time>
      </trkpt>
      <trkpt lat="44.56931" lon="5.94977">
        <ele>1044</ele>
        <time>2018-08-15T12:46:04Z</time>
      </trkpt>
      <trkpt lat="44.56931" lon="5.94967">
        <ele>1045</ele>
        <time>2018-08-15T12:46:06Z</time>
      </trkpt>
      <trkpt lat="44.56935" lon="5.94959">
        <ele>1045</ele>
        <time>2018-08-15T12:46:08Z</time>
      </trkpt>
      <trkpt lat="44.56952" lon="5.94945">
        <ele>1047</ele>
        <time>2018-08-15T12:46:14Z</time>
      </trkpt>
      <trkpt lat="44.56964" lon="5.94919">
        <ele>1049</ele>
        <time>2018-08-15T12:46:23Z</time>
      </trkpt>
      <trkpt lat="44.56979" lon="5.94898">
        <ele>1052</ele>
        <time>2018-08-15T12:46:33Z</time>
      </trkpt>
      <trkpt lat="44.56986" lon="5.94889">
        <ele>1052</ele>
        <time>2018-08-15T12:46:37Z</time>
      </trkpt>
      <trkpt lat="44.5701" lon="5.94842">
        <ele>1065</ele>
        <time>2018-08-15T12:46:56Z</time>
      </trkpt>
      <trkpt lat="44.57018" lon="5.94824">
        <ele>1068</ele>
        <time>2018-08-15T12:47:04Z</time>
      </trkpt>
      <trkpt lat="44.57026" lon="5.94814">
        <ele>1070</ele>
        <time>2018-08-15T12:47:10Z</time>
      </trkpt>
      <trkpt lat="44.57035" lon="5.94809">
        <ele>1072</ele>
        <time>2018-08-15T12:47:14Z</time>
      </trkpt>
      <trkpt lat="44.57044" lon="5.94811">
        <ele>1074</ele>
        <time>2018-08-15T12:47:18Z</time>
      </trkpt>
      <trkpt lat="44.57053" lon="5.94818">
        <ele>1075</ele>
        <time>2018-08-15T12:47:23Z</time>
      </trkpt>
      <trkpt lat="44.57059" lon="5.94829">
        <ele>1077</ele>
        <time>2018-08-15T12:47:28Z</time>
      </trkpt>
      <trkpt lat="44.57064" lon="5.9484">
        <ele>1077</ele>
        <time>2018-08-15T12:47:33Z</time>
      </trkpt>
      <trkpt lat="44.57071" lon="5.9485">
        <ele>1077</ele>
        <time>2018-08-15T12:47:38Z</time>
      </trkpt>
      <trkpt lat="44.57079" lon="5.94858">
        <ele>1077</ele>
        <time>2018-08-15T12:47:43Z</time>
      </trkpt>
      <trkpt lat="44.57086" lon="5.94867">
        <ele>1093</ele>
        <time>2018-08-15T12:47:48Z</time>
      </trkpt>
      <trkpt lat="44.57091" lon="5.94882">
        <ele>1093</ele>
        <time>2018-08-15T12:47:54Z</time>
      </trkpt>
      <trkpt lat="44.57096" lon="5.94893">
        <ele>1092</ele>
        <time>2018-08-15T12:47:58Z</time>
      </trkpt>
      <trkpt lat="44.57105" lon="5.949">
        <ele>1093</ele>
        <time>2018-08-15T12:48:03Z</time>
      </trkpt>
      <trkpt lat="44.57117" lon="5.9489">
        <ele>1097</ele>
        <time>2018-08-15T12:48:11Z</time>
      </trkpt>
      <trkpt lat="44.57115" lon="5.94876">
        <ele>1098</ele>
        <time>2018-08-15T12:48:15Z</time>
      </trkpt>
      <trkpt lat="44.57108" lon="5.94849">
        <ele>1096</ele>
        <time>2018-08-15T12:48:22Z</time>
      </trkpt>
      <trkpt lat="44.57107" lon="5.94836">
        <ele>1095</ele>
        <time>2018-08-15T12:48:26Z</time>
      </trkpt>
      <trkpt lat="44.57107" lon="5.94822">
        <ele>1101</ele>
        <time>2018-08-15T12:48:30Z</time>
      </trkpt>
      <trkpt lat="44.57113" lon="5.94808">
        <ele>1104</ele>
        <time>2018-08-15T12:48:36Z</time>
      </trkpt>
      <trkpt lat="44.57119" lon="5.94797">
        <ele>1107</ele>
        <time>2018-08-15T12:48:41Z</time>
      </trkpt>
      <trkpt lat="44.57122" lon="5.94784">
        <ele>1108</ele>
        <time>2018-08-15T12:48:45Z</time>
      </trkpt>
      <trkpt lat="44.57124" lon="5.94757">
        <ele>1110</ele>
        <time>2018-08-15T12:48:54Z</time>
      </trkpt>
      <trkpt lat="44.57121" lon="5.94745">
        <ele>1115</ele>
        <time>2018-08-15T12:48:57Z</time>
      </trkpt>
      <trkpt lat="44.5712" lon="5.94729">
        <ele>1115</ele>
        <time>2018-08-15T12:49:00Z</time>
      </trkpt>
      <trkpt lat="44.57118" lon="5.94714">
        <ele>1116</ele>
        <time>2018-08-15T12:49:03Z</time>
      </trkpt>
      <trkpt lat="44.57121" lon="5.94698">
        <ele>1117</ele>
        <time>2018-08-15T12:49:07Z</time>
      </trkpt>
      <trkpt lat="44.57127" lon="5.94684">
        <ele>1120</ele>
        <time>2018-08-15T12:49:11Z</time>
      </trkpt>
      <trkpt lat="44.5713" lon="5.94671">
        <ele>1122</ele>
        <time>2018-08-15T12:49:15Z</time>
      </trkpt>
      <trkpt lat="44.57127" lon="5.94659">
        <ele>1129</ele>
        <time>2018-08-15T12:49:21Z</time>
      </trkpt>
      <trkpt lat="44.57125" lon="5.94629">
        <ele>1130</ele>
        <time>2018-08-15T12:49:30Z</time>
      </trkpt>
      <trkpt lat="44.57122" lon="5.94616">
        <ele>1130</ele>
        <time>2018-08-15T12:49:34Z</time>
      </trkpt>
      <trkpt lat="44.57115" lon="5.94604">
        <ele>1128</ele>
        <time>2018-08-15T12:49:37Z</time>
      </trkpt>
      <trkpt lat="44.57108" lon="5.94592">
        <ele>1125</ele>
        <time>2018-08-15T12:49:40Z</time>
      </trkpt>
      <trkpt lat="44.57103" lon="5.94582">
        <ele>1130</ele>
        <time>2018-08-15T12:49:43Z</time>
      </trkpt>
      <trkpt lat="44.57095" lon="5.9457">
        <ele>1128</ele>
        <time>2018-08-15T12:49:47Z</time>
      </trkpt>
      <trkpt lat="44.5709" lon="5.94556">
        <ele>1132</ele>
        <time>2018-08-15T12:49:51Z</time>
      </trkpt>
      <trkpt lat="44.57079" lon="5.94514">
        <ele>1112</ele>
        <time>2018-08-15T12:50:03Z</time>
      </trkpt>
      <trkpt lat="44.57076" lon="5.94427">
        <ele>1128</ele>
        <time>2018-08-15T12:50:27Z</time>
      </trkpt>
      <trkpt lat="44.57073" lon="5.94413">
        <ele>1134</ele>
        <time>2018-08-15T12:50:31Z</time>
      </trkpt>
      <trkpt lat="44.57069" lon="5.94401">
        <ele>1132</ele>
        <time>2018-08-15T12:50:35Z</time>
      </trkpt>
      <trkpt lat="44.57064" lon="5.9439">
        <ele>1130</ele>
        <time>2018-08-15T12:50:39Z</time>
      </trkpt>
      <trkpt lat="44.57058" lon="5.94363">
        <ele>1132</ele>
        <time>2018-08-15T12:50:47Z</time>
      </trkpt>
      <trkpt lat="44.57054" lon="5.9435">
        <ele>1133</ele>
        <time>2018-08-15T12:50:51Z</time>
      </trkpt>
      <trkpt lat="44.5705" lon="5.94339">
        <ele>1132</ele>
        <time>2018-08-15T12:50:55Z</time>
      </trkpt>
      <trkpt lat="44.57046" lon="5.94323">
        <ele>1140</ele>
        <time>2018-08-15T12:51:00Z</time>
      </trkpt>
      <trkpt lat="44.57047" lon="5.94293">
        <ele>1141</ele>
        <time>2018-08-15T12:51:12Z</time>
      </trkpt>
      <trkpt lat="44.57059" lon="5.94182">
        <ele>1153</ele>
        <time>2018-08-15T12:51:46Z</time>
      </trkpt>
      <trkpt lat="44.57059" lon="5.9417">
        <ele>1155</ele>
        <time>2018-08-15T12:51:49Z</time>
      </trkpt>
      <trkpt lat="44.57062" lon="5.94155">
        <ele>1155</ele>
        <time>2018-08-15T12:51:54Z</time>
      </trkpt>
      <trkpt lat="44.57067" lon="5.94125">
        <ele>1152</ele>
        <time>2018-08-15T12:52:01Z</time>
      </trkpt>
      <trkpt lat="44.57067" lon="5.94094">
        <ele>1157</ele>
        <time>2018-08-15T12:52:08Z</time>
      </trkpt>
      <trkpt lat="44.57069" lon="5.9408">
        <ele>1159</ele>
        <time>2018-08-15T12:52:12Z</time>
      </trkpt>
      <trkpt lat="44.57072" lon="5.94066">
        <ele>1156</ele>
        <time>2018-08-15T12:52:16Z</time>
      </trkpt>
      <trkpt lat="44.57076" lon="5.94035">
        <ele>1151</ele>
        <time>2018-08-15T12:52:24Z</time>
      </trkpt>
      <trkpt lat="44.57076" lon="5.94022">
        <ele>1153</ele>
        <time>2018-08-15T12:52:27Z</time>
      </trkpt>
      <trkpt lat="44.57075" lon="5.94005">
        <ele>1159</ele>
        <time>2018-08-15T12:52:32Z</time>
      </trkpt>
      <trkpt lat="44.57076" lon="5.93975">
        <ele>1147</ele>
        <time>2018-08-15T12:52:41Z</time>
      </trkpt>
      <trkpt lat="44.57085" lon="5.93947">
        <ele>1171</ele>
        <time>2018-08-15T12:52:49Z</time>
      </trkpt>
      <trkpt lat="44.5711" lon="5.93897">
        <ele>1155</ele>
        <time>2018-08-15T12:53:05Z</time>
      </trkpt>
      <trkpt lat="44.57119" lon="5.93887">
        <ele>1156</ele>
        <time>2018-08-15T12:53:08Z</time>
      </trkpt>
      <trkpt lat="44.57129" lon="5.93885">
        <ele>1157</ele>
        <time>2018-08-15T12:53:12Z</time>
      </trkpt>
      <trkpt lat="44.57133" lon="5.93884">
        <ele>1158</ele>
        <time>2018-08-15T12:53:14Z</time>
      </trkpt>
      <trkpt lat="44.57138" lon="5.93885">
        <ele>1159</ele>
        <time>2018-08-15T12:53:16Z</time>
      </trkpt>
      <trkpt lat="44.57154" lon="5.93885">
        <ele>1162</ele>
        <time>2018-08-15T12:53:22Z</time>
      </trkpt>
      <trkpt lat="44.57159" lon="5.93885">
        <ele>1163</ele>
        <time>2018-08-15T12:53:24Z</time>
      </trkpt>
      <trkpt lat="44.57164" lon="5.93885">
        <ele>1164</ele>
        <time>2018-08-15T12:53:26Z</time>
      </trkpt>
      <trkpt lat="44.57169" lon="5.93885">
        <ele>1180</ele>
        <time>2018-08-15T12:53:28Z</time>
      </trkpt>
      <trkpt lat="44.57179" lon="5.93884">
        <ele>1180</ele>
        <time>2018-08-15T12:53:32Z</time>
      </trkpt>
      <trkpt lat="44.57184" lon="5.93883">
        <ele>1180</ele>
        <time>2018-08-15T12:53:34Z</time>
      </trkpt>
      <trkpt lat="44.57189" lon="5.93882">
        <ele>1181</ele>
        <time>2018-08-15T12:53:36Z</time>
      </trkpt>
      <trkpt lat="44.57195" lon="5.93882">
        <ele>1181</ele>
        <time>2018-08-15T12:53:38Z</time>
      </trkpt>
      <trkpt lat="44.57209" lon="5.93874">
        <ele>1181</ele>
        <time>2018-08-15T12:53:44Z</time>
      </trkpt>
      <trkpt lat="44.57214" lon="5.93872">
        <ele>1182</ele>
        <time>2018-08-15T12:53:46Z</time>
      </trkpt>
      <trkpt lat="44.57219" lon="5.93872">
        <ele>1182</ele>
        <time>2018-08-15T12:53:49Z</time>
      </trkpt>
      <trkpt lat="44.57224" lon="5.93871">
        <ele>1183</ele>
        <time>2018-08-15T12:53:51Z</time>
      </trkpt>
      <trkpt lat="44.57228" lon="5.9387">
        <ele>1183</ele>
        <time>2018-08-15T12:53:53Z</time>
      </trkpt>
      <trkpt lat="44.57234" lon="5.93869">
        <ele>1183</ele>
        <time>2018-08-15T12:53:55Z</time>
      </trkpt>
      <trkpt lat="44.5724" lon="5.93869">
        <ele>1184</ele>
        <time>2018-08-15T12:53:57Z</time>
      </trkpt>
      <trkpt lat="44.57245" lon="5.93869">
        <ele>1184</ele>
        <time>2018-08-15T12:53:59Z</time>
      </trkpt>
      <trkpt lat="44.57252" lon="5.9387">
        <ele>1197</ele>
        <time>2018-08-15T12:54:01Z</time>
      </trkpt>
      <trkpt lat="44.57263" lon="5.93871">
        <ele>1199</ele>
        <time>2018-08-15T12:54:05Z</time>
      </trkpt>
      <trkpt lat="44.57269" lon="5.93871">
        <ele>1199</ele>
        <time>2018-08-15T12:54:07Z</time>
      </trkpt>
      <trkpt lat="44.5729" lon="5.93866">
        <ele>1201</ele>
        <time>2018-08-15T12:54:14Z</time>
      </trkpt>
      <trkpt lat="44.57304" lon="5.93861">
        <ele>1202</ele>
        <time>2018-08-15T12:54:22Z</time>
      </trkpt>
      <trkpt lat="44.57309" lon="5.93841">
        <ele>1201</ele>
        <time>2018-08-15T12:54:32Z</time>
      </trkpt>
      <trkpt lat="44.57305" lon="5.9383">
        <ele>1197</ele>
        <time>2018-08-15T12:54:35Z</time>
      </trkpt>
      <trkpt lat="44.57286" lon="5.93819">
        <ele>1194</ele>
        <time>2018-08-15T12:54:42Z</time>
      </trkpt>
      <trkpt lat="44.57278" lon="5.93813">
        <ele>1193</ele>
        <time>2018-08-15T12:54:46Z</time>
      </trkpt>
      <trkpt lat="44.57272" lon="5.938">
        <ele>1194</ele>
        <time>2018-08-15T12:54:50Z</time>
      </trkpt>
      <trkpt lat="44.57265" lon="5.93789">
        <ele>1194</ele>
        <time>2018-08-15T12:54:53Z</time>
      </trkpt>
      <trkpt lat="44.57253" lon="5.93766">
        <ele>1195</ele>
        <time>2018-08-15T12:55:00Z</time>
      </trkpt>
      <trkpt lat="44.57248" lon="5.93751">
        <ele>1191</ele>
        <time>2018-08-15T12:55:04Z</time>
      </trkpt>
      <trkpt lat="44.57247" lon="5.93737">
        <ele>1186</ele>
        <time>2018-08-15T12:55:08Z</time>
      </trkpt>
      <trkpt lat="44.57254" lon="5.93713">
        <ele>1204</ele>
        <time>2018-08-15T12:55:16Z</time>
      </trkpt>
      <trkpt lat="44.57266" lon="5.93675">
        <ele>1204</ele>
        <time>2018-08-15T12:55:26Z</time>
      </trkpt>
      <trkpt lat="44.57292" lon="5.93578">
        <ele>1203</ele>
        <time>2018-08-15T12:55:54Z</time>
      </trkpt>
      <trkpt lat="44.57297" lon="5.93567">
        <ele>1204</ele>
        <time>2018-08-15T12:55:57Z</time>
      </trkpt>
      <trkpt lat="44.57324" lon="5.93521">
        <ele>1208</ele>
        <time>2018-08-15T12:56:13Z</time>
      </trkpt>
      <trkpt lat="44.57335" lon="5.93494">
        <ele>1218</ele>
        <time>2018-08-15T12:56:21Z</time>
      </trkpt>
      <trkpt lat="44.57343" lon="5.93466">
        <ele>1223</ele>
        <time>2018-08-15T12:56:29Z</time>
      </trkpt>
      <trkpt lat="44.5735" lon="5.9344">
        <ele>1223</ele>
        <time>2018-08-15T12:56:37Z</time>
      </trkpt>
      <trkpt lat="44.57352" lon="5.93424">
        <ele>1222</ele>
        <time>2018-08-15T12:56:41Z</time>
      </trkpt>
      <trkpt lat="44.57355" lon="5.93368">
        <ele>1224</ele>
        <time>2018-08-15T12:56:56Z</time>
      </trkpt>
      <trkpt lat="44.57353" lon="5.93341">
        <ele>1222</ele>
        <time>2018-08-15T12:57:02Z</time>
      </trkpt>
      <trkpt lat="44.57362" lon="5.93301">
        <ele>1221</ele>
        <time>2018-08-15T12:57:14Z</time>
      </trkpt>
      <trkpt lat="44.57368" lon="5.93286">
        <ele>1221</ele>
        <time>2018-08-15T12:57:18Z</time>
      </trkpt>
      <trkpt lat="44.57375" lon="5.93277">
        <ele>1222</ele>
        <time>2018-08-15T12:57:22Z</time>
      </trkpt>
      <trkpt lat="44.57386" lon="5.93271">
        <ele>1223</ele>
        <time>2018-08-15T12:57:27Z</time>
      </trkpt>
      <trkpt lat="44.57406" lon="5.9327">
        <ele>1225</ele>
        <time>2018-08-15T12:57:34Z</time>
      </trkpt>
      <trkpt lat="44.57414" lon="5.93275">
        <ele>1226</ele>
        <time>2018-08-15T12:57:38Z</time>
      </trkpt>
      <trkpt lat="44.57423" lon="5.9328">
        <ele>1229</ele>
        <time>2018-08-15T12:57:42Z</time>
      </trkpt>
      <trkpt lat="44.57433" lon="5.93283">
        <ele>1229</ele>
        <time>2018-08-15T12:57:46Z</time>
      </trkpt>
      <trkpt lat="44.57438" lon="5.93295">
        <ele>1229</ele>
        <time>2018-08-15T12:57:54Z</time>
      </trkpt>
      <trkpt lat="44.57441" lon="5.93324">
        <ele>1232</ele>
        <time>2018-08-15T12:58:02Z</time>
      </trkpt>
      <trkpt lat="44.57441" lon="5.93352">
        <ele>1238</ele>
        <time>2018-08-15T12:58:11Z</time>
      </trkpt>
      <trkpt lat="44.5744" lon="5.93365">
        <ele>1238</ele>
        <time>2018-08-15T12:58:14Z</time>
      </trkpt>
      <trkpt lat="44.57435" lon="5.9339">
        <ele>1239</ele>
        <time>2018-08-15T12:58:21Z</time>
      </trkpt>
      <trkpt lat="44.57429" lon="5.93405">
        <ele>1240</ele>
        <time>2018-08-15T12:58:25Z</time>
      </trkpt>
      <trkpt lat="44.57426" lon="5.93417">
        <ele>1241</ele>
        <time>2018-08-15T12:58:28Z</time>
      </trkpt>
      <trkpt lat="44.57415" lon="5.93446">
        <ele>1233</ele>
        <time>2018-08-15T12:58:34Z</time>
      </trkpt>
      <trkpt lat="44.5741" lon="5.93472">
        <ele>1233</ele>
        <time>2018-08-15T12:58:38Z</time>
      </trkpt>
      <trkpt lat="44.5741" lon="5.93499">
        <ele>1238</ele>
        <time>2018-08-15T12:58:42Z</time>
      </trkpt>
      <trkpt lat="44.57412" lon="5.93511">
        <ele>1237</ele>
        <time>2018-08-15T12:58:44Z</time>
      </trkpt>
      <trkpt lat="44.57416" lon="5.93527">
        <ele>1236</ele>
        <time>2018-08-15T12:58:47Z</time>
      </trkpt>
      <trkpt lat="44.57424" lon="5.93537">
        <ele>1248</ele>
        <time>2018-08-15T12:58:50Z</time>
      </trkpt>
      <trkpt lat="44.57444" lon="5.93549">
        <ele>1250</ele>
        <time>2018-08-15T12:58:56Z</time>
      </trkpt>
      <trkpt lat="44.57454" lon="5.93556">
        <ele>1251</ele>
        <time>2018-08-15T12:59:00Z</time>
      </trkpt>
      <trkpt lat="44.57465" lon="5.9356">
        <ele>1252</ele>
        <time>2018-08-15T12:59:04Z</time>
      </trkpt>
      <trkpt lat="44.57485" lon="5.93547">
        <ele>1253</ele>
        <time>2018-08-15T12:59:12Z</time>
      </trkpt>
      <trkpt lat="44.57493" lon="5.93539">
        <ele>1253</ele>
        <time>2018-08-15T12:59:16Z</time>
      </trkpt>
      <trkpt lat="44.57501" lon="5.93531">
        <ele>1258</ele>
        <time>2018-08-15T12:59:20Z</time>
      </trkpt>
      <trkpt lat="44.57522" lon="5.93522">
        <ele>1258</ele>
        <time>2018-08-15T12:59:28Z</time>
      </trkpt>
      <trkpt lat="44.57543" lon="5.93523">
        <ele>1259</ele>
        <time>2018-08-15T12:59:36Z</time>
      </trkpt>
      <trkpt lat="44.57555" lon="5.93523">
        <ele>1260</ele>
        <time>2018-08-15T12:59:40Z</time>
      </trkpt>
      <trkpt lat="44.57575" lon="5.93522">
        <ele>1260</ele>
        <time>2018-08-15T12:59:49Z</time>
      </trkpt>
      <trkpt lat="44.57586" lon="5.93521">
        <ele>1259</ele>
        <time>2018-08-15T12:59:54Z</time>
      </trkpt>
      <trkpt lat="44.57607" lon="5.93521">
        <ele>1259</ele>
        <time>2018-08-15T13:00:03Z</time>
      </trkpt>
      <trkpt lat="44.57615" lon="5.93529">
        <ele>1259</ele>
        <time>2018-08-15T13:00:07Z</time>
      </trkpt>
      <trkpt lat="44.57617" lon="5.93541">
        <ele>1261</ele>
        <time>2018-08-15T13:00:11Z</time>
      </trkpt>
      <trkpt lat="44.57605" lon="5.93564">
        <ele>1264</ele>
        <time>2018-08-15T13:00:18Z</time>
      </trkpt>
      <trkpt lat="44.57581" lon="5.93582">
        <ele>1269</ele>
        <time>2018-08-15T13:00:28Z</time>
      </trkpt>
      <trkpt lat="44.57576" lon="5.93585">
        <ele>1271</ele>
        <time>2018-08-15T13:00:30Z</time>
      </trkpt>
      <trkpt lat="44.57561" lon="5.93595">
        <ele>1271</ele>
        <time>2018-08-15T13:00:36Z</time>
      </trkpt>
      <trkpt lat="44.5755" lon="5.936">
        <ele>1271</ele>
        <time>2018-08-15T13:00:40Z</time>
      </trkpt>
      <trkpt lat="44.57537" lon="5.93605">
        <ele>1271</ele>
        <time>2018-08-15T13:00:44Z</time>
      </trkpt>
      <trkpt lat="44.57532" lon="5.9361">
        <ele>1271</ele>
        <time>2018-08-15T13:00:46Z</time>
      </trkpt>
      <trkpt lat="44.57529" lon="5.93618">
        <ele>1271</ele>
        <time>2018-08-15T13:00:48Z</time>
      </trkpt>
      <trkpt lat="44.57532" lon="5.93627">
        <ele>1272</ele>
        <time>2018-08-15T13:00:50Z</time>
      </trkpt>
      <trkpt lat="44.57538" lon="5.93632">
        <ele>1273</ele>
        <time>2018-08-15T13:00:52Z</time>
      </trkpt>
      <trkpt lat="44.57544" lon="5.93632">
        <ele>1273</ele>
        <time>2018-08-15T13:00:54Z</time>
      </trkpt>
      <trkpt lat="44.5755" lon="5.9363">
        <ele>1274</ele>
        <time>2018-08-15T13:00:56Z</time>
      </trkpt>
      <trkpt lat="44.57556" lon="5.9363">
        <ele>1274</ele>
        <time>2018-08-15T13:00:58Z</time>
      </trkpt>
      <trkpt lat="44.57567" lon="5.93627">
        <ele>1274</ele>
        <time>2018-08-15T13:01:02Z</time>
      </trkpt>
      <trkpt lat="44.57572" lon="5.93627">
        <ele>1275</ele>
        <time>2018-08-15T13:01:04Z</time>
      </trkpt>
      <trkpt lat="44.57577" lon="5.93627">
        <ele>1275</ele>
        <time>2018-08-15T13:01:06Z</time>
      </trkpt>
      <trkpt lat="44.57605" lon="5.93633">
        <ele>1281</ele>
        <time>2018-08-15T13:01:16Z</time>
      </trkpt>
      <trkpt lat="44.57621" lon="5.93643">
        <ele>1283</ele>
        <time>2018-08-15T13:01:22Z</time>
      </trkpt>
      <trkpt lat="44.57648" lon="5.9365">
        <ele>1286</ele>
        <time>2018-08-15T13:01:32Z</time>
      </trkpt>
      <trkpt lat="44.57653" lon="5.93649">
        <ele>1287</ele>
        <time>2018-08-15T13:01:34Z</time>
      </trkpt>
      <trkpt lat="44.5766" lon="5.93649">
        <ele>1288</ele>
        <time>2018-08-15T13:01:36Z</time>
      </trkpt>
      <trkpt lat="44.57678" lon="5.93653">
        <ele>1291</ele>
        <time>2018-08-15T13:01:42Z</time>
      </trkpt>
      <trkpt lat="44.57689" lon="5.93656">
        <ele>1291</ele>
        <time>2018-08-15T13:01:46Z</time>
      </trkpt>
      <trkpt lat="44.57705" lon="5.93657">
        <ele>1291</ele>
        <time>2018-08-15T13:01:52Z</time>
      </trkpt>
      <trkpt lat="44.57713" lon="5.93652">
        <ele>1291</ele>
        <time>2018-08-15T13:01:55Z</time>
      </trkpt>
      <trkpt lat="44.57744" lon="5.93649">
        <ele>1295</ele>
        <time>2018-08-15T13:02:04Z</time>
      </trkpt>
      <trkpt lat="44.57764" lon="5.93654">
        <ele>1304</ele>
        <time>2018-08-15T13:02:11Z</time>
      </trkpt>
      <trkpt lat="44.57797" lon="5.9362">
        <ele>1305</ele>
        <time>2018-08-15T13:02:25Z</time>
      </trkpt>
      <trkpt lat="44.57804" lon="5.93606">
        <ele>1305</ele>
        <time>2018-08-15T13:02:28Z</time>
      </trkpt>
      <trkpt lat="44.57809" lon="5.93592">
        <ele>1306</ele>
        <time>2018-08-15T13:02:30Z</time>
      </trkpt>
      <trkpt lat="44.57821" lon="5.93535">
        <ele>1289</ele>
        <time>2018-08-15T13:02:38Z</time>
      </trkpt>
      <trkpt lat="44.57826" lon="5.93523">
        <ele>1289</ele>
        <time>2018-08-15T13:02:40Z</time>
      </trkpt>
      <trkpt lat="44.57859" lon="5.9348">
        <ele>1300</ele>
        <time>2018-08-15T13:02:52Z</time>
      </trkpt>
      <trkpt lat="44.57872" lon="5.93436">
        <ele>1298</ele>
        <time>2018-08-15T13:03:01Z</time>
      </trkpt>
      <trkpt lat="44.57876" lon="5.93426">
        <ele>1298</ele>
        <time>2018-08-15T13:03:03Z</time>
      </trkpt>
      <trkpt lat="44.57913" lon="5.9339">
        <ele>1290</ele>
        <time>2018-08-15T13:03:13Z</time>
      </trkpt>
      <trkpt lat="44.57933" lon="5.93383">
        <ele>1302</ele>
        <time>2018-08-15T13:03:20Z</time>
      </trkpt>
      <trkpt lat="44.57962" lon="5.93375">
        <ele>1301</ele>
        <time>2018-08-15T13:03:29Z</time>
      </trkpt>
      <trkpt lat="44.58013" lon="5.93394">
        <ele>1308</ele>
        <time>2018-08-15T13:03:42Z</time>
      </trkpt>
      <trkpt lat="44.5803" lon="5.93413">
        <ele>1308</ele>
        <time>2018-08-15T13:03:48Z</time>
      </trkpt>
      <trkpt lat="44.58036" lon="5.93424">
        <ele>1323</ele>
        <time>2018-08-15T13:03:51Z</time>
      </trkpt>
      <trkpt lat="44.58069" lon="5.93434">
        <ele>1321</ele>
        <time>2018-08-15T13:04:00Z</time>
      </trkpt>
      <trkpt lat="44.58094" lon="5.93431">
        <ele>1319</ele>
        <time>2018-08-15T13:04:06Z</time>
      </trkpt>
      <trkpt lat="44.58124" lon="5.93433">
        <ele>1322</ele>
        <time>2018-08-15T13:04:12Z</time>
      </trkpt>
      <trkpt lat="44.58157" lon="5.93439">
        <ele>1322</ele>
        <time>2018-08-15T13:04:22Z</time>
      </trkpt>
      <trkpt lat="44.58167" lon="5.93444">
        <ele>1326</ele>
        <time>2018-08-15T13:04:25Z</time>
      </trkpt>
      <trkpt lat="44.58178" lon="5.93448">
        <ele>1327</ele>
        <time>2018-08-15T13:04:29Z</time>
      </trkpt>
      <trkpt lat="44.582" lon="5.93455">
        <ele>1330</ele>
        <time>2018-08-15T13:04:37Z</time>
      </trkpt>
      <trkpt lat="44.58207" lon="5.93465">
        <ele>1331</ele>
        <time>2018-08-15T13:04:43Z</time>
      </trkpt>
      <trkpt lat="44.58216" lon="5.93471">
        <ele>1333</ele>
        <time>2018-08-15T13:04:47Z</time>
      </trkpt>
      <trkpt lat="44.58234" lon="5.93473">
        <ele>1335</ele>
        <time>2018-08-15T13:04:57Z</time>
      </trkpt>
      <trkpt lat="44.58257" lon="5.9348">
        <ele>1343</ele>
        <time>2018-08-15T13:05:07Z</time>
      </trkpt>
      <trkpt lat="44.58277" lon="5.93474">
        <ele>1342</ele>
        <time>2018-08-15T13:05:13Z</time>
      </trkpt>
      <trkpt lat="44.58287" lon="5.93464">
        <ele>1341</ele>
        <time>2018-08-15T13:05:18Z</time>
      </trkpt>
      <trkpt lat="44.58305" lon="5.93452">
        <ele>1340</ele>
        <time>2018-08-15T13:05:25Z</time>
      </trkpt>
      <trkpt lat="44.58315" lon="5.93446">
        <ele>1340</ele>
        <time>2018-08-15T13:05:28Z</time>
      </trkpt>
      <trkpt lat="44.58326" lon="5.93444">
        <ele>1339</ele>
        <time>2018-08-15T13:05:32Z</time>
      </trkpt>
      <trkpt lat="44.58335" lon="5.93442">
        <ele>1340</ele>
        <time>2018-08-15T13:05:37Z</time>
      </trkpt>
      <trkpt lat="44.58345" lon="5.93446">
        <ele>1341</ele>
        <time>2018-08-15T13:05:43Z</time>
      </trkpt>
      <trkpt lat="44.58354" lon="5.93449">
        <ele>1341</ele>
        <time>2018-08-15T13:05:46Z</time>
      </trkpt>
      <trkpt lat="44.58365" lon="5.93453">
        <ele>1342</ele>
        <time>2018-08-15T13:05:49Z</time>
      </trkpt>
      <trkpt lat="44.58389" lon="5.93472">
        <ele>1343</ele>
        <time>2018-08-15T13:06:03Z</time>
      </trkpt>
      <trkpt lat="44.58396" lon="5.93486">
        <ele>1345</ele>
        <time>2018-08-15T13:06:07Z</time>
      </trkpt>
      <trkpt lat="44.584" lon="5.93515">
        <ele>1358</ele>
        <time>2018-08-15T13:06:23Z</time>
      </trkpt>
      <trkpt lat="44.58409" lon="5.93541">
        <ele>1362</ele>
        <time>2018-08-15T13:06:33Z</time>
      </trkpt>
      <trkpt lat="44.5842" lon="5.93563">
        <ele>1359</ele>
        <time>2018-08-15T13:06:42Z</time>
      </trkpt>
      <trkpt lat="44.58427" lon="5.93584">
        <ele>1371</ele>
        <time>2018-08-15T13:06:50Z</time>
      </trkpt>
      <trkpt lat="44.58428" lon="5.93598">
        <ele>1373</ele>
        <time>2018-08-15T13:06:57Z</time>
      </trkpt>
      <trkpt lat="44.58435" lon="5.93616">
        <ele>1376</ele>
        <time>2018-08-15T13:07:01Z</time>
      </trkpt>
      <trkpt lat="44.58457" lon="5.93644">
        <ele>1378</ele>
        <time>2018-08-15T13:07:14Z</time>
      </trkpt>
      <trkpt lat="44.58467" lon="5.9365">
        <ele>1378</ele>
        <time>2018-08-15T13:07:19Z</time>
      </trkpt>
      <trkpt lat="44.58494" lon="5.93681">
        <ele>1393</ele>
        <time>2018-08-15T13:07:31Z</time>
      </trkpt>
      <trkpt lat="44.58503" lon="5.93684">
        <ele>1385</ele>
        <time>2018-08-15T13:07:35Z</time>
      </trkpt>
      <trkpt lat="44.58557" lon="5.93722">
        <ele>1392</ele>
        <time>2018-08-15T13:08:01Z</time>
      </trkpt>
      <trkpt lat="44.58576" lon="5.93738">
        <ele>1395</ele>
        <time>2018-08-15T13:08:11Z</time>
      </trkpt>
      <trkpt lat="44.58595" lon="5.93751">
        <ele>1404</ele>
        <time>2018-08-15T13:08:20Z</time>
      </trkpt>
      <trkpt lat="44.58603" lon="5.93758">
        <ele>1406</ele>
        <time>2018-08-15T13:08:24Z</time>
      </trkpt>
      <trkpt lat="44.58624" lon="5.9377">
        <ele>1406</ele>
        <time>2018-08-15T13:08:34Z</time>
      </trkpt>
      <trkpt lat="44.58633" lon="5.93776">
        <ele>1406</ele>
        <time>2018-08-15T13:08:38Z</time>
      </trkpt>
      <trkpt lat="44.58674" lon="5.93821">
        <ele>1407</ele>
        <time>2018-08-15T13:09:04Z</time>
      </trkpt>
      <trkpt lat="44.58685" lon="5.93826">
        <ele>1405</ele>
        <time>2018-08-15T13:09:09Z</time>
      </trkpt>
      <trkpt lat="44.58723" lon="5.93852">
        <ele>1426</ele>
        <time>2018-08-15T13:09:28Z</time>
      </trkpt>
      <trkpt lat="44.58732" lon="5.93861">
        <ele>1427</ele>
        <time>2018-08-15T13:09:30Z</time>
      </trkpt>
      <trkpt lat="44.58741" lon="5.93872">
        <ele>1431</ele>
        <time>2018-08-15T13:09:33Z</time>
      </trkpt>
      <trkpt lat="44.58751" lon="5.93879">
        <ele>1421</ele>
        <time>2018-08-15T13:09:37Z</time>
      </trkpt>
      <trkpt lat="44.58763" lon="5.93888">
        <ele>1423</ele>
        <time>2018-08-15T13:09:45Z</time>
      </trkpt>
      <trkpt lat="44.58773" lon="5.93891">
        <ele>1422</ele>
        <time>2018-08-15T13:09:49Z</time>
      </trkpt>
      <trkpt lat="44.58787" lon="5.93894">
        <ele>1419</ele>
        <time>2018-08-15T13:09:58Z</time>
      </trkpt>
      <trkpt lat="44.58796" lon="5.93905">
        <ele>1419</ele>
        <time>2018-08-15T13:10:02Z</time>
      </trkpt>
      <trkpt lat="44.58812" lon="5.93936">
        <ele>1439</ele>
        <time>2018-08-15T13:10:22Z</time>
      </trkpt>
      <trkpt lat="44.58811" lon="5.9402">
        <ele>1462</ele>
        <time>2018-08-15T13:10:53Z</time>
      </trkpt>
      <trkpt lat="44.58815" lon="5.94071">
        <ele>1465</ele>
        <time>2018-08-15T13:11:10Z</time>
      </trkpt>
      <trkpt lat="44.58812" lon="5.94085">
        <ele>1477</ele>
        <time>2018-08-15T13:11:14Z</time>
      </trkpt>
      <trkpt lat="44.58816" lon="5.94101">
        <ele>1479</ele>
        <time>2018-08-15T13:11:19Z</time>
      </trkpt>
      <trkpt lat="44.58822" lon="5.94163">
        <ele>1482</ele>
        <time>2018-08-15T13:11:45Z</time>
      </trkpt>
      <trkpt lat="44.58827" lon="5.94175">
        <ele>1491</ele>
        <time>2018-08-15T13:11:50Z</time>
      </trkpt>
      <trkpt lat="44.58834" lon="5.94186">
        <ele>1472</ele>
        <time>2018-08-15T13:11:56Z</time>
      </trkpt>
      <trkpt lat="44.58843" lon="5.94197">
        <ele>1473</ele>
        <time>2018-08-15T13:12:00Z</time>
      </trkpt>
      <trkpt lat="44.58853" lon="5.94207">
        <ele>1473</ele>
        <time>2018-08-15T13:12:03Z</time>
      </trkpt>
      <trkpt lat="44.58865" lon="5.94219">
        <ele>1473</ele>
        <time>2018-08-15T13:12:08Z</time>
      </trkpt>
      <trkpt lat="44.5888" lon="5.94242">
        <ele>1472</ele>
        <time>2018-08-15T13:12:14Z</time>
      </trkpt>
      <trkpt lat="44.58888" lon="5.94251">
        <ele>1492</ele>
        <time>2018-08-15T13:12:16Z</time>
      </trkpt>
      <trkpt lat="44.58896" lon="5.94258">
        <ele>1489</ele>
        <time>2018-08-15T13:12:18Z</time>
      </trkpt>
      <trkpt lat="44.58907" lon="5.94257">
        <ele>1480</ele>
        <time>2018-08-15T13:12:26Z</time>
      </trkpt>
      <trkpt lat="44.58914" lon="5.94275">
        <ele>1490</ele>
        <time>2018-08-15T13:12:32Z</time>
      </trkpt>
      <trkpt lat="44.58925" lon="5.94279">
        <ele>1473</ele>
        <time>2018-08-15T13:12:38Z</time>
      </trkpt>
      <trkpt lat="44.5893" lon="5.94294">
        <ele>1478</ele>
        <time>2018-08-15T13:12:42Z</time>
      </trkpt>
      <trkpt lat="44.58948" lon="5.94315">
        <ele>1482</ele>
        <time>2018-08-15T13:12:58Z</time>
      </trkpt>
      <trkpt lat="44.58957" lon="5.9432">
        <ele>1481</ele>
        <time>2018-08-15T13:13:03Z</time>
      </trkpt>
      <trkpt lat="44.58966" lon="5.94324">
        <ele>1480</ele>
        <time>2018-08-15T13:13:06Z</time>
      </trkpt>
      <trkpt lat="44.58974" lon="5.94335">
        <ele>1505</ele>
        <time>2018-08-15T13:13:11Z</time>
      </trkpt>
      <trkpt lat="44.58993" lon="5.94343">
        <ele>1496</ele>
        <time>2018-08-15T13:13:19Z</time>
      </trkpt>
      <trkpt lat="44.5901" lon="5.94358">
        <ele>1491</ele>
        <time>2018-08-15T13:13:29Z</time>
      </trkpt>
      <trkpt lat="44.59023" lon="5.94375">
        <ele>1495</ele>
        <time>2018-08-15T13:13:37Z</time>
      </trkpt>
      <trkpt lat="44.59029" lon="5.94391">
        <ele>1499</ele>
        <time>2018-08-15T13:13:43Z</time>
      </trkpt>
      <trkpt lat="44.59038" lon="5.94407">
        <ele>1501</ele>
        <time>2018-08-15T13:13:50Z</time>
      </trkpt>
      <trkpt lat="44.59048" lon="5.94413">
        <ele>1499</ele>
        <time>2018-08-15T13:13:55Z</time>
      </trkpt>
      <trkpt lat="44.5909" lon="5.94442">
        <ele>1513</ele>
        <time>2018-08-15T13:14:18Z</time>
      </trkpt>
      <trkpt lat="44.59119" lon="5.94451">
        <ele>1516</ele>
        <time>2018-08-15T13:14:33Z</time>
      </trkpt>
      <trkpt lat="44.59145" lon="5.94455">
        <ele>1516</ele>
        <time>2018-08-15T13:14:42Z</time>
      </trkpt>
      <trkpt lat="44.59154" lon="5.94455">
        <ele>1516</ele>
        <time>2018-08-15T13:14:46Z</time>
      </trkpt>
      <trkpt lat="44.59172" lon="5.94459">
        <ele>1517</ele>
        <time>2018-08-15T13:14:54Z</time>
      </trkpt>
      <trkpt lat="44.59181" lon="5.94459">
        <ele>1517</ele>
        <time>2018-08-15T13:14:57Z</time>
      </trkpt>
      <trkpt lat="44.59212" lon="5.9447">
        <ele>1519</ele>
        <time>2018-08-15T13:15:13Z</time>
      </trkpt>
      <trkpt lat="44.5924" lon="5.94472">
        <ele>1521</ele>
        <time>2018-08-15T13:15:29Z</time>
      </trkpt>
      <trkpt lat="44.59281" lon="5.94519">
        <ele>1532</ele>
        <time>2018-08-15T13:15:57Z</time>
      </trkpt>
      <trkpt lat="44.59284" lon="5.94531">
        <ele>1533</ele>
        <time>2018-08-15T13:16:02Z</time>
      </trkpt>
      <trkpt lat="44.59286" lon="5.94581">
        <ele>1538</ele>
        <time>2018-08-15T13:16:24Z</time>
      </trkpt>
      <trkpt lat="44.59288" lon="5.94593">
        <ele>1554</ele>
        <time>2018-08-15T13:16:28Z</time>
      </trkpt>
      <trkpt lat="44.59285" lon="5.94606">
        <ele>1556</ele>
        <time>2018-08-15T13:16:36Z</time>
      </trkpt>
      <trkpt lat="44.59293" lon="5.94618">
        <ele>1557</ele>
        <time>2018-08-15T13:16:42Z</time>
      </trkpt>
      <trkpt lat="44.59301" lon="5.94633">
        <ele>1558</ele>
        <time>2018-08-15T13:16:48Z</time>
      </trkpt>
      <trkpt lat="44.59312" lon="5.94648">
        <ele>1560</ele>
        <time>2018-08-15T13:16:55Z</time>
      </trkpt>
      <trkpt lat="44.59336" lon="5.9466">
        <ele>1557</ele>
        <time>2018-08-15T13:17:05Z</time>
      </trkpt>
      <trkpt lat="44.59352" lon="5.94674">
        <ele>1571</ele>
        <time>2018-08-15T13:17:14Z</time>
      </trkpt>
      <trkpt lat="44.59384" lon="5.94705">
        <ele>1578</ele>
        <time>2018-08-15T13:17:33Z</time>
      </trkpt>
      <trkpt lat="44.5939" lon="5.94708">
        <ele>1579</ele>
        <time>2018-08-15T13:17:37Z</time>
      </trkpt>
      <trkpt lat="44.59395" lon="5.94708">
        <ele>1579</ele>
        <time>2018-08-15T13:17:39Z</time>
      </trkpt>
      <trkpt lat="44.59409" lon="5.94711">
        <ele>1580</ele>
        <time>2018-08-15T13:17:46Z</time>
      </trkpt>
      <trkpt lat="44.59413" lon="5.94712">
        <ele>1580</ele>
        <time>2018-08-15T13:17:49Z</time>
      </trkpt>
      <trkpt lat="44.59419" lon="5.94714">
        <ele>1578</ele>
        <time>2018-08-15T13:17:51Z</time>
      </trkpt>
      <trkpt lat="44.59425" lon="5.94717">
        <ele>1579</ele>
        <time>2018-08-15T13:17:54Z</time>
      </trkpt>
      <trkpt lat="44.59429" lon="5.94718">
        <ele>1579</ele>
        <time>2018-08-15T13:17:56Z</time>
      </trkpt>
      <trkpt lat="44.59439" lon="5.9472">
        <ele>1579</ele>
        <time>2018-08-15T13:18:00Z</time>
      </trkpt>
      <trkpt lat="44.59463" lon="5.94719">
        <ele>1578</ele>
        <time>2018-08-15T13:18:11Z</time>
      </trkpt>
      <trkpt lat="44.59471" lon="5.9472">
        <ele>1578</ele>
        <time>2018-08-15T13:18:15Z</time>
      </trkpt>
      <trkpt lat="44.59487" lon="5.94732">
        <ele>1582</ele>
        <time>2018-08-15T13:18:25Z</time>
      </trkpt>
      <trkpt lat="44.59491" lon="5.94738">
        <ele>1584</ele>
        <time>2018-08-15T13:18:27Z</time>
      </trkpt>
      <trkpt lat="44.59495" lon="5.94743">
        <ele>1587</ele>
        <time>2018-08-15T13:18:29Z</time>
      </trkpt>
      <trkpt lat="44.59501" lon="5.94749">
        <ele>1590</ele>
        <time>2018-08-15T13:18:39Z</time>
      </trkpt>
      <trkpt lat="44.59513" lon="5.94764">
        <ele>1592</ele>
        <time>2018-08-15T13:19:05Z</time>
      </trkpt>
      <trkpt lat="44.59515" lon="5.94772">
        <ele>1593</ele>
        <time>2018-08-15T13:19:08Z</time>
      </trkpt>
      <trkpt lat="44.59519" lon="5.94777">
        <ele>1594</ele>
        <time>2018-08-15T13:19:10Z</time>
      </trkpt>
      <trkpt lat="44.59524" lon="5.94781">
        <ele>1594</ele>
        <time>2018-08-15T13:19:13Z</time>
      </trkpt>
      <trkpt lat="44.59529" lon="5.94786">
        <ele>1594</ele>
        <time>2018-08-15T13:19:16Z</time>
      </trkpt>
      <trkpt lat="44.59532" lon="5.94791">
        <ele>1595</ele>
        <time>2018-08-15T13:19:18Z</time>
      </trkpt>
      <trkpt lat="44.59535" lon="5.94796">
        <ele>1595</ele>
        <time>2018-08-15T13:19:20Z</time>
      </trkpt>
      <trkpt lat="44.59544" lon="5.94809">
        <ele>1596</ele>
        <time>2018-08-15T13:19:27Z</time>
      </trkpt>
      <trkpt lat="44.59548" lon="5.94813">
        <ele>1597</ele>
        <time>2018-08-15T13:19:30Z</time>
      </trkpt>
      <trkpt lat="44.59551" lon="5.94821">
        <ele>1597</ele>
        <time>2018-08-15T13:19:34Z</time>
      </trkpt>
      <trkpt lat="44.59558" lon="5.94836">
        <ele>1614</ele>
        <time>2018-08-15T13:19:42Z</time>
      </trkpt>
      <trkpt lat="44.59565" lon="5.9485">
        <ele>1614</ele>
        <time>2018-08-15T13:19:49Z</time>
      </trkpt>
      <trkpt lat="44.59568" lon="5.94856">
        <ele>1615</ele>
        <time>2018-08-15T13:19:52Z</time>
      </trkpt>
      <trkpt lat="44.59571" lon="5.94861">
        <ele>1616</ele>
        <time>2018-08-15T13:19:54Z</time>
      </trkpt>
      <trkpt lat="44.59586" lon="5.94879">
        <ele>1616</ele>
        <time>2018-08-15T13:20:03Z</time>
      </trkpt>
      <trkpt lat="44.5959" lon="5.94881">
        <ele>1616</ele>
        <time>2018-08-15T13:20:07Z</time>
      </trkpt>
      <trkpt lat="44.59615" lon="5.94872">
        <ele>1614</ele>
        <time>2018-08-15T13:20:25Z</time>
      </trkpt>
      <trkpt lat="44.5962" lon="5.94871">
        <ele>1614</ele>
        <time>2018-08-15T13:20:28Z</time>
      </trkpt>
      <trkpt lat="44.59625" lon="5.94871">
        <ele>1614</ele>
        <time>2018-08-15T13:20:30Z</time>
      </trkpt>
      <trkpt lat="44.5963" lon="5.94873">
        <ele>1614</ele>
        <time>2018-08-15T13:20:33Z</time>
      </trkpt>
      <trkpt lat="44.59634" lon="5.94876">
        <ele>1615</ele>
        <time>2018-08-15T13:20:36Z</time>
      </trkpt>
      <trkpt lat="44.5964" lon="5.94878">
        <ele>1615</ele>
        <time>2018-08-15T13:20:39Z</time>
      </trkpt>
      <trkpt lat="44.59645" lon="5.94881">
        <ele>1616</ele>
        <time>2018-08-15T13:20:42Z</time>
      </trkpt>
      <trkpt lat="44.59656" lon="5.94889">
        <ele>1618</ele>
        <time>2018-08-15T13:20:48Z</time>
      </trkpt>
      <trkpt lat="44.59663" lon="5.94898">
        <ele>1621</ele>
        <time>2018-08-15T13:20:53Z</time>
      </trkpt>
      <trkpt lat="44.59674" lon="5.94899">
        <ele>1622</ele>
        <time>2018-08-15T13:20:59Z</time>
      </trkpt>
      <trkpt lat="44.59704" lon="5.94914">
        <ele>1622</ele>
        <time>2018-08-15T13:21:13Z</time>
      </trkpt>
      <trkpt lat="44.59717" lon="5.94915">
        <ele>1622</ele>
        <time>2018-08-15T13:21:20Z</time>
      </trkpt>
      <trkpt lat="44.5973" lon="5.94911">
        <ele>1623</ele>
        <time>2018-08-15T13:21:27Z</time>
      </trkpt>
      <trkpt lat="44.5974" lon="5.9491">
        <ele>1625</ele>
        <time>2018-08-15T13:21:39Z</time>
      </trkpt>
      <trkpt lat="44.5974" lon="5.94918">
        <ele>1635</ele>
        <time>2018-08-15T13:21:47Z</time>
      </trkpt>
      <trkpt lat="44.59738" lon="5.94932">
        <ele>1638</ele>
        <time>2018-08-15T13:21:51Z</time>
      </trkpt>
      <trkpt lat="44.59735" lon="5.94938">
        <ele>1640</ele>
        <time>2018-08-15T13:21:54Z</time>
      </trkpt>
      <trkpt lat="44.59729" lon="5.94939">
        <ele>1641</ele>
        <time>2018-08-15T13:21:58Z</time>
      </trkpt>
      <trkpt lat="44.59724" lon="5.94938">
        <ele>1641</ele>
        <time>2018-08-15T13:22:01Z</time>
      </trkpt>
      <trkpt lat="44.59718" lon="5.94938">
        <ele>1641</ele>
        <time>2018-08-15T13:22:05Z</time>
      </trkpt>
      <trkpt lat="44.59712" lon="5.94936">
        <ele>1641</ele>
        <time>2018-08-15T13:22:08Z</time>
      </trkpt>
      <trkpt lat="44.59708" lon="5.94934">
        <ele>1641</ele>
        <time>2018-08-15T13:22:11Z</time>
      </trkpt>
      <trkpt lat="44.59703" lon="5.94933">
        <ele>1640</ele>
        <time>2018-08-15T13:22:14Z</time>
      </trkpt>
      <trkpt lat="44.59698" lon="5.94935">
        <ele>1640</ele>
        <time>2018-08-15T13:22:18Z</time>
      </trkpt>
      <trkpt lat="44.59694" lon="5.9494">
        <ele>1641</ele>
        <time>2018-08-15T13:22:22Z</time>
      </trkpt>
      <trkpt lat="44.5969" lon="5.94943">
        <ele>1641</ele>
        <time>2018-08-15T13:22:26Z</time>
      </trkpt>
      <trkpt lat="44.59685" lon="5.94944">
        <ele>1641</ele>
        <time>2018-08-15T13:22:30Z</time>
      </trkpt>
      <trkpt lat="44.59663" lon="5.94946">
        <ele>1640</ele>
        <time>2018-08-15T13:22:40Z</time>
      </trkpt>
      <trkpt lat="44.59643" lon="5.94943">
        <ele>1640</ele>
        <time>2018-08-15T13:22:49Z</time>
      </trkpt>
      <trkpt lat="44.59601" lon="5.94961">
        <ele>1643</ele>
        <time>2018-08-15T13:23:08Z</time>
      </trkpt>
      <trkpt lat="44.59571" lon="5.94977">
        <ele>1650</ele>
        <time>2018-08-15T13:23:26Z</time>
      </trkpt>
      <trkpt lat="44.59561" lon="5.94973">
        <ele>1649</ele>
        <time>2018-08-15T13:23:32Z</time>
      </trkpt>
      <trkpt lat="44.59539" lon="5.94974">
        <ele>1651</ele>
        <time>2018-08-15T13:23:48Z</time>
      </trkpt>
      <trkpt lat="44.59545" lon="5.94979">
        <ele>1651</ele>
        <time>2018-08-15T13:24:31Z</time>
      </trkpt>
      <trkpt lat="44.59551" lon="5.94984">
        <ele>1651</ele>
        <time>2018-08-15T13:24:34Z</time>
      </trkpt>
      <trkpt lat="44.59556" lon="5.94988">
        <ele>1651</ele>
        <time>2018-08-15T13:24:36Z</time>
      </trkpt>
      <trkpt lat="44.59564" lon="5.9499">
        <ele>1651</ele>
        <time>2018-08-15T13:24:38Z</time>
      </trkpt>
      <trkpt lat="44.59572" lon="5.94986">
        <ele>1651</ele>
        <time>2018-08-15T13:24:40Z</time>
      </trkpt>
      <trkpt lat="44.5958" lon="5.94981">
        <ele>1650</ele>
        <time>2018-08-15T13:24:42Z</time>
      </trkpt>
      <trkpt lat="44.59584" lon="5.94979">
        <ele>1647</ele>
        <time>2018-08-15T13:24:43Z</time>
      </trkpt>
      <trkpt lat="44.59618" lon="5.94954">
        <ele>1642</ele>
        <time>2018-08-15T13:24:51Z</time>
      </trkpt>
      <trkpt lat="44.59642" lon="5.9496">
        <ele>1643</ele>
        <time>2018-08-15T13:24:56Z</time>
      </trkpt>
      <trkpt lat="44.59656" lon="5.94961">
        <ele>1644</ele>
        <time>2018-08-15T13:24:59Z</time>
      </trkpt>
      <trkpt lat="44.59671" lon="5.94956">
        <ele>1644</ele>
        <time>2018-08-15T13:25:03Z</time>
      </trkpt>
      <trkpt lat="44.59678" lon="5.94951">
        <ele>1643</ele>
        <time>2018-08-15T13:25:05Z</time>
      </trkpt>
      <trkpt lat="44.59683" lon="5.94947">
        <ele>1642</ele>
        <time>2018-08-15T13:25:07Z</time>
      </trkpt>
      <trkpt lat="44.59688" lon="5.9494">
        <ele>1641</ele>
        <time>2018-08-15T13:25:16Z</time>
      </trkpt>
      <trkpt lat="44.59708" lon="5.94935">
        <ele>1641</ele>
        <time>2018-08-15T13:25:25Z</time>
      </trkpt>
      <trkpt lat="44.59713" lon="5.94934">
        <ele>1641</ele>
        <time>2018-08-15T13:25:28Z</time>
      </trkpt>
      <trkpt lat="44.59726" lon="5.94929">
        <ele>1639</ele>
        <time>2018-08-15T13:25:42Z</time>
      </trkpt>
      <trkpt lat="44.59733" lon="5.94924">
        <ele>1637</ele>
        <time>2018-08-15T13:25:44Z</time>
      </trkpt>
      <trkpt lat="44.59737" lon="5.94918">
        <ele>1636</ele>
        <time>2018-08-15T13:25:46Z</time>
      </trkpt>
      <trkpt lat="44.5974" lon="5.94912">
        <ele>1626</ele>
        <time>2018-08-15T13:25:48Z</time>
      </trkpt>
      <trkpt lat="44.59744" lon="5.94905">
        <ele>1625</ele>
        <time>2018-08-15T13:25:54Z</time>
      </trkpt>
      <trkpt lat="44.59749" lon="5.94908">
        <ele>1626</ele>
        <time>2018-08-15T13:25:57Z</time>
      </trkpt>
      <trkpt lat="44.59755" lon="5.94911">
        <ele>1629</ele>
        <time>2018-08-15T13:26:00Z</time>
      </trkpt>
      <trkpt lat="44.59761" lon="5.94914">
        <ele>1628</ele>
        <time>2018-08-15T13:26:03Z</time>
      </trkpt>
      <trkpt lat="44.59767" lon="5.94916">
        <ele>1628</ele>
        <time>2018-08-15T13:26:06Z</time>
      </trkpt>
      <trkpt lat="44.59776" lon="5.94921">
        <ele>1643</ele>
        <time>2018-08-15T13:26:11Z</time>
      </trkpt>
      <trkpt lat="44.59781" lon="5.94925">
        <ele>1645</ele>
        <time>2018-08-15T13:26:14Z</time>
      </trkpt>
      <trkpt lat="44.59786" lon="5.94929">
        <ele>1646</ele>
        <time>2018-08-15T13:26:17Z</time>
      </trkpt>
      <trkpt lat="44.59795" lon="5.94936">
        <ele>1648</ele>
        <time>2018-08-15T13:26:23Z</time>
      </trkpt>
      <trkpt lat="44.59799" lon="5.94938">
        <ele>1649</ele>
        <time>2018-08-15T13:26:26Z</time>
      </trkpt>
      <trkpt lat="44.59806" lon="5.94938">
        <ele>1649</ele>
        <time>2018-08-15T13:26:30Z</time>
      </trkpt>
      <trkpt lat="44.59813" lon="5.9494">
        <ele>1649</ele>
        <time>2018-08-15T13:26:33Z</time>
      </trkpt>
      <trkpt lat="44.59818" lon="5.94943">
        <ele>1650</ele>
        <time>2018-08-15T13:26:35Z</time>
      </trkpt>
      <trkpt lat="44.59822" lon="5.94946">
        <ele>1650</ele>
        <time>2018-08-15T13:26:37Z</time>
      </trkpt>
      <trkpt lat="44.59842" lon="5.94945">
        <ele>1661</ele>
        <time>2018-08-15T13:26:47Z</time>
      </trkpt>
      <trkpt lat="44.59892" lon="5.9493">
        <ele>1667</ele>
        <time>2018-08-15T13:27:12Z</time>
      </trkpt>
      <trkpt lat="44.59914" lon="5.94902">
        <ele>1654</ele>
        <time>2018-08-15T13:27:26Z</time>
      </trkpt>
      <trkpt lat="44.59924" lon="5.94897">
        <ele>1664</ele>
        <time>2018-08-15T13:27:31Z</time>
      </trkpt>
      <trkpt lat="44.59933" lon="5.94894">
        <ele>1664</ele>
        <time>2018-08-15T13:27:36Z</time>
      </trkpt>
      <trkpt lat="44.59937" lon="5.9488">
        <ele>1662</ele>
        <time>2018-08-15T13:27:40Z</time>
      </trkpt>
      <trkpt lat="44.59948" lon="5.94873">
        <ele>1662</ele>
        <time>2018-08-15T13:27:46Z</time>
      </trkpt>
      <trkpt lat="44.59956" lon="5.94876">
        <ele>1664</ele>
        <time>2018-08-15T13:27:50Z</time>
      </trkpt>
      <trkpt lat="44.59985" lon="5.94889">
        <ele>1671</ele>
        <time>2018-08-15T13:28:04Z</time>
      </trkpt>
      <trkpt lat="44.59997" lon="5.94887">
        <ele>1672</ele>
        <time>2018-08-15T13:28:11Z</time>
      </trkpt>
      <trkpt lat="44.60009" lon="5.94878">
        <ele>1681</ele>
        <time>2018-08-15T13:28:19Z</time>
      </trkpt>
      <trkpt lat="44.6003" lon="5.94884">
        <ele>1683</ele>
        <time>2018-08-15T13:28:32Z</time>
      </trkpt>
      <trkpt lat="44.60039" lon="5.94883">
        <ele>1683</ele>
        <time>2018-08-15T13:28:36Z</time>
      </trkpt>
      <trkpt lat="44.60065" lon="5.94873">
        <ele>1683</ele>
        <time>2018-08-15T13:28:52Z</time>
      </trkpt>
      <trkpt lat="44.60073" lon="5.94872">
        <ele>1683</ele>
        <time>2018-08-15T13:28:55Z</time>
      </trkpt>
      <trkpt lat="44.60084" lon="5.9487">
        <ele>1686</ele>
        <time>2018-08-15T13:29:00Z</time>
      </trkpt>
      <trkpt lat="44.60103" lon="5.94877">
        <ele>1687</ele>
        <time>2018-08-15T13:29:09Z</time>
      </trkpt>
      <trkpt lat="44.60114" lon="5.9488">
        <ele>1688</ele>
        <time>2018-08-15T13:29:14Z</time>
      </trkpt>
      <trkpt lat="44.60123" lon="5.94884">
        <ele>1688</ele>
        <time>2018-08-15T13:29:19Z</time>
      </trkpt>
      <trkpt lat="44.60138" lon="5.9489">
        <ele>1689</ele>
        <time>2018-08-15T13:29:26Z</time>
      </trkpt>
      <trkpt lat="44.60145" lon="5.94898">
        <ele>1690</ele>
        <time>2018-08-15T13:29:31Z</time>
      </trkpt>
      <trkpt lat="44.60173" lon="5.94947">
        <ele>1709</ele>
        <time>2018-08-15T13:29:53Z</time>
      </trkpt>
      <trkpt lat="44.60196" lon="5.94965">
        <ele>1713</ele>
        <time>2018-08-15T13:30:08Z</time>
      </trkpt>
      <trkpt lat="44.60207" lon="5.94964">
        <ele>1713</ele>
        <time>2018-08-15T13:30:17Z</time>
      </trkpt>
      <trkpt lat="44.60251" lon="5.94931">
        <ele>1712</ele>
        <time>2018-08-15T13:30:40Z</time>
      </trkpt>
      <trkpt lat="44.60261" lon="5.94928">
        <ele>1712</ele>
        <time>2018-08-15T13:30:44Z</time>
      </trkpt>
      <trkpt lat="44.60272" lon="5.94926">
        <ele>1715</ele>
        <time>2018-08-15T13:30:50Z</time>
      </trkpt>
      <trkpt lat="44.60291" lon="5.94929">
        <ele>1718</ele>
        <time>2018-08-15T13:31:00Z</time>
      </trkpt>
      <trkpt lat="44.60303" lon="5.94939">
        <ele>1720</ele>
        <time>2018-08-15T13:31:09Z</time>
      </trkpt>
      <trkpt lat="44.60278" lon="5.94956">
        <ele>1721</ele>
        <time>2018-08-15T13:31:41Z</time>
      </trkpt>
      <trkpt lat="44.60273" lon="5.94968">
        <ele>1723</ele>
        <time>2018-08-15T13:31:46Z</time>
      </trkpt>
      <trkpt lat="44.60257" lon="5.94988">
        <ele>1726</ele>
        <time>2018-08-15T13:31:57Z</time>
      </trkpt>
      <trkpt lat="44.6025" lon="5.95004">
        <ele>1731</ele>
        <time>2018-08-15T13:32:03Z</time>
      </trkpt>
      <trkpt lat="44.6025" lon="5.95011">
        <ele>1736</ele>
        <time>2018-08-15T13:32:06Z</time>
      </trkpt>
      <trkpt lat="44.60254" lon="5.95023">
        <ele>1743</ele>
        <time>2018-08-15T13:32:12Z</time>
      </trkpt>
      <trkpt lat="44.60265" lon="5.95026">
        <ele>1745</ele>
        <time>2018-08-15T13:32:19Z</time>
      </trkpt>
      <trkpt lat="44.6027" lon="5.95028">
        <ele>1746</ele>
        <time>2018-08-15T13:32:22Z</time>
      </trkpt>
      <trkpt lat="44.60279" lon="5.95028">
        <ele>1748</ele>
        <time>2018-08-15T13:32:28Z</time>
      </trkpt>
      <trkpt lat="44.60295" lon="5.95034">
        <ele>1751</ele>
        <time>2018-08-15T13:32:39Z</time>
      </trkpt>
      <trkpt lat="44.60302" lon="5.95033">
        <ele>1751</ele>
        <time>2018-08-15T13:32:43Z</time>
      </trkpt>
      <trkpt lat="44.60311" lon="5.95023">
        <ele>1750</ele>
        <time>2018-08-15T13:32:49Z</time>
      </trkpt>
      <trkpt lat="44.60316" lon="5.9502">
        <ele>1750</ele>
        <time>2018-08-15T13:32:52Z</time>
      </trkpt>
      <trkpt lat="44.60331" lon="5.95016">
        <ele>1749</ele>
        <time>2018-08-15T13:32:58Z</time>
      </trkpt>
      <trkpt lat="44.60337" lon="5.95016">
        <ele>1754</ele>
        <time>2018-08-15T13:33:01Z</time>
      </trkpt>
      <trkpt lat="44.60379" lon="5.95041">
        <ele>1762</ele>
        <time>2018-08-15T13:33:29Z</time>
      </trkpt>
      <trkpt lat="44.60397" lon="5.9505">
        <ele>1764</ele>
        <time>2018-08-15T13:33:38Z</time>
      </trkpt>
      <trkpt lat="44.60405" lon="5.95059">
        <ele>1767</ele>
        <time>2018-08-15T13:33:43Z</time>
      </trkpt>
      <trkpt lat="44.60411" lon="5.95065">
        <ele>1769</ele>
        <time>2018-08-15T13:33:49Z</time>
      </trkpt>
      <trkpt lat="44.60419" lon="5.95064">
        <ele>1770</ele>
        <time>2018-08-15T13:34:04Z</time>
      </trkpt>
      <trkpt lat="44.60423" lon="5.95068">
        <ele>1771</ele>
        <time>2018-08-15T13:34:22Z</time>
      </trkpt>
      <trkpt lat="44.60428" lon="5.95071">
        <ele>1771</ele>
        <time>2018-08-15T13:34:58Z</time>
      </trkpt>
      <trkpt lat="44.60431" lon="5.95077">
        <ele>1772</ele>
        <time>2018-08-15T13:35:06Z</time>
      </trkpt>
      <trkpt lat="44.60436" lon="5.95081">
        <ele>1771</ele>
        <time>2018-08-15T13:35:10Z</time>
      </trkpt>
      <trkpt lat="44.6044" lon="5.95085">
        <ele>1786</ele>
        <time>2018-08-15T13:35:13Z</time>
      </trkpt>
      <trkpt lat="44.60445" lon="5.9509">
        <ele>1787</ele>
        <time>2018-08-15T13:35:16Z</time>
      </trkpt>
      <trkpt lat="44.60459" lon="5.9509">
        <ele>1788</ele>
        <time>2018-08-15T13:35:24Z</time>
      </trkpt>
      <trkpt lat="44.6047" lon="5.95094">
        <ele>1788</ele>
        <time>2018-08-15T13:35:30Z</time>
      </trkpt>
      <trkpt lat="44.60475" lon="5.95094">
        <ele>1788</ele>
        <time>2018-08-15T13:35:33Z</time>
      </trkpt>
      <trkpt lat="44.60481" lon="5.95093">
        <ele>1787</ele>
        <time>2018-08-15T13:35:36Z</time>
      </trkpt>
      <trkpt lat="44.60487" lon="5.9509">
        <ele>1785</ele>
        <time>2018-08-15T13:35:39Z</time>
      </trkpt>
      <trkpt lat="44.60494" lon="5.95078">
        <ele>1775</ele>
        <time>2018-08-15T13:35:44Z</time>
      </trkpt>
      <trkpt lat="44.60503" lon="5.95068">
        <ele>1775</ele>
        <time>2018-08-15T13:35:49Z</time>
      </trkpt>
      <trkpt lat="44.60541" lon="5.95062">
        <ele>1775</ele>
        <time>2018-08-15T13:36:12Z</time>
      </trkpt>
      <trkpt lat="44.60551" lon="5.95062">
        <ele>1776</ele>
        <time>2018-08-15T13:36:18Z</time>
      </trkpt>
      <trkpt lat="44.60572" lon="5.95062">
        <ele>1779</ele>
        <time>2018-08-15T13:36:30Z</time>
      </trkpt>
      <trkpt lat="44.60582" lon="5.95066">
        <ele>1781</ele>
        <time>2018-08-15T13:36:38Z</time>
      </trkpt>
      <trkpt lat="44.60587" lon="5.95067">
        <ele>1788</ele>
        <time>2018-08-15T13:36:41Z</time>
      </trkpt>
      <trkpt lat="44.60592" lon="5.95068">
        <ele>1788</ele>
        <time>2018-08-15T13:36:45Z</time>
      </trkpt>
      <trkpt lat="44.60601" lon="5.95067">
        <ele>1788</ele>
        <time>2018-08-15T13:37:06Z</time>
      </trkpt>
      <trkpt lat="44.60611" lon="5.95076">
        <ele>1789</ele>
        <time>2018-08-15T13:37:12Z</time>
      </trkpt>
      <trkpt lat="44.60617" lon="5.9508">
        <ele>1790</ele>
        <time>2018-08-15T13:37:15Z</time>
      </trkpt>
      <trkpt lat="44.60623" lon="5.95083">
        <ele>1790</ele>
        <time>2018-08-15T13:37:18Z</time>
      </trkpt>
      <trkpt lat="44.60634" lon="5.95084">
        <ele>1793</ele>
        <time>2018-08-15T13:37:23Z</time>
      </trkpt>
      <trkpt lat="44.60641" lon="5.95083">
        <ele>1792</ele>
        <time>2018-08-15T13:37:26Z</time>
      </trkpt>
      <trkpt lat="44.60652" lon="5.95083">
        <ele>1793</ele>
        <time>2018-08-15T13:37:34Z</time>
      </trkpt>
      <trkpt lat="44.60651" lon="5.95079">
        <ele>1793</ele>
        <time>2018-08-15T13:37:49Z</time>
      </trkpt>
      <trkpt lat="44.60646" lon="5.95079">
        <ele>1792</ele>
        <time>2018-08-15T13:37:52Z</time>
      </trkpt>
      <trkpt lat="44.60621" lon="5.95067">
        <ele>1789</ele>
        <time>2018-08-15T13:38:04Z</time>
      </trkpt>
      <trkpt lat="44.60612" lon="5.9506">
        <ele>1789</ele>
        <time>2018-08-15T13:38:08Z</time>
      </trkpt>
      <trkpt lat="44.60607" lon="5.95055">
        <ele>1788</ele>
        <time>2018-08-15T13:38:11Z</time>
      </trkpt>
      <trkpt lat="44.60604" lon="5.95048">
        <ele>1787</ele>
        <time>2018-08-15T13:38:14Z</time>
      </trkpt>
      <trkpt lat="44.60604" lon="5.95039">
        <ele>1786</ele>
        <time>2018-08-15T13:38:17Z</time>
      </trkpt>
      <trkpt lat="44.6061" lon="5.95016">
        <ele>1785</ele>
        <time>2018-08-15T13:38:28Z</time>
      </trkpt>
      <trkpt lat="44.60617" lon="5.95007">
        <ele>1786</ele>
        <time>2018-08-15T13:38:44Z</time>
      </trkpt>
      <trkpt lat="44.60626" lon="5.95">
        <ele>1782</ele>
        <time>2018-08-15T13:38:52Z</time>
      </trkpt>
      <trkpt lat="44.60628" lon="5.94994">
        <ele>1782</ele>
        <time>2018-08-15T13:38:56Z</time>
      </trkpt>
      <trkpt lat="44.60632" lon="5.94988">
        <ele>1783</ele>
        <time>2018-08-15T13:39:01Z</time>
      </trkpt>
      <trkpt lat="44.60635" lon="5.94984">
        <ele>1783</ele>
        <time>2018-08-15T13:39:04Z</time>
      </trkpt>
      <trkpt lat="44.60637" lon="5.94977">
        <ele>1783</ele>
        <time>2018-08-15T13:39:08Z</time>
      </trkpt>
      <trkpt lat="44.60636" lon="5.94965">
        <ele>1782</ele>
        <time>2018-08-15T13:39:16Z</time>
      </trkpt>
      <trkpt lat="44.60636" lon="5.94957">
        <ele>1782</ele>
        <time>2018-08-15T13:39:24Z</time>
      </trkpt>
      <trkpt lat="44.60636" lon="5.9495">
        <ele>1781</ele>
        <time>2018-08-15T13:39:28Z</time>
      </trkpt>
      <trkpt lat="44.60638" lon="5.94936">
        <ele>1782</ele>
        <time>2018-08-15T13:39:37Z</time>
      </trkpt>
      <trkpt lat="44.6064" lon="5.94929">
        <ele>1783</ele>
        <time>2018-08-15T13:39:40Z</time>
      </trkpt>
      <trkpt lat="44.60641" lon="5.94923">
        <ele>1783</ele>
        <time>2018-08-15T13:39:44Z</time>
      </trkpt>
      <trkpt lat="44.60643" lon="5.94917">
        <ele>1784</ele>
        <time>2018-08-15T13:39:49Z</time>
      </trkpt>
      <trkpt lat="44.60648" lon="5.94913">
        <ele>1784</ele>
        <time>2018-08-15T13:39:53Z</time>
      </trkpt>
      <trkpt lat="44.6065" lon="5.949">
        <ele>1783</ele>
        <time>2018-08-15T13:40:01Z</time>
      </trkpt>
      <trkpt lat="44.60652" lon="5.94891">
        <ele>1783</ele>
        <time>2018-08-15T13:40:22Z</time>
      </trkpt>
      <trkpt lat="44.60653" lon="5.94894">
        <ele>1784</ele>
        <time>2018-08-15T13:40:40Z</time>
      </trkpt>
      <trkpt lat="44.60651" lon="5.94903">
        <ele>1784</ele>
        <time>2018-08-15T13:40:47Z</time>
      </trkpt>
      <trkpt lat="44.6065" lon="5.9491">
        <ele>1785</ele>
        <time>2018-08-15T13:40:55Z</time>
      </trkpt>
      <trkpt lat="44.60642" lon="5.94919">
        <ele>1784</ele>
        <time>2018-08-15T13:41:10Z</time>
      </trkpt>
      <trkpt lat="44.60635" lon="5.9493">
        <ele>1781</ele>
        <time>2018-08-15T13:41:15Z</time>
      </trkpt>
      <trkpt lat="44.60633" lon="5.94939">
        <ele>1780</ele>
        <time>2018-08-15T13:41:17Z</time>
      </trkpt>
      <trkpt lat="44.60637" lon="5.94951">
        <ele>1781</ele>
        <time>2018-08-15T13:41:26Z</time>
      </trkpt>
      <trkpt lat="44.60639" lon="5.94957">
        <ele>1782</ele>
        <time>2018-08-15T13:41:30Z</time>
      </trkpt>
      <trkpt lat="44.60639" lon="5.94964">
        <ele>1783</ele>
        <time>2018-08-15T13:41:34Z</time>
      </trkpt>
      <trkpt lat="44.6064" lon="5.94971">
        <ele>1783</ele>
        <time>2018-08-15T13:41:38Z</time>
      </trkpt>
      <trkpt lat="44.60636" lon="5.94977">
        <ele>1783</ele>
        <time>2018-08-15T13:41:43Z</time>
      </trkpt>
      <trkpt lat="44.60633" lon="5.94981">
        <ele>1783</ele>
        <time>2018-08-15T13:41:47Z</time>
      </trkpt>
      <trkpt lat="44.60631" lon="5.94989">
        <ele>1783</ele>
        <time>2018-08-15T13:41:52Z</time>
      </trkpt>
      <trkpt lat="44.60621" lon="5.95005">
        <ele>1786</ele>
        <time>2018-08-15T13:42:03Z</time>
      </trkpt>
      <trkpt lat="44.60612" lon="5.95011">
        <ele>1785</ele>
        <time>2018-08-15T13:42:10Z</time>
      </trkpt>
      <trkpt lat="44.6061" lon="5.95017">
        <ele>1785</ele>
        <time>2018-08-15T13:42:25Z</time>
      </trkpt>
      <trkpt lat="44.60606" lon="5.95025">
        <ele>1785</ele>
        <time>2018-08-15T13:42:28Z</time>
      </trkpt>
      <trkpt lat="44.60603" lon="5.95031">
        <ele>1785</ele>
        <time>2018-08-15T13:42:31Z</time>
      </trkpt>
      <trkpt lat="44.60601" lon="5.95037">
        <ele>1786</ele>
        <time>2018-08-15T13:42:33Z</time>
      </trkpt>
      <trkpt lat="44.606" lon="5.95044">
        <ele>1787</ele>
        <time>2018-08-15T13:42:35Z</time>
      </trkpt>
      <trkpt lat="44.60601" lon="5.95063">
        <ele>1788</ele>
        <time>2018-08-15T13:42:42Z</time>
      </trkpt>
      <trkpt lat="44.60594" lon="5.95062">
        <ele>1788</ele>
        <time>2018-08-15T13:43:50Z</time>
      </trkpt>
      <trkpt lat="44.6059" lon="5.95061">
        <ele>1788</ele>
        <time>2018-08-15T13:43:52Z</time>
      </trkpt>
      <trkpt lat="44.60585" lon="5.95059">
        <ele>1787</ele>
        <time>2018-08-15T13:43:54Z</time>
      </trkpt>
      <trkpt lat="44.60575" lon="5.95056">
        <ele>1778</ele>
        <time>2018-08-15T13:43:59Z</time>
      </trkpt>
      <trkpt lat="44.6057" lon="5.95056">
        <ele>1778</ele>
        <time>2018-08-15T13:44:01Z</time>
      </trkpt>
      <trkpt lat="44.60558" lon="5.95056">
        <ele>1776</ele>
        <time>2018-08-15T13:44:04Z</time>
      </trkpt>
      <trkpt lat="44.60537" lon="5.95055">
        <ele>1774</ele>
        <time>2018-08-15T13:44:10Z</time>
      </trkpt>
      <trkpt lat="44.60531" lon="5.95055">
        <ele>1774</ele>
        <time>2018-08-15T13:44:12Z</time>
      </trkpt>
      <trkpt lat="44.60524" lon="5.95056">
        <ele>1774</ele>
        <time>2018-08-15T13:44:14Z</time>
      </trkpt>
      <trkpt lat="44.60517" lon="5.95057">
        <ele>1774</ele>
        <time>2018-08-15T13:44:16Z</time>
      </trkpt>
      <trkpt lat="44.60509" lon="5.9506">
        <ele>1774</ele>
        <time>2018-08-15T13:44:18Z</time>
      </trkpt>
      <trkpt lat="44.60494" lon="5.95075">
        <ele>1774</ele>
        <time>2018-08-15T13:44:22Z</time>
      </trkpt>
      <trkpt lat="44.60483" lon="5.95083">
        <ele>1772</ele>
        <time>2018-08-15T13:44:26Z</time>
      </trkpt>
      <trkpt lat="44.60477" lon="5.95086">
        <ele>1787</ele>
        <time>2018-08-15T13:44:28Z</time>
      </trkpt>
      <trkpt lat="44.60472" lon="5.95084">
        <ele>1787</ele>
        <time>2018-08-15T13:44:30Z</time>
      </trkpt>
      <trkpt lat="44.60468" lon="5.95081">
        <ele>1770</ele>
        <time>2018-08-15T13:44:32Z</time>
      </trkpt>
      <trkpt lat="44.60451" lon="5.95064">
        <ele>1768</ele>
        <time>2018-08-15T13:44:41Z</time>
      </trkpt>
      <trkpt lat="44.60427" lon="5.9506">
        <ele>1769</ele>
        <time>2018-08-15T13:45:02Z</time>
      </trkpt>
      <trkpt lat="44.60422" lon="5.9506">
        <ele>1769</ele>
        <time>2018-08-15T13:45:23Z</time>
      </trkpt>
      <trkpt lat="44.60419" lon="5.95045">
        <ele>1765</ele>
        <time>2018-08-15T13:45:34Z</time>
      </trkpt>
      <trkpt lat="44.60416" lon="5.95039">
        <ele>1762</ele>
        <time>2018-08-15T13:45:36Z</time>
      </trkpt>
      <trkpt lat="44.6041" lon="5.95034">
        <ele>1761</ele>
        <time>2018-08-15T13:45:38Z</time>
      </trkpt>
      <trkpt lat="44.60404" lon="5.95031">
        <ele>1761</ele>
        <time>2018-08-15T13:45:40Z</time>
      </trkpt>
      <trkpt lat="44.60394" lon="5.95032">
        <ele>1761</ele>
        <time>2018-08-15T13:45:43Z</time>
      </trkpt>
      <trkpt lat="44.6035" lon="5.95012">
        <ele>1755</ele>
        <time>2018-08-15T13:45:51Z</time>
      </trkpt>
      <trkpt lat="44.60344" lon="5.95006">
        <ele>1752</ele>
        <time>2018-08-15T13:45:53Z</time>
      </trkpt>
      <trkpt lat="44.60336" lon="5.95002">
        <ele>1748</ele>
        <time>2018-08-15T13:45:55Z</time>
      </trkpt>
      <trkpt lat="44.60259" lon="5.95014">
        <ele>1739</ele>
        <time>2018-08-15T13:46:11Z</time>
      </trkpt>
      <trkpt lat="44.60254" lon="5.95014">
        <ele>1738</ele>
        <time>2018-08-15T13:46:13Z</time>
      </trkpt>
      <trkpt lat="44.60249" lon="5.9501">
        <ele>1731</ele>
        <time>2018-08-15T13:46:16Z</time>
      </trkpt>
      <trkpt lat="44.60259" lon="5.94991">
        <ele>1726</ele>
        <time>2018-08-15T13:46:23Z</time>
      </trkpt>
      <trkpt lat="44.60262" lon="5.94983">
        <ele>1725</ele>
        <time>2018-08-15T13:46:25Z</time>
      </trkpt>
      <trkpt lat="44.60266" lon="5.94976">
        <ele>1724</ele>
        <time>2018-08-15T13:46:27Z</time>
      </trkpt>
      <trkpt lat="44.6027" lon="5.94971">
        <ele>1723</ele>
        <time>2018-08-15T13:46:29Z</time>
      </trkpt>
      <trkpt lat="44.60301" lon="5.94956">
        <ele>1723</ele>
        <time>2018-08-15T13:46:37Z</time>
      </trkpt>
      <trkpt lat="44.60308" lon="5.94944">
        <ele>1721</ele>
        <time>2018-08-15T13:46:41Z</time>
      </trkpt>
      <trkpt lat="44.60305" lon="5.94927">
        <ele>1719</ele>
        <time>2018-08-15T13:46:45Z</time>
      </trkpt>
      <trkpt lat="44.60294" lon="5.94914">
        <ele>1696</ele>
        <time>2018-08-15T13:46:52Z</time>
      </trkpt>
      <trkpt lat="44.60283" lon="5.94914">
        <ele>1695</ele>
        <time>2018-08-15T13:46:54Z</time>
      </trkpt>
      <trkpt lat="44.60267" lon="5.94919">
        <ele>1713</ele>
        <time>2018-08-15T13:46:56Z</time>
      </trkpt>
      <trkpt lat="44.6026" lon="5.94923">
        <ele>1711</ele>
        <time>2018-08-15T13:46:57Z</time>
      </trkpt>
      <trkpt lat="44.60228" lon="5.94941">
        <ele>1710</ele>
        <time>2018-08-15T13:47:02Z</time>
      </trkpt>
      <trkpt lat="44.60216" lon="5.94949">
        <ele>1711</ele>
        <time>2018-08-15T13:47:04Z</time>
      </trkpt>
      <trkpt lat="44.6021" lon="5.94952">
        <ele>1711</ele>
        <time>2018-08-15T13:47:05Z</time>
      </trkpt>
      <trkpt lat="44.60198" lon="5.94953">
        <ele>1711</ele>
        <time>2018-08-15T13:47:07Z</time>
      </trkpt>
      <trkpt lat="44.60193" lon="5.94952">
        <ele>1711</ele>
        <time>2018-08-15T13:47:08Z</time>
      </trkpt>
      <trkpt lat="44.60185" lon="5.94944">
        <ele>1709</ele>
        <time>2018-08-15T13:47:10Z</time>
      </trkpt>
      <trkpt lat="44.6018" lon="5.94939">
        <ele>1707</ele>
        <time>2018-08-15T13:47:11Z</time>
      </trkpt>
      <trkpt lat="44.60153" lon="5.94895">
        <ele>1690</ele>
        <time>2018-08-15T13:47:20Z</time>
      </trkpt>
      <trkpt lat="44.60146" lon="5.94882">
        <ele>1687</ele>
        <time>2018-08-15T13:47:23Z</time>
      </trkpt>
      <trkpt lat="44.60141" lon="5.94878">
        <ele>1687</ele>
        <time>2018-08-15T13:47:24Z</time>
      </trkpt>
      <trkpt lat="44.60134" lon="5.94872">
        <ele>1686</ele>
        <time>2018-08-15T13:47:26Z</time>
      </trkpt>
      <trkpt lat="44.60121" lon="5.94863">
        <ele>1684</ele>
        <time>2018-08-15T13:47:29Z</time>
      </trkpt>
      <trkpt lat="44.60088" lon="5.94857">
        <ele>1682</ele>
        <time>2018-08-15T13:47:34Z</time>
      </trkpt>
      <trkpt lat="44.60083" lon="5.94855">
        <ele>1679</ele>
        <time>2018-08-15T13:47:35Z</time>
      </trkpt>
      <trkpt lat="44.60078" lon="5.94854">
        <ele>1679</ele>
        <time>2018-08-15T13:47:36Z</time>
      </trkpt>
      <trkpt lat="44.60068" lon="5.94855">
        <ele>1679</ele>
        <time>2018-08-15T13:47:38Z</time>
      </trkpt>
      <trkpt lat="44.60062" lon="5.94856">
        <ele>1680</ele>
        <time>2018-08-15T13:47:39Z</time>
      </trkpt>
      <trkpt lat="44.60056" lon="5.94858">
        <ele>1680</ele>
        <time>2018-08-15T13:47:40Z</time>
      </trkpt>
      <trkpt lat="44.6005" lon="5.94859">
        <ele>1680</ele>
        <time>2018-08-15T13:47:41Z</time>
      </trkpt>
      <trkpt lat="44.60043" lon="5.94861">
        <ele>1680</ele>
        <time>2018-08-15T13:47:42Z</time>
      </trkpt>
      <trkpt lat="44.60037" lon="5.94862">
        <ele>1679</ele>
        <time>2018-08-15T13:47:43Z</time>
      </trkpt>
      <trkpt lat="44.60007" lon="5.94865">
        <ele>1677</ele>
        <time>2018-08-15T13:47:47Z</time>
      </trkpt>
      <trkpt lat="44.59998" lon="5.94866">
        <ele>1666</ele>
        <time>2018-08-15T13:47:48Z</time>
      </trkpt>
      <trkpt lat="44.59991" lon="5.94865">
        <ele>1666</ele>
        <time>2018-08-15T13:47:49Z</time>
      </trkpt>
      <trkpt lat="44.59971" lon="5.94852">
        <ele>1662</ele>
        <time>2018-08-15T13:47:53Z</time>
      </trkpt>
      <trkpt lat="44.59959" lon="5.94843">
        <ele>1659</ele>
        <time>2018-08-15T13:47:55Z</time>
      </trkpt>
      <trkpt lat="44.59943" lon="5.94842">
        <ele>1655</ele>
        <time>2018-08-15T13:47:56Z</time>
      </trkpt>
      <trkpt lat="44.59918" lon="5.94865">
        <ele>1657</ele>
        <time>2018-08-15T13:48:02Z</time>
      </trkpt>
      <trkpt lat="44.59911" lon="5.94871">
        <ele>1643</ele>
        <time>2018-08-15T13:48:04Z</time>
      </trkpt>
      <trkpt lat="44.59893" lon="5.94897">
        <ele>1647</ele>
        <time>2018-08-15T13:48:08Z</time>
      </trkpt>
      <trkpt lat="44.59799" lon="5.94911">
        <ele>1629</ele>
        <time>2018-08-15T13:48:25Z</time>
      </trkpt>
      <trkpt lat="44.59782" lon="5.94896">
        <ele>1626</ele>
        <time>2018-08-15T13:48:30Z</time>
      </trkpt>
      <trkpt lat="44.59761" lon="5.94889">
        <ele>1625</ele>
        <time>2018-08-15T13:48:35Z</time>
      </trkpt>
      <trkpt lat="44.59752" lon="5.94887">
        <ele>1625</ele>
        <time>2018-08-15T13:48:37Z</time>
      </trkpt>
      <trkpt lat="44.59738" lon="5.94888">
        <ele>1620</ele>
        <time>2018-08-15T13:48:40Z</time>
      </trkpt>
      <trkpt lat="44.5973" lon="5.94891">
        <ele>1621</ele>
        <time>2018-08-15T13:48:42Z</time>
      </trkpt>
      <trkpt lat="44.59717" lon="5.94897">
        <ele>1621</ele>
        <time>2018-08-15T13:48:46Z</time>
      </trkpt>
      <trkpt lat="44.59709" lon="5.94896">
        <ele>1620</ele>
        <time>2018-08-15T13:48:48Z</time>
      </trkpt>
      <trkpt lat="44.59685" lon="5.94886">
        <ele>1619</ele>
        <time>2018-08-15T13:48:55Z</time>
      </trkpt>
      <trkpt lat="44.59665" lon="5.94864">
        <ele>1612</ele>
        <time>2018-08-15T13:49:01Z</time>
      </trkpt>
      <trkpt lat="44.59663" lon="5.94859">
        <ele>1610</ele>
        <time>2018-08-15T13:49:03Z</time>
      </trkpt>
      <trkpt lat="44.59658" lon="5.94853">
        <ele>1609</ele>
        <time>2018-08-15T13:49:05Z</time>
      </trkpt>
      <trkpt lat="44.59632" lon="5.94846">
        <ele>1610</ele>
        <time>2018-08-15T13:49:09Z</time>
      </trkpt>
      <trkpt lat="44.59628" lon="5.94845">
        <ele>1610</ele>
        <time>2018-08-15T13:49:10Z</time>
      </trkpt>
      <trkpt lat="44.59621" lon="5.94848">
        <ele>1610</ele>
        <time>2018-08-15T13:49:12Z</time>
      </trkpt>
      <trkpt lat="44.59615" lon="5.94856">
        <ele>1611</ele>
        <time>2018-08-15T13:49:14Z</time>
      </trkpt>
      <trkpt lat="44.59611" lon="5.94864">
        <ele>1613</ele>
        <time>2018-08-15T13:49:16Z</time>
      </trkpt>
      <trkpt lat="44.59605" lon="5.94869">
        <ele>1613</ele>
        <time>2018-08-15T13:49:18Z</time>
      </trkpt>
      <trkpt lat="44.59597" lon="5.94869">
        <ele>1613</ele>
        <time>2018-08-15T13:49:20Z</time>
      </trkpt>
      <trkpt lat="44.59593" lon="5.94866">
        <ele>1613</ele>
        <time>2018-08-15T13:49:21Z</time>
      </trkpt>
      <trkpt lat="44.59589" lon="5.94862">
        <ele>1611</ele>
        <time>2018-08-15T13:49:22Z</time>
      </trkpt>
      <trkpt lat="44.59585" lon="5.94857">
        <ele>1610</ele>
        <time>2018-08-15T13:49:23Z</time>
      </trkpt>
      <trkpt lat="44.59579" lon="5.94845">
        <ele>1609</ele>
        <time>2018-08-15T13:49:25Z</time>
      </trkpt>
      <trkpt lat="44.59554" lon="5.94802">
        <ele>1594</ele>
        <time>2018-08-15T13:49:33Z</time>
      </trkpt>
      <trkpt lat="44.59549" lon="5.94798">
        <ele>1594</ele>
        <time>2018-08-15T13:49:34Z</time>
      </trkpt>
      <trkpt lat="44.59533" lon="5.94782">
        <ele>1593</ele>
        <time>2018-08-15T13:49:38Z</time>
      </trkpt>
      <trkpt lat="44.5952" lon="5.94775">
        <ele>1593</ele>
        <time>2018-08-15T13:49:41Z</time>
      </trkpt>
      <trkpt lat="44.59504" lon="5.94757">
        <ele>1592</ele>
        <time>2018-08-15T13:49:46Z</time>
      </trkpt>
      <trkpt lat="44.595" lon="5.94748">
        <ele>1589</ele>
        <time>2018-08-15T13:49:48Z</time>
      </trkpt>
      <trkpt lat="44.59503" lon="5.94737">
        <ele>1580</ele>
        <time>2018-08-15T13:49:52Z</time>
      </trkpt>
      <trkpt lat="44.595" lon="5.94729">
        <ele>1576</ele>
        <time>2018-08-15T13:49:54Z</time>
      </trkpt>
      <trkpt lat="44.59497" lon="5.94721">
        <ele>1579</ele>
        <time>2018-08-15T13:49:56Z</time>
      </trkpt>
      <trkpt lat="44.59493" lon="5.94713">
        <ele>1577</ele>
        <time>2018-08-15T13:49:58Z</time>
      </trkpt>
      <trkpt lat="44.59486" lon="5.94707">
        <ele>1575</ele>
        <time>2018-08-15T13:50:00Z</time>
      </trkpt>
      <trkpt lat="44.59481" lon="5.94704">
        <ele>1575</ele>
        <time>2018-08-15T13:50:01Z</time>
      </trkpt>
      <trkpt lat="44.59472" lon="5.94701">
        <ele>1574</ele>
        <time>2018-08-15T13:50:03Z</time>
      </trkpt>
      <trkpt lat="44.59446" lon="5.94706">
        <ele>1576</ele>
        <time>2018-08-15T13:50:06Z</time>
      </trkpt>
      <trkpt lat="44.59419" lon="5.94694">
        <ele>1571</ele>
        <time>2018-08-15T13:50:10Z</time>
      </trkpt>
      <trkpt lat="44.59396" lon="5.94686">
        <ele>1572</ele>
        <time>2018-08-15T13:50:13Z</time>
      </trkpt>
      <trkpt lat="44.5938" lon="5.94676">
        <ele>1573</ele>
        <time>2018-08-15T13:50:15Z</time>
      </trkpt>
      <trkpt lat="44.59372" lon="5.94669">
        <ele>1572</ele>
        <time>2018-08-15T13:50:16Z</time>
      </trkpt>
      <trkpt lat="44.59368" lon="5.94664">
        <ele>1549</ele>
        <time>2018-08-15T13:50:17Z</time>
      </trkpt>
      <trkpt lat="44.59352" lon="5.94652">
        <ele>1550</ele>
        <time>2018-08-15T13:50:20Z</time>
      </trkpt>
      <trkpt lat="44.59347" lon="5.94646">
        <ele>1549</ele>
        <time>2018-08-15T13:50:21Z</time>
      </trkpt>
      <trkpt lat="44.59341" lon="5.94648">
        <ele>1551</ele>
        <time>2018-08-15T13:50:21Z</time>
      </trkpt>
      <trkpt lat="44.59335" lon="5.94645">
        <ele>1550</ele>
        <time>2018-08-15T13:50:22Z</time>
      </trkpt>
      <trkpt lat="44.59321" lon="5.94643">
        <ele>1558</ele>
        <time>2018-08-15T13:50:24Z</time>
      </trkpt>
      <trkpt lat="44.59316" lon="5.94637">
        <ele>1558</ele>
        <time>2018-08-15T13:50:25Z</time>
      </trkpt>
      <trkpt lat="44.59309" lon="5.94631">
        <ele>1557</ele>
        <time>2018-08-15T13:50:26Z</time>
      </trkpt>
      <trkpt lat="44.59297" lon="5.94624">
        <ele>1557</ele>
        <time>2018-08-15T13:50:28Z</time>
      </trkpt>
      <trkpt lat="44.59295" lon="5.94615">
        <ele>1556</ele>
        <time>2018-08-15T13:50:29Z</time>
      </trkpt>
      <trkpt lat="44.59292" lon="5.94609">
        <ele>1555</ele>
        <time>2018-08-15T13:50:30Z</time>
      </trkpt>
      <trkpt lat="44.59289" lon="5.94604">
        <ele>1555</ele>
        <time>2018-08-15T13:50:31Z</time>
      </trkpt>
      <trkpt lat="44.5929" lon="5.94596">
        <ele>1554</ele>
        <time>2018-08-15T13:50:33Z</time>
      </trkpt>
      <trkpt lat="44.59284" lon="5.94582">
        <ele>1538</ele>
        <time>2018-08-15T13:50:36Z</time>
      </trkpt>
      <trkpt lat="44.59283" lon="5.94567">
        <ele>1537</ele>
        <time>2018-08-15T13:50:41Z</time>
      </trkpt>
      <trkpt lat="44.59289" lon="5.94545">
        <ele>1534</ele>
        <time>2018-08-15T13:50:44Z</time>
      </trkpt>
      <trkpt lat="44.59288" lon="5.9454">
        <ele>1533</ele>
        <time>2018-08-15T13:50:45Z</time>
      </trkpt>
      <trkpt lat="44.59285" lon="5.94529">
        <ele>1532</ele>
        <time>2018-08-15T13:50:47Z</time>
      </trkpt>
      <trkpt lat="44.59282" lon="5.94523">
        <ele>1532</ele>
        <time>2018-08-15T13:50:48Z</time>
      </trkpt>
      <trkpt lat="44.59262" lon="5.94494">
        <ele>1523</ele>
        <time>2018-08-15T13:50:53Z</time>
      </trkpt>
      <trkpt lat="44.59254" lon="5.94484">
        <ele>1521</ele>
        <time>2018-08-15T13:50:54Z</time>
      </trkpt>
      <trkpt lat="44.59253" lon="5.94478">
        <ele>1519</ele>
        <time>2018-08-15T13:50:55Z</time>
      </trkpt>
      <trkpt lat="44.59245" lon="5.94474">
        <ele>1522</ele>
        <time>2018-08-15T13:50:57Z</time>
      </trkpt>
      <trkpt lat="44.59232" lon="5.9447">
        <ele>1520</ele>
        <time>2018-08-15T13:51:00Z</time>
      </trkpt>
      <trkpt lat="44.59215" lon="5.94463">
        <ele>1518</ele>
        <time>2018-08-15T13:51:02Z</time>
      </trkpt>
      <trkpt lat="44.59199" lon="5.94444">
        <ele>1514</ele>
        <time>2018-08-15T13:51:07Z</time>
      </trkpt>
      <trkpt lat="44.59171" lon="5.94438">
        <ele>1510</ele>
        <time>2018-08-15T13:51:12Z</time>
      </trkpt>
      <trkpt lat="44.59162" lon="5.94433">
        <ele>1508</ele>
        <time>2018-08-15T13:51:14Z</time>
      </trkpt>
      <trkpt lat="44.5914" lon="5.94425">
        <ele>1510</ele>
        <time>2018-08-15T13:51:20Z</time>
      </trkpt>
      <trkpt lat="44.59093" lon="5.94409">
        <ele>1493</ele>
        <time>2018-08-15T13:51:30Z</time>
      </trkpt>
      <trkpt lat="44.59083" lon="5.94404">
        <ele>1497</ele>
        <time>2018-08-15T13:51:33Z</time>
      </trkpt>
      <trkpt lat="44.59064" lon="5.94393">
        <ele>1495</ele>
        <time>2018-08-15T13:51:38Z</time>
      </trkpt>
      <trkpt lat="44.59044" lon="5.94377">
        <ele>1493</ele>
        <time>2018-08-15T13:51:42Z</time>
      </trkpt>
      <trkpt lat="44.59034" lon="5.94366">
        <ele>1491</ele>
        <time>2018-08-15T13:51:44Z</time>
      </trkpt>
      <trkpt lat="44.59026" lon="5.94353">
        <ele>1489</ele>
        <time>2018-08-15T13:51:46Z</time>
      </trkpt>
      <trkpt lat="44.59005" lon="5.94333">
        <ele>1477</ele>
        <time>2018-08-15T13:51:50Z</time>
      </trkpt>
      <trkpt lat="44.58983" lon="5.94325">
        <ele>1478</ele>
        <time>2018-08-15T13:51:56Z</time>
      </trkpt>
      <trkpt lat="44.58962" lon="5.94312">
        <ele>1478</ele>
        <time>2018-08-15T13:52:01Z</time>
      </trkpt>
      <trkpt lat="44.58943" lon="5.94303">
        <ele>1479</ele>
        <time>2018-08-15T13:52:06Z</time>
      </trkpt>
      <trkpt lat="44.58933" lon="5.94292">
        <ele>1477</ele>
        <time>2018-08-15T13:52:08Z</time>
      </trkpt>
      <trkpt lat="44.5891" lon="5.94249">
        <ele>1464</ele>
        <time>2018-08-15T13:52:14Z</time>
      </trkpt>
      <trkpt lat="44.58903" lon="5.94238">
        <ele>1466</ele>
        <time>2018-08-15T13:52:16Z</time>
      </trkpt>
      <trkpt lat="44.58879" lon="5.94205">
        <ele>1466</ele>
        <time>2018-08-15T13:52:24Z</time>
      </trkpt>
      <trkpt lat="44.58871" lon="5.94189">
        <ele>1466</ele>
        <time>2018-08-15T13:52:27Z</time>
      </trkpt>
      <trkpt lat="44.58847" lon="5.94155">
        <ele>1457</ele>
        <time>2018-08-15T13:52:36Z</time>
      </trkpt>
      <trkpt lat="44.58839" lon="5.94127">
        <ele>1449</ele>
        <time>2018-08-15T13:52:40Z</time>
      </trkpt>
      <trkpt lat="44.5883" lon="5.94009">
        <ele>1449</ele>
        <time>2018-08-15T13:52:54Z</time>
      </trkpt>
      <trkpt lat="44.58826" lon="5.93998">
        <ele>1442</ele>
        <time>2018-08-15T13:52:56Z</time>
      </trkpt>
      <trkpt lat="44.58827" lon="5.93983">
        <ele>1443</ele>
        <time>2018-08-15T13:52:58Z</time>
      </trkpt>
      <trkpt lat="44.5882" lon="5.93951">
        <ele>1441</ele>
        <time>2018-08-15T13:53:02Z</time>
      </trkpt>
      <trkpt lat="44.58805" lon="5.9391">
        <ele>1418</ele>
        <time>2018-08-15T13:53:08Z</time>
      </trkpt>
      <trkpt lat="44.588" lon="5.9389">
        <ele>1416</ele>
        <time>2018-08-15T13:53:11Z</time>
      </trkpt>
      <trkpt lat="44.58798" lon="5.93881">
        <ele>1414</ele>
        <time>2018-08-15T13:53:12Z</time>
      </trkpt>
      <trkpt lat="44.58776" lon="5.93863">
        <ele>1413</ele>
        <time>2018-08-15T13:53:17Z</time>
      </trkpt>
      <trkpt lat="44.58759" lon="5.93858">
        <ele>1412</ele>
        <time>2018-08-15T13:53:19Z</time>
      </trkpt>
      <trkpt lat="44.58646" lon="5.93777">
        <ele>1404</ele>
        <time>2018-08-15T13:53:35Z</time>
      </trkpt>
      <trkpt lat="44.5864" lon="5.93769">
        <ele>1403</ele>
        <time>2018-08-15T13:53:37Z</time>
      </trkpt>
      <trkpt lat="44.58625" lon="5.93761">
        <ele>1405</ele>
        <time>2018-08-15T13:53:40Z</time>
      </trkpt>
      <trkpt lat="44.58618" lon="5.93761">
        <ele>1406</ele>
        <time>2018-08-15T13:53:41Z</time>
      </trkpt>
      <trkpt lat="44.58613" lon="5.93758">
        <ele>1406</ele>
        <time>2018-08-15T13:53:42Z</time>
      </trkpt>
      <trkpt lat="44.58603" lon="5.93751">
        <ele>1405</ele>
        <time>2018-08-15T13:53:44Z</time>
      </trkpt>
      <trkpt lat="44.58598" lon="5.93748">
        <ele>1388</ele>
        <time>2018-08-15T13:53:45Z</time>
      </trkpt>
      <trkpt lat="44.58585" lon="5.93738">
        <ele>1389</ele>
        <time>2018-08-15T13:53:48Z</time>
      </trkpt>
      <trkpt lat="44.58581" lon="5.93733">
        <ele>1394</ele>
        <time>2018-08-15T13:53:49Z</time>
      </trkpt>
      <trkpt lat="44.58574" lon="5.93724">
        <ele>1392</ele>
        <time>2018-08-15T13:53:51Z</time>
      </trkpt>
      <trkpt lat="44.58567" lon="5.9372">
        <ele>1391</ele>
        <time>2018-08-15T13:53:52Z</time>
      </trkpt>
      <trkpt lat="44.58562" lon="5.9371">
        <ele>1388</ele>
        <time>2018-08-15T13:53:54Z</time>
      </trkpt>
      <trkpt lat="44.58557" lon="5.93704">
        <ele>1387</ele>
        <time>2018-08-15T13:53:55Z</time>
      </trkpt>
      <trkpt lat="44.58546" lon="5.93698">
        <ele>1387</ele>
        <time>2018-08-15T13:53:57Z</time>
      </trkpt>
      <trkpt lat="44.58542" lon="5.93694">
        <ele>1386</ele>
        <time>2018-08-15T13:53:58Z</time>
      </trkpt>
      <trkpt lat="44.58536" lon="5.93694">
        <ele>1387</ele>
        <time>2018-08-15T13:53:59Z</time>
      </trkpt>
      <trkpt lat="44.58527" lon="5.9369">
        <ele>1387</ele>
        <time>2018-08-15T13:54:01Z</time>
      </trkpt>
      <trkpt lat="44.5852" lon="5.93686">
        <ele>1386</ele>
        <time>2018-08-15T13:54:02Z</time>
      </trkpt>
      <trkpt lat="44.5851" lon="5.93676">
        <ele>1382</ele>
        <time>2018-08-15T13:54:04Z</time>
      </trkpt>
      <trkpt lat="44.58505" lon="5.93673">
        <ele>1381</ele>
        <time>2018-08-15T13:54:05Z</time>
      </trkpt>
      <trkpt lat="44.58498" lon="5.93667">
        <ele>1379</ele>
        <time>2018-08-15T13:54:07Z</time>
      </trkpt>
      <trkpt lat="44.58487" lon="5.93659">
        <ele>1376</ele>
        <time>2018-08-15T13:54:10Z</time>
      </trkpt>
      <trkpt lat="44.58458" lon="5.93628">
        <ele>1375</ele>
        <time>2018-08-15T13:54:17Z</time>
      </trkpt>
      <trkpt lat="44.58453" lon="5.93617">
        <ele>1374</ele>
        <time>2018-08-15T13:54:19Z</time>
      </trkpt>
      <trkpt lat="44.58447" lon="5.93605">
        <ele>1373</ele>
        <time>2018-08-15T13:54:21Z</time>
      </trkpt>
      <trkpt lat="44.58441" lon="5.93592">
        <ele>1372</ele>
        <time>2018-08-15T13:54:23Z</time>
      </trkpt>
      <trkpt lat="44.58414" lon="5.93525">
        <ele>1359</ele>
        <time>2018-08-15T13:54:32Z</time>
      </trkpt>
      <trkpt lat="44.58401" lon="5.93481">
        <ele>1345</ele>
        <time>2018-08-15T13:54:38Z</time>
      </trkpt>
      <trkpt lat="44.58389" lon="5.93456">
        <ele>1341</ele>
        <time>2018-08-15T13:54:42Z</time>
      </trkpt>
      <trkpt lat="44.58385" lon="5.93448">
        <ele>1340</ele>
        <time>2018-08-15T13:54:44Z</time>
      </trkpt>
      <trkpt lat="44.58381" lon="5.93446">
        <ele>1340</ele>
        <time>2018-08-15T13:54:45Z</time>
      </trkpt>
      <trkpt lat="44.58358" lon="5.93443">
        <ele>1340</ele>
        <time>2018-08-15T13:54:50Z</time>
      </trkpt>
      <trkpt lat="44.58336" lon="5.93433">
        <ele>1338</ele>
        <time>2018-08-15T13:54:54Z</time>
      </trkpt>
      <trkpt lat="44.58328" lon="5.93429">
        <ele>1337</ele>
        <time>2018-08-15T13:54:56Z</time>
      </trkpt>
      <trkpt lat="44.5832" lon="5.93429">
        <ele>1337</ele>
        <time>2018-08-15T13:54:58Z</time>
      </trkpt>
      <trkpt lat="44.58299" lon="5.93441">
        <ele>1338</ele>
        <time>2018-08-15T13:55:02Z</time>
      </trkpt>
      <trkpt lat="44.58285" lon="5.93453">
        <ele>1339</ele>
        <time>2018-08-15T13:55:05Z</time>
      </trkpt>
      <trkpt lat="44.58275" lon="5.9346">
        <ele>1340</ele>
        <time>2018-08-15T13:55:08Z</time>
      </trkpt>
      <trkpt lat="44.58266" lon="5.93464">
        <ele>1340</ele>
        <time>2018-08-15T13:55:09Z</time>
      </trkpt>
      <trkpt lat="44.5826" lon="5.93465">
        <ele>1340</ele>
        <time>2018-08-15T13:55:10Z</time>
      </trkpt>
      <trkpt lat="44.58254" lon="5.93464">
        <ele>1340</ele>
        <time>2018-08-15T13:55:11Z</time>
      </trkpt>
      <trkpt lat="44.5825" lon="5.93461">
        <ele>1339</ele>
        <time>2018-08-15T13:55:13Z</time>
      </trkpt>
      <trkpt lat="44.58245" lon="5.93461">
        <ele>1333</ele>
        <time>2018-08-15T13:55:14Z</time>
      </trkpt>
      <trkpt lat="44.58232" lon="5.93449">
        <ele>1330</ele>
        <time>2018-08-15T13:55:17Z</time>
      </trkpt>
      <trkpt lat="44.58226" lon="5.93444">
        <ele>1329</ele>
        <time>2018-08-15T13:55:18Z</time>
      </trkpt>
      <trkpt lat="44.58219" lon="5.93439">
        <ele>1328</ele>
        <time>2018-08-15T13:55:20Z</time>
      </trkpt>
      <trkpt lat="44.58195" lon="5.93425">
        <ele>1325</ele>
        <time>2018-08-15T13:55:24Z</time>
      </trkpt>
      <trkpt lat="44.58153" lon="5.93423">
        <ele>1319</ele>
        <time>2018-08-15T13:55:30Z</time>
      </trkpt>
      <trkpt lat="44.58149" lon="5.9342">
        <ele>1320</ele>
        <time>2018-08-15T13:55:32Z</time>
      </trkpt>
      <trkpt lat="44.58142" lon="5.93417">
        <ele>1306</ele>
        <time>2018-08-15T13:55:34Z</time>
      </trkpt>
      <trkpt lat="44.58143" lon="5.93414">
        <ele>1306</ele>
        <time>2018-08-15T13:55:49Z</time>
      </trkpt>
      <trkpt lat="44.5815" lon="5.93416">
        <ele>1307</ele>
        <time>2018-08-15T13:55:52Z</time>
      </trkpt>
      <trkpt lat="44.58155" lon="5.93415">
        <ele>1309</ele>
        <time>2018-08-15T13:55:54Z</time>
      </trkpt>
      <trkpt lat="44.58161" lon="5.93413">
        <ele>1311</ele>
        <time>2018-08-15T13:55:56Z</time>
      </trkpt>
      <trkpt lat="44.58167" lon="5.93412">
        <ele>1312</ele>
        <time>2018-08-15T13:55:58Z</time>
      </trkpt>
      <trkpt lat="44.58176" lon="5.93408">
        <ele>1310</ele>
        <time>2018-08-15T13:56:00Z</time>
      </trkpt>
      <trkpt lat="44.58183" lon="5.93405">
        <ele>1307</ele>
        <time>2018-08-15T13:56:02Z</time>
      </trkpt>
      <trkpt lat="44.5819" lon="5.93403">
        <ele>1306</ele>
        <time>2018-08-15T13:56:04Z</time>
      </trkpt>
      <trkpt lat="44.58198" lon="5.93405">
        <ele>1306</ele>
        <time>2018-08-15T13:56:06Z</time>
      </trkpt>
      <trkpt lat="44.58205" lon="5.93412">
        <ele>1307</ele>
        <time>2018-08-15T13:56:08Z</time>
      </trkpt>
      <trkpt lat="44.58213" lon="5.93421">
        <ele>1326</ele>
        <time>2018-08-15T13:56:10Z</time>
      </trkpt>
      <trkpt lat="44.5822" lon="5.93427">
        <ele>1327</ele>
        <time>2018-08-15T13:56:12Z</time>
      </trkpt>
      <trkpt lat="44.58227" lon="5.9343">
        <ele>1327</ele>
        <time>2018-08-15T13:56:14Z</time>
      </trkpt>
      <trkpt lat="44.58234" lon="5.93429">
        <ele>1327</ele>
        <time>2018-08-15T13:56:16Z</time>
      </trkpt>
      <trkpt lat="44.58282" lon="5.93405">
        <ele>1314</ele>
        <time>2018-08-15T13:56:29Z</time>
      </trkpt>
      <trkpt lat="44.58294" lon="5.93391">
        <ele>1312</ele>
        <time>2018-08-15T13:56:33Z</time>
      </trkpt>
      <trkpt lat="44.583" lon="5.93389">
        <ele>1312</ele>
        <time>2018-08-15T13:56:35Z</time>
      </trkpt>
      <trkpt lat="44.58309" lon="5.93391">
        <ele>1314</ele>
        <time>2018-08-15T13:56:37Z</time>
      </trkpt>
      <trkpt lat="44.5833" lon="5.93403">
        <ele>1323</ele>
        <time>2018-08-15T13:56:43Z</time>
      </trkpt>
      <trkpt lat="44.58342" lon="5.93401">
        <ele>1323</ele>
        <time>2018-08-15T13:56:45Z</time>
      </trkpt>
      <trkpt lat="44.58376" lon="5.93386">
        <ele>1317</ele>
        <time>2018-08-15T13:56:49Z</time>
      </trkpt>
      <trkpt lat="44.58379" lon="5.93371">
        <ele>1314</ele>
        <time>2018-08-15T13:56:52Z</time>
      </trkpt>
      <trkpt lat="44.58388" lon="5.93356">
        <ele>1312</ele>
        <time>2018-08-15T13:56:54Z</time>
      </trkpt>
      <trkpt lat="44.58393" lon="5.93352">
        <ele>1311</ele>
        <time>2018-08-15T13:56:55Z</time>
      </trkpt>
      <trkpt lat="44.58402" lon="5.93349">
        <ele>1311</ele>
        <time>2018-08-15T13:56:57Z</time>
      </trkpt>
      <trkpt lat="44.58408" lon="5.93347">
        <ele>1310</ele>
        <time>2018-08-15T13:56:58Z</time>
      </trkpt>
      <trkpt lat="44.58415" lon="5.93348">
        <ele>1310</ele>
        <time>2018-08-15T13:56:59Z</time>
      </trkpt>
      <trkpt lat="44.5842" lon="5.93357">
        <ele>1309</ele>
        <time>2018-08-15T13:57:01Z</time>
      </trkpt>
      <trkpt lat="44.58426" lon="5.93371">
        <ele>1311</ele>
        <time>2018-08-15T13:57:04Z</time>
      </trkpt>
      <trkpt lat="44.58432" lon="5.93384">
        <ele>1313</ele>
        <time>2018-08-15T13:57:06Z</time>
      </trkpt>
      <trkpt lat="44.58435" lon="5.9339">
        <ele>1314</ele>
        <time>2018-08-15T13:57:07Z</time>
      </trkpt>
      <trkpt lat="44.58437" lon="5.93395">
        <ele>1314</ele>
        <time>2018-08-15T13:57:08Z</time>
      </trkpt>
      <trkpt lat="44.58449" lon="5.93419">
        <ele>1325</ele>
        <time>2018-08-15T13:57:13Z</time>
      </trkpt>
      <trkpt lat="44.58457" lon="5.93431">
        <ele>1325</ele>
        <time>2018-08-15T13:57:16Z</time>
      </trkpt>
      <trkpt lat="44.58464" lon="5.9344">
        <ele>1325</ele>
        <time>2018-08-15T13:57:19Z</time>
      </trkpt>
      <trkpt lat="44.58476" lon="5.9345">
        <ele>1325</ele>
        <time>2018-08-15T13:57:22Z</time>
      </trkpt>
      <trkpt lat="44.58486" lon="5.93455">
        <ele>1325</ele>
        <time>2018-08-15T13:57:24Z</time>
      </trkpt>
      <trkpt lat="44.5853" lon="5.93464">
        <ele>1314</ele>
        <time>2018-08-15T13:57:33Z</time>
      </trkpt>
      <trkpt lat="44.58539" lon="5.93471">
        <ele>1315</ele>
        <time>2018-08-15T13:57:36Z</time>
      </trkpt>
      <trkpt lat="44.58548" lon="5.93475">
        <ele>1315</ele>
        <time>2018-08-15T13:57:38Z</time>
      </trkpt>
      <trkpt lat="44.58562" lon="5.93469">
        <ele>1313</ele>
        <time>2018-08-15T13:57:40Z</time>
      </trkpt>
      <trkpt lat="44.58582" lon="5.93455">
        <ele>1310</ele>
        <time>2018-08-15T13:57:44Z</time>
      </trkpt>
      <trkpt lat="44.58594" lon="5.93451">
        <ele>1306</ele>
        <time>2018-08-15T13:57:46Z</time>
      </trkpt>
      <trkpt lat="44.58611" lon="5.93438">
        <ele>1304</ele>
        <time>2018-08-15T13:57:49Z</time>
      </trkpt>
      <trkpt lat="44.58635" lon="5.93443">
        <ele>1305</ele>
        <time>2018-08-15T13:57:54Z</time>
      </trkpt>
      <trkpt lat="44.58655" lon="5.93452">
        <ele>1305</ele>
        <time>2018-08-15T13:57:58Z</time>
      </trkpt>
      <trkpt lat="44.58664" lon="5.93457">
        <ele>1306</ele>
        <time>2018-08-15T13:58:00Z</time>
      </trkpt>
      <trkpt lat="44.58685" lon="5.93469">
        <ele>1303</ele>
        <time>2018-08-15T13:58:05Z</time>
      </trkpt>
      <trkpt lat="44.58696" lon="5.93472">
        <ele>1303</ele>
        <time>2018-08-15T13:58:07Z</time>
      </trkpt>
      <trkpt lat="44.58706" lon="5.93475">
        <ele>1303</ele>
        <time>2018-08-15T13:58:09Z</time>
      </trkpt>
      <trkpt lat="44.58718" lon="5.93478">
        <ele>1302</ele>
        <time>2018-08-15T13:58:11Z</time>
      </trkpt>
      <trkpt lat="44.58728" lon="5.93478">
        <ele>1302</ele>
        <time>2018-08-15T13:58:13Z</time>
      </trkpt>
      <trkpt lat="44.58774" lon="5.93475">
        <ele>1291</ele>
        <time>2018-08-15T13:58:25Z</time>
      </trkpt>
      <trkpt lat="44.58784" lon="5.93482">
        <ele>1290</ele>
        <time>2018-08-15T13:58:27Z</time>
      </trkpt>
      <trkpt lat="44.58793" lon="5.93491">
        <ele>1290</ele>
        <time>2018-08-15T13:58:30Z</time>
      </trkpt>
      <trkpt lat="44.58812" lon="5.93509">
        <ele>1300</ele>
        <time>2018-08-15T13:58:35Z</time>
      </trkpt>
      <trkpt lat="44.5882" lon="5.93518">
        <ele>1299</ele>
        <time>2018-08-15T13:58:37Z</time>
      </trkpt>
      <trkpt lat="44.58831" lon="5.93529">
        <ele>1301</ele>
        <time>2018-08-15T13:58:39Z</time>
      </trkpt>
      <trkpt lat="44.58832" lon="5.93549">
        <ele>1305</ele>
        <time>2018-08-15T13:58:42Z</time>
      </trkpt>
      <trkpt lat="44.58833" lon="5.93564">
        <ele>1306</ele>
        <time>2018-08-15T13:58:44Z</time>
      </trkpt>
      <trkpt lat="44.58828" lon="5.93589">
        <ele>1312</ele>
        <time>2018-08-15T13:58:48Z</time>
      </trkpt>
      <trkpt lat="44.5883" lon="5.936">
        <ele>1315</ele>
        <time>2018-08-15T13:58:50Z</time>
      </trkpt>
      <trkpt lat="44.58837" lon="5.93602">
        <ele>1306</ele>
        <time>2018-08-15T13:58:54Z</time>
      </trkpt>
      <trkpt lat="44.5884" lon="5.93594">
        <ele>1306</ele>
        <time>2018-08-15T13:58:56Z</time>
      </trkpt>
      <trkpt lat="44.58841" lon="5.93583">
        <ele>1301</ele>
        <time>2018-08-15T13:58:58Z</time>
      </trkpt>
      <trkpt lat="44.58842" lon="5.93575">
        <ele>1299</ele>
        <time>2018-08-15T13:58:59Z</time>
      </trkpt>
      <trkpt lat="44.58844" lon="5.93568">
        <ele>1295</ele>
        <time>2018-08-15T13:59:00Z</time>
      </trkpt>
      <trkpt lat="44.58849" lon="5.93542">
        <ele>1288</ele>
        <time>2018-08-15T13:59:04Z</time>
      </trkpt>
      <trkpt lat="44.58849" lon="5.93535">
        <ele>1287</ele>
        <time>2018-08-15T13:59:05Z</time>
      </trkpt>
      <trkpt lat="44.58851" lon="5.93528">
        <ele>1286</ele>
        <time>2018-08-15T13:59:06Z</time>
      </trkpt>
      <trkpt lat="44.58849" lon="5.93513">
        <ele>1286</ele>
        <time>2018-08-15T13:59:08Z</time>
      </trkpt>
      <trkpt lat="44.58847" lon="5.93506">
        <ele>1286</ele>
        <time>2018-08-15T13:59:09Z</time>
      </trkpt>
      <trkpt lat="44.58843" lon="5.935">
        <ele>1287</ele>
        <time>2018-08-15T13:59:10Z</time>
      </trkpt>
      <trkpt lat="44.58837" lon="5.93487">
        <ele>1279</ele>
        <time>2018-08-15T13:59:12Z</time>
      </trkpt>
      <trkpt lat="44.58834" lon="5.93481">
        <ele>1276</ele>
        <time>2018-08-15T13:59:13Z</time>
      </trkpt>
      <trkpt lat="44.58827" lon="5.93467">
        <ele>1284</ele>
        <time>2018-08-15T13:59:15Z</time>
      </trkpt>
      <trkpt lat="44.58823" lon="5.9346">
        <ele>1283</ele>
        <time>2018-08-15T13:59:16Z</time>
      </trkpt>
      <trkpt lat="44.5882" lon="5.93453">
        <ele>1281</ele>
        <time>2018-08-15T13:59:17Z</time>
      </trkpt>
      <trkpt lat="44.58814" lon="5.93448">
        <ele>1281</ele>
        <time>2018-08-15T13:59:18Z</time>
      </trkpt>
      <trkpt lat="44.58795" lon="5.93417">
        <ele>1281</ele>
        <time>2018-08-15T13:59:23Z</time>
      </trkpt>
      <trkpt lat="44.58787" lon="5.93401">
        <ele>1266</ele>
        <time>2018-08-15T13:59:26Z</time>
      </trkpt>
      <trkpt lat="44.58776" lon="5.93393">
        <ele>1267</ele>
        <time>2018-08-15T13:59:28Z</time>
      </trkpt>
      <trkpt lat="44.58767" lon="5.93392">
        <ele>1269</ele>
        <time>2018-08-15T13:59:29Z</time>
      </trkpt>
      <trkpt lat="44.58764" lon="5.93386">
        <ele>1267</ele>
        <time>2018-08-15T13:59:30Z</time>
      </trkpt>
      <trkpt lat="44.58733" lon="5.93376">
        <ele>1279</ele>
        <time>2018-08-15T13:59:34Z</time>
      </trkpt>
      <trkpt lat="44.58725" lon="5.93374">
        <ele>1279</ele>
        <time>2018-08-15T13:59:35Z</time>
      </trkpt>
      <trkpt lat="44.58714" lon="5.93369">
        <ele>1279</ele>
        <time>2018-08-15T13:59:37Z</time>
      </trkpt>
      <trkpt lat="44.58709" lon="5.93366">
        <ele>1279</ele>
        <time>2018-08-15T13:59:38Z</time>
      </trkpt>
      <trkpt lat="44.58704" lon="5.93364">
        <ele>1279</ele>
        <time>2018-08-15T13:59:39Z</time>
      </trkpt>
      <trkpt lat="44.58696" lon="5.93357">
        <ele>1279</ele>
        <time>2018-08-15T13:59:41Z</time>
      </trkpt>
      <trkpt lat="44.58686" lon="5.9335">
        <ele>1278</ele>
        <time>2018-08-15T13:59:43Z</time>
      </trkpt>
      <trkpt lat="44.58682" lon="5.93346">
        <ele>1278</ele>
        <time>2018-08-15T13:59:44Z</time>
      </trkpt>
      <trkpt lat="44.58676" lon="5.93342">
        <ele>1278</ele>
        <time>2018-08-15T13:59:45Z</time>
      </trkpt>
      <trkpt lat="44.58669" lon="5.93339">
        <ele>1277</ele>
        <time>2018-08-15T13:59:46Z</time>
      </trkpt>
      <trkpt lat="44.58659" lon="5.93334">
        <ele>1280</ele>
        <time>2018-08-15T13:59:48Z</time>
      </trkpt>
      <trkpt lat="44.5865" lon="5.93323">
        <ele>1273</ele>
        <time>2018-08-15T13:59:50Z</time>
      </trkpt>
      <trkpt lat="44.58631" lon="5.9329">
        <ele>1270</ele>
        <time>2018-08-15T13:59:56Z</time>
      </trkpt>
      <trkpt lat="44.5862" lon="5.93266">
        <ele>1268</ele>
        <time>2018-08-15T14:00:00Z</time>
      </trkpt>
      <trkpt lat="44.58613" lon="5.93257">
        <ele>1268</ele>
        <time>2018-08-15T14:00:02Z</time>
      </trkpt>
      <trkpt lat="44.58607" lon="5.93254">
        <ele>1269</ele>
        <time>2018-08-15T14:00:03Z</time>
      </trkpt>
      <trkpt lat="44.586" lon="5.93252">
        <ele>1269</ele>
        <time>2018-08-15T14:00:04Z</time>
      </trkpt>
      <trkpt lat="44.58592" lon="5.93251">
        <ele>1269</ele>
        <time>2018-08-15T14:00:05Z</time>
      </trkpt>
      <trkpt lat="44.58575" lon="5.93243">
        <ele>1266</ele>
        <time>2018-08-15T14:00:08Z</time>
      </trkpt>
      <trkpt lat="44.58565" lon="5.93236">
        <ele>1264</ele>
        <time>2018-08-15T14:00:10Z</time>
      </trkpt>
      <trkpt lat="44.58556" lon="5.93227">
        <ele>1263</ele>
        <time>2018-08-15T14:00:12Z</time>
      </trkpt>
      <trkpt lat="44.58554" lon="5.93217">
        <ele>1262</ele>
        <time>2018-08-15T14:00:14Z</time>
      </trkpt>
      <trkpt lat="44.58558" lon="5.93211">
        <ele>1260</ele>
        <time>2018-08-15T14:00:17Z</time>
      </trkpt>
      <trkpt lat="44.58565" lon="5.93213">
        <ele>1261</ele>
        <time>2018-08-15T14:00:19Z</time>
      </trkpt>
      <trkpt lat="44.58573" lon="5.93215">
        <ele>1261</ele>
        <time>2018-08-15T14:00:21Z</time>
      </trkpt>
      <trkpt lat="44.58578" lon="5.93216">
        <ele>1261</ele>
        <time>2018-08-15T14:00:22Z</time>
      </trkpt>
      <trkpt lat="44.5859" lon="5.93216">
        <ele>1254</ele>
        <time>2018-08-15T14:00:23Z</time>
      </trkpt>
      <trkpt lat="44.58595" lon="5.93217">
        <ele>1254</ele>
        <time>2018-08-15T14:00:24Z</time>
      </trkpt>
      <trkpt lat="44.5862" lon="5.93211">
        <ele>1251</ele>
        <time>2018-08-15T14:00:30Z</time>
      </trkpt>
      <trkpt lat="44.58626" lon="5.93215">
        <ele>1251</ele>
        <time>2018-08-15T14:00:31Z</time>
      </trkpt>
      <trkpt lat="44.58632" lon="5.9322">
        <ele>1251</ele>
        <time>2018-08-15T14:00:32Z</time>
      </trkpt>
      <trkpt lat="44.5864" lon="5.93222">
        <ele>1251</ele>
        <time>2018-08-15T14:00:33Z</time>
      </trkpt>
      <trkpt lat="44.5865" lon="5.93227">
        <ele>1251</ele>
        <time>2018-08-15T14:00:35Z</time>
      </trkpt>
      <trkpt lat="44.58659" lon="5.93229">
        <ele>1251</ele>
        <time>2018-08-15T14:00:37Z</time>
      </trkpt>
      <trkpt lat="44.58672" lon="5.93241">
        <ele>1246</ele>
        <time>2018-08-15T14:00:40Z</time>
      </trkpt>
      <trkpt lat="44.5868" lon="5.93249">
        <ele>1245</ele>
        <time>2018-08-15T14:00:42Z</time>
      </trkpt>
      <trkpt lat="44.58685" lon="5.93252">
        <ele>1253</ele>
        <time>2018-08-15T14:00:43Z</time>
      </trkpt>
      <trkpt lat="44.58691" lon="5.93254">
        <ele>1253</ele>
        <time>2018-08-15T14:00:44Z</time>
      </trkpt>
      <trkpt lat="44.58703" lon="5.93255">
        <ele>1251</ele>
        <time>2018-08-15T14:00:46Z</time>
      </trkpt>
      <trkpt lat="44.5871" lon="5.9326">
        <ele>1250</ele>
        <time>2018-08-15T14:00:47Z</time>
      </trkpt>
      <trkpt lat="44.58724" lon="5.9327">
        <ele>1249</ele>
        <time>2018-08-15T14:00:50Z</time>
      </trkpt>
      <trkpt lat="44.58746" lon="5.93282">
        <ele>1249</ele>
        <time>2018-08-15T14:00:54Z</time>
      </trkpt>
      <trkpt lat="44.58751" lon="5.93287">
        <ele>1239</ele>
        <time>2018-08-15T14:00:55Z</time>
      </trkpt>
      <trkpt lat="44.58754" lon="5.93292">
        <ele>1240</ele>
        <time>2018-08-15T14:00:56Z</time>
      </trkpt>
      <trkpt lat="44.58757" lon="5.93298">
        <ele>1242</ele>
        <time>2018-08-15T14:00:57Z</time>
      </trkpt>
      <trkpt lat="44.58769" lon="5.93303">
        <ele>1242</ele>
        <time>2018-08-15T14:00:59Z</time>
      </trkpt>
      <trkpt lat="44.58778" lon="5.93304">
        <ele>1241</ele>
        <time>2018-08-15T14:01:01Z</time>
      </trkpt>
      <trkpt lat="44.58783" lon="5.93304">
        <ele>1240</ele>
        <time>2018-08-15T14:01:02Z</time>
      </trkpt>
      <trkpt lat="44.5879" lon="5.93293">
        <ele>1238</ele>
        <time>2018-08-15T14:01:06Z</time>
      </trkpt>
      <trkpt lat="44.5878" lon="5.9328">
        <ele>1237</ele>
        <time>2018-08-15T14:01:11Z</time>
      </trkpt>
      <trkpt lat="44.58774" lon="5.9327">
        <ele>1236</ele>
        <time>2018-08-15T14:01:13Z</time>
      </trkpt>
      <trkpt lat="44.58769" lon="5.93262">
        <ele>1235</ele>
        <time>2018-08-15T14:01:15Z</time>
      </trkpt>
      <trkpt lat="44.5876" lon="5.93255">
        <ele>1234</ele>
        <time>2018-08-15T14:01:17Z</time>
      </trkpt>
      <trkpt lat="44.58756" lon="5.9325">
        <ele>1233</ele>
        <time>2018-08-15T14:01:18Z</time>
      </trkpt>
      <trkpt lat="44.58757" lon="5.93244">
        <ele>1229</ele>
        <time>2018-08-15T14:01:19Z</time>
      </trkpt>
      <trkpt lat="44.58754" lon="5.93237">
        <ele>1228</ele>
        <time>2018-08-15T14:01:21Z</time>
      </trkpt>
      <trkpt lat="44.58747" lon="5.93235">
        <ele>1232</ele>
        <time>2018-08-15T14:01:22Z</time>
      </trkpt>
      <trkpt lat="44.58741" lon="5.93231">
        <ele>1232</ele>
        <time>2018-08-15T14:01:23Z</time>
      </trkpt>
      <trkpt lat="44.58726" lon="5.9322">
        <ele>1233</ele>
        <time>2018-08-15T14:01:26Z</time>
      </trkpt>
      <trkpt lat="44.58716" lon="5.93208">
        <ele>1233</ele>
        <time>2018-08-15T14:01:28Z</time>
      </trkpt>
      <trkpt lat="44.58716" lon="5.93199">
        <ele>1232</ele>
        <time>2018-08-15T14:01:30Z</time>
      </trkpt>
      <trkpt lat="44.58714" lon="5.93188">
        <ele>1231</ele>
        <time>2018-08-15T14:01:32Z</time>
      </trkpt>
      <trkpt lat="44.58713" lon="5.93177">
        <ele>1230</ele>
        <time>2018-08-15T14:01:34Z</time>
      </trkpt>
      <trkpt lat="44.58716" lon="5.93169">
        <ele>1229</ele>
        <time>2018-08-15T14:01:35Z</time>
      </trkpt>
      <trkpt lat="44.58718" lon="5.93164">
        <ele>1218</ele>
        <time>2018-08-15T14:01:36Z</time>
      </trkpt>
      <trkpt lat="44.5872" lon="5.93153">
        <ele>1218</ele>
        <time>2018-08-15T14:01:38Z</time>
      </trkpt>
      <trkpt lat="44.58724" lon="5.93149">
        <ele>1217</ele>
        <time>2018-08-15T14:01:40Z</time>
      </trkpt>
      <trkpt lat="44.58728" lon="5.93145">
        <ele>1217</ele>
        <time>2018-08-15T14:01:41Z</time>
      </trkpt>
      <trkpt lat="44.58734" lon="5.9314">
        <ele>1216</ele>
        <time>2018-08-15T14:01:43Z</time>
      </trkpt>
      <trkpt lat="44.5874" lon="5.93143">
        <ele>1216</ele>
        <time>2018-08-15T14:01:44Z</time>
      </trkpt>
      <trkpt lat="44.58746" lon="5.93145">
        <ele>1216</ele>
        <time>2018-08-15T14:01:46Z</time>
      </trkpt>
      <trkpt lat="44.58751" lon="5.93146">
        <ele>1218</ele>
        <time>2018-08-15T14:01:47Z</time>
      </trkpt>
      <trkpt lat="44.58763" lon="5.93151">
        <ele>1219</ele>
        <time>2018-08-15T14:01:50Z</time>
      </trkpt>
      <trkpt lat="44.58768" lon="5.93155">
        <ele>1219</ele>
        <time>2018-08-15T14:01:52Z</time>
      </trkpt>
      <trkpt lat="44.58775" lon="5.93156">
        <ele>1220</ele>
        <time>2018-08-15T14:01:54Z</time>
      </trkpt>
      <trkpt lat="44.58782" lon="5.93152">
        <ele>1221</ele>
        <time>2018-08-15T14:01:56Z</time>
      </trkpt>
      <trkpt lat="44.58793" lon="5.93137">
        <ele>1223</ele>
        <time>2018-08-15T14:02:02Z</time>
      </trkpt>
      <trkpt lat="44.58796" lon="5.9313">
        <ele>1223</ele>
        <time>2018-08-15T14:02:05Z</time>
      </trkpt>
      <trkpt lat="44.58797" lon="5.93124">
        <ele>1224</ele>
        <time>2018-08-15T14:02:07Z</time>
      </trkpt>
      <trkpt lat="44.58796" lon="5.93116">
        <ele>1224</ele>
        <time>2018-08-15T14:02:09Z</time>
      </trkpt>
      <trkpt lat="44.58794" lon="5.93109">
        <ele>1223</ele>
        <time>2018-08-15T14:02:11Z</time>
      </trkpt>
      <trkpt lat="44.5879" lon="5.93101">
        <ele>1223</ele>
        <time>2018-08-15T14:02:13Z</time>
      </trkpt>
      <trkpt lat="44.58769" lon="5.93078">
        <ele>1217</ele>
        <time>2018-08-15T14:02:19Z</time>
      </trkpt>
      <trkpt lat="44.58739" lon="5.9305">
        <ele>1205</ele>
        <time>2018-08-15T14:02:27Z</time>
      </trkpt>
      <trkpt lat="44.58736" lon="5.93044">
        <ele>1205</ele>
        <time>2018-08-15T14:02:28Z</time>
      </trkpt>
      <trkpt lat="44.58726" lon="5.93014">
        <ele>1204</ele>
        <time>2018-08-15T14:02:33Z</time>
      </trkpt>
      <trkpt lat="44.58726" lon="5.93002">
        <ele>1204</ele>
        <time>2018-08-15T14:02:35Z</time>
      </trkpt>
      <trkpt lat="44.58729" lon="5.92991">
        <ele>1203</ele>
        <time>2018-08-15T14:02:37Z</time>
      </trkpt>
      <trkpt lat="44.5873" lon="5.92984">
        <ele>1203</ele>
        <time>2018-08-15T14:02:38Z</time>
      </trkpt>
      <trkpt lat="44.58731" lon="5.92977">
        <ele>1203</ele>
        <time>2018-08-15T14:02:39Z</time>
      </trkpt>
      <trkpt lat="44.58733" lon="5.92967">
        <ele>1203</ele>
        <time>2018-08-15T14:02:41Z</time>
      </trkpt>
      <trkpt lat="44.58731" lon="5.92956">
        <ele>1203</ele>
        <time>2018-08-15T14:02:43Z</time>
      </trkpt>
      <trkpt lat="44.58724" lon="5.92951">
        <ele>1203</ele>
        <time>2018-08-15T14:02:45Z</time>
      </trkpt>
      <trkpt lat="44.58717" lon="5.92949">
        <ele>1202</ele>
        <time>2018-08-15T14:02:47Z</time>
      </trkpt>
      <trkpt lat="44.58713" lon="5.92944">
        <ele>1202</ele>
        <time>2018-08-15T14:03:02Z</time>
      </trkpt>
      <trkpt lat="44.58706" lon="5.92933">
        <ele>1201</ele>
        <time>2018-08-15T14:04:05Z</time>
      </trkpt>
      <trkpt lat="44.58697" lon="5.92922">
        <ele>1199</ele>
        <time>2018-08-15T14:04:09Z</time>
      </trkpt>
      <trkpt lat="44.58689" lon="5.92913">
        <ele>1204</ele>
        <time>2018-08-15T14:04:12Z</time>
      </trkpt>
      <trkpt lat="44.58642" lon="5.92842">
        <ele>1200</ele>
        <time>2018-08-15T14:04:30Z</time>
      </trkpt>
      <trkpt lat="44.58634" lon="5.92832">
        <ele>1215</ele>
        <time>2018-08-15T14:04:34Z</time>
      </trkpt>
      <trkpt lat="44.58624" lon="5.92826">
        <ele>1215</ele>
        <time>2018-08-15T14:04:37Z</time>
      </trkpt>
      <trkpt lat="44.58615" lon="5.92823">
        <ele>1214</ele>
        <time>2018-08-15T14:04:40Z</time>
      </trkpt>
      <trkpt lat="44.58604" lon="5.92824">
        <ele>1212</ele>
        <time>2018-08-15T14:04:44Z</time>
      </trkpt>
      <trkpt lat="44.5858" lon="5.9283">
        <ele>1203</ele>
        <time>2018-08-15T14:04:49Z</time>
      </trkpt>
      <trkpt lat="44.58559" lon="5.92832">
        <ele>1209</ele>
        <time>2018-08-15T14:04:53Z</time>
      </trkpt>
      <trkpt lat="44.58547" lon="5.92826">
        <ele>1211</ele>
        <time>2018-08-15T14:04:56Z</time>
      </trkpt>
      <trkpt lat="44.58538" lon="5.92824">
        <ele>1211</ele>
        <time>2018-08-15T14:04:59Z</time>
      </trkpt>
      <trkpt lat="44.58526" lon="5.92825">
        <ele>1210</ele>
        <time>2018-08-15T14:05:03Z</time>
      </trkpt>
      <trkpt lat="44.58509" lon="5.92827">
        <ele>1207</ele>
        <time>2018-08-15T14:05:10Z</time>
      </trkpt>
      <trkpt lat="44.58482" lon="5.92836">
        <ele>1198</ele>
        <time>2018-08-15T14:05:18Z</time>
      </trkpt>
      <trkpt lat="44.58415" lon="5.92824">
        <ele>1209</ele>
        <time>2018-08-15T14:05:35Z</time>
      </trkpt>
      <trkpt lat="44.58359" lon="5.92774">
        <ele>1216</ele>
        <time>2018-08-15T14:05:54Z</time>
      </trkpt>
      <trkpt lat="44.58349" lon="5.92765">
        <ele>1217</ele>
        <time>2018-08-15T14:05:57Z</time>
      </trkpt>
      <trkpt lat="44.58323" lon="5.92758">
        <ele>1216</ele>
        <time>2018-08-15T14:06:10Z</time>
      </trkpt>
      <trkpt lat="44.58312" lon="5.92759">
        <ele>1214</ele>
        <time>2018-08-15T14:06:13Z</time>
      </trkpt>
      <trkpt lat="44.58302" lon="5.9276">
        <ele>1213</ele>
        <time>2018-08-15T14:06:16Z</time>
      </trkpt>
      <trkpt lat="44.58259" lon="5.92753">
        <ele>1216</ele>
        <time>2018-08-15T14:06:30Z</time>
      </trkpt>
      <trkpt lat="44.58251" lon="5.92747">
        <ele>1220</ele>
        <time>2018-08-15T14:06:33Z</time>
      </trkpt>
      <trkpt lat="44.58239" lon="5.92744">
        <ele>1220</ele>
        <time>2018-08-15T14:06:36Z</time>
      </trkpt>
      <trkpt lat="44.58221" lon="5.92728">
        <ele>1222</ele>
        <time>2018-08-15T14:06:42Z</time>
      </trkpt>
      <trkpt lat="44.58215" lon="5.92718">
        <ele>1222</ele>
        <time>2018-08-15T14:06:45Z</time>
      </trkpt>
      <trkpt lat="44.58209" lon="5.92687">
        <ele>1225</ele>
        <time>2018-08-15T14:06:52Z</time>
      </trkpt>
      <trkpt lat="44.58189" lon="5.92653">
        <ele>1234</ele>
        <time>2018-08-15T14:07:04Z</time>
      </trkpt>
      <trkpt lat="44.58182" lon="5.92645">
        <ele>1235</ele>
        <time>2018-08-15T14:07:07Z</time>
      </trkpt>
      <trkpt lat="44.58175" lon="5.92638">
        <ele>1235</ele>
        <time>2018-08-15T14:07:10Z</time>
      </trkpt>
      <trkpt lat="44.58166" lon="5.92629">
        <ele>1233</ele>
        <time>2018-08-15T14:07:15Z</time>
      </trkpt>
      <trkpt lat="44.58149" lon="5.92611">
        <ele>1234</ele>
        <time>2018-08-15T14:07:23Z</time>
      </trkpt>
      <trkpt lat="44.5814" lon="5.92603">
        <ele>1234</ele>
        <time>2018-08-15T14:07:27Z</time>
      </trkpt>
      <trkpt lat="44.58129" lon="5.92597">
        <ele>1234</ele>
        <time>2018-08-15T14:07:35Z</time>
      </trkpt>
      <trkpt lat="44.58111" lon="5.92581">
        <ele>1240</ele>
        <time>2018-08-15T14:07:47Z</time>
      </trkpt>
      <trkpt lat="44.581" lon="5.92577">
        <ele>1239</ele>
        <time>2018-08-15T14:07:50Z</time>
      </trkpt>
      <trkpt lat="44.58077" lon="5.92571">
        <ele>1239</ele>
        <time>2018-08-15T14:07:56Z</time>
      </trkpt>
      <trkpt lat="44.58065" lon="5.92563">
        <ele>1241</ele>
        <time>2018-08-15T14:07:59Z</time>
      </trkpt>
      <trkpt lat="44.58045" lon="5.92541">
        <ele>1243</ele>
        <time>2018-08-15T14:08:12Z</time>
      </trkpt>
      <trkpt lat="44.58052" lon="5.9253">
        <ele>1244</ele>
        <time>2018-08-15T14:08:19Z</time>
      </trkpt>
      <trkpt lat="44.58078" lon="5.92499">
        <ele>1250</ele>
        <time>2018-08-15T14:08:33Z</time>
      </trkpt>
      <trkpt lat="44.58089" lon="5.92496">
        <ele>1249</ele>
        <time>2018-08-15T14:08:37Z</time>
      </trkpt>
      <trkpt lat="44.58098" lon="5.92491">
        <ele>1253</ele>
        <time>2018-08-15T14:08:41Z</time>
      </trkpt>
      <trkpt lat="44.58107" lon="5.92485">
        <ele>1255</ele>
        <time>2018-08-15T14:08:45Z</time>
      </trkpt>
      <trkpt lat="44.58149" lon="5.92466">
        <ele>1258</ele>
        <time>2018-08-15T14:09:01Z</time>
      </trkpt>
      <trkpt lat="44.58159" lon="5.9246">
        <ele>1259</ele>
        <time>2018-08-15T14:09:05Z</time>
      </trkpt>
      <trkpt lat="44.5817" lon="5.92456">
        <ele>1263</ele>
        <time>2018-08-15T14:09:09Z</time>
      </trkpt>
      <trkpt lat="44.58181" lon="5.92456">
        <ele>1264</ele>
        <time>2018-08-15T14:09:13Z</time>
      </trkpt>
      <trkpt lat="44.58187" lon="5.92459">
        <ele>1264</ele>
        <time>2018-08-15T14:09:15Z</time>
      </trkpt>
      <trkpt lat="44.58192" lon="5.92463">
        <ele>1264</ele>
        <time>2018-08-15T14:09:17Z</time>
      </trkpt>
      <trkpt lat="44.58195" lon="5.92467">
        <ele>1264</ele>
        <time>2018-08-15T14:09:19Z</time>
      </trkpt>
      <trkpt lat="44.58202" lon="5.92477">
        <ele>1263</ele>
        <time>2018-08-15T14:09:23Z</time>
      </trkpt>
      <trkpt lat="44.58205" lon="5.92485">
        <ele>1263</ele>
        <time>2018-08-15T14:09:26Z</time>
      </trkpt>
      <trkpt lat="44.58214" lon="5.92506">
        <ele>1253</ele>
        <time>2018-08-15T14:09:34Z</time>
      </trkpt>
      <trkpt lat="44.58219" lon="5.92513">
        <ele>1254</ele>
        <time>2018-08-15T14:09:36Z</time>
      </trkpt>
      <trkpt lat="44.58225" lon="5.92518">
        <ele>1254</ele>
        <time>2018-08-15T14:09:38Z</time>
      </trkpt>
      <trkpt lat="44.5823" lon="5.92521">
        <ele>1255</ele>
        <time>2018-08-15T14:09:40Z</time>
      </trkpt>
      <trkpt lat="44.58249" lon="5.92525">
        <ele>1256</ele>
        <time>2018-08-15T14:09:48Z</time>
      </trkpt>
      <trkpt lat="44.58312" lon="5.92562">
        <ele>1264</ele>
        <time>2018-08-15T14:10:12Z</time>
      </trkpt>
      <trkpt lat="44.58324" lon="5.92564">
        <ele>1265</ele>
        <time>2018-08-15T14:10:16Z</time>
      </trkpt>
      <trkpt lat="44.58336" lon="5.92559">
        <ele>1269</ele>
        <time>2018-08-15T14:10:22Z</time>
      </trkpt>
      <trkpt lat="44.58352" lon="5.92527">
        <ele>1274</ele>
        <time>2018-08-15T14:10:32Z</time>
      </trkpt>
      <trkpt lat="44.58371" lon="5.92518">
        <ele>1274</ele>
        <time>2018-08-15T14:10:38Z</time>
      </trkpt>
      <trkpt lat="44.58385" lon="5.92513">
        <ele>1274</ele>
        <time>2018-08-15T14:10:45Z</time>
      </trkpt>
      <trkpt lat="44.58397" lon="5.92511">
        <ele>1275</ele>
        <time>2018-08-15T14:10:49Z</time>
      </trkpt>
      <trkpt lat="44.5842" lon="5.92478">
        <ele>1287</ele>
        <time>2018-08-15T14:11:01Z</time>
      </trkpt>
      <trkpt lat="44.58432" lon="5.9247">
        <ele>1289</ele>
        <time>2018-08-15T14:11:07Z</time>
      </trkpt>
      <trkpt lat="44.58441" lon="5.92462">
        <ele>1291</ele>
        <time>2018-08-15T14:11:10Z</time>
      </trkpt>
      <trkpt lat="44.5845" lon="5.92455">
        <ele>1292</ele>
        <time>2018-08-15T14:11:13Z</time>
      </trkpt>
      <trkpt lat="44.58464" lon="5.92459">
        <ele>1293</ele>
        <time>2018-08-15T14:11:21Z</time>
      </trkpt>
      <trkpt lat="44.58484" lon="5.92484">
        <ele>1291</ele>
        <time>2018-08-15T14:11:29Z</time>
      </trkpt>
      <trkpt lat="44.58496" lon="5.92493">
        <ele>1290</ele>
        <time>2018-08-15T14:11:34Z</time>
      </trkpt>
      <trkpt lat="44.58506" lon="5.92497">
        <ele>1292</ele>
        <time>2018-08-15T14:11:38Z</time>
      </trkpt>
      <trkpt lat="44.58524" lon="5.92516">
        <ele>1287</ele>
        <time>2018-08-15T14:11:49Z</time>
      </trkpt>
      <trkpt lat="44.58528" lon="5.92519">
        <ele>1286</ele>
        <time>2018-08-15T14:11:51Z</time>
      </trkpt>
      <trkpt lat="44.58538" lon="5.92522">
        <ele>1287</ele>
        <time>2018-08-15T14:11:56Z</time>
      </trkpt>
      <trkpt lat="44.58543" lon="5.92521">
        <ele>1287</ele>
        <time>2018-08-15T14:11:58Z</time>
      </trkpt>
      <trkpt lat="44.58548" lon="5.92519">
        <ele>1288</ele>
        <time>2018-08-15T14:11:59Z</time>
      </trkpt>
      <trkpt lat="44.58553" lon="5.92517">
        <ele>1288</ele>
        <time>2018-08-15T14:12:01Z</time>
      </trkpt>
      <trkpt lat="44.58577" lon="5.92507">
        <ele>1294</ele>
        <time>2018-08-15T14:12:11Z</time>
      </trkpt>
      <trkpt lat="44.58588" lon="5.92508">
        <ele>1298</ele>
        <time>2018-08-15T14:12:15Z</time>
      </trkpt>
      <trkpt lat="44.58599" lon="5.92512">
        <ele>1297</ele>
        <time>2018-08-15T14:12:19Z</time>
      </trkpt>
      <trkpt lat="44.58605" lon="5.92512">
        <ele>1298</ele>
        <time>2018-08-15T14:12:21Z</time>
      </trkpt>
      <trkpt lat="44.58611" lon="5.92508">
        <ele>1298</ele>
        <time>2018-08-15T14:12:23Z</time>
      </trkpt>
      <trkpt lat="44.58613" lon="5.92501">
        <ele>1299</ele>
        <time>2018-08-15T14:12:25Z</time>
      </trkpt>
      <trkpt lat="44.58612" lon="5.92491">
        <ele>1311</ele>
        <time>2018-08-15T14:12:27Z</time>
      </trkpt>
      <trkpt lat="44.5861" lon="5.92483">
        <ele>1311</ele>
        <time>2018-08-15T14:12:29Z</time>
      </trkpt>
      <trkpt lat="44.58599" lon="5.92469">
        <ele>1312</ele>
        <time>2018-08-15T14:12:36Z</time>
      </trkpt>
      <trkpt lat="44.58576" lon="5.92467">
        <ele>1303</ele>
        <time>2018-08-15T14:12:46Z</time>
      </trkpt>
      <trkpt lat="44.58567" lon="5.92461">
        <ele>1304</ele>
        <time>2018-08-15T14:12:50Z</time>
      </trkpt>
      <trkpt lat="44.58557" lon="5.9245">
        <ele>1305</ele>
        <time>2018-08-15T14:12:54Z</time>
      </trkpt>
      <trkpt lat="44.58551" lon="5.92441">
        <ele>1306</ele>
        <time>2018-08-15T14:12:57Z</time>
      </trkpt>
      <trkpt lat="44.5855" lon="5.92427">
        <ele>1307</ele>
        <time>2018-08-15T14:13:02Z</time>
      </trkpt>
      <trkpt lat="44.58554" lon="5.92414">
        <ele>1319</ele>
        <time>2018-08-15T14:13:06Z</time>
      </trkpt>
      <trkpt lat="44.58554" lon="5.924">
        <ele>1320</ele>
        <time>2018-08-15T14:13:14Z</time>
      </trkpt>
      <trkpt lat="44.58545" lon="5.92388">
        <ele>1321</ele>
        <time>2018-08-15T14:13:45Z</time>
      </trkpt>
      <trkpt lat="44.58539" lon="5.92382">
        <ele>1321</ele>
        <time>2018-08-15T14:13:48Z</time>
      </trkpt>
      <trkpt lat="44.58535" lon="5.92379">
        <ele>1321</ele>
        <time>2018-08-15T14:13:50Z</time>
      </trkpt>
      <trkpt lat="44.58531" lon="5.92376">
        <ele>1321</ele>
        <time>2018-08-15T14:13:52Z</time>
      </trkpt>
      <trkpt lat="44.58527" lon="5.9237">
        <ele>1322</ele>
        <time>2018-08-15T14:13:56Z</time>
      </trkpt>
      <trkpt lat="44.58503" lon="5.92359">
        <ele>1323</ele>
        <time>2018-08-15T14:14:06Z</time>
      </trkpt>
      <trkpt lat="44.58496" lon="5.92358">
        <ele>1319</ele>
        <time>2018-08-15T14:14:09Z</time>
      </trkpt>
      <trkpt lat="44.58491" lon="5.92357">
        <ele>1319</ele>
        <time>2018-08-15T14:14:11Z</time>
      </trkpt>
      <trkpt lat="44.58481" lon="5.92352">
        <ele>1319</ele>
        <time>2018-08-15T14:14:15Z</time>
      </trkpt>
      <trkpt lat="44.58476" lon="5.92352">
        <ele>1318</ele>
        <time>2018-08-15T14:14:17Z</time>
      </trkpt>
      <trkpt lat="44.58465" lon="5.92349">
        <ele>1317</ele>
        <time>2018-08-15T14:14:21Z</time>
      </trkpt>
      <trkpt lat="44.58452" lon="5.92346">
        <ele>1317</ele>
        <time>2018-08-15T14:14:25Z</time>
      </trkpt>
      <trkpt lat="44.58446" lon="5.92343">
        <ele>1317</ele>
        <time>2018-08-15T14:14:27Z</time>
      </trkpt>
      <trkpt lat="44.58441" lon="5.92339">
        <ele>1317</ele>
        <time>2018-08-15T14:14:29Z</time>
      </trkpt>
      <trkpt lat="44.58439" lon="5.92333">
        <ele>1330</ele>
        <time>2018-08-15T14:14:32Z</time>
      </trkpt>
      <trkpt lat="44.58434" lon="5.92309">
        <ele>1332</ele>
        <time>2018-08-15T14:14:39Z</time>
      </trkpt>
      <trkpt lat="44.58427" lon="5.92284">
        <ele>1337</ele>
        <time>2018-08-15T14:14:48Z</time>
      </trkpt>
      <trkpt lat="44.58418" lon="5.92274">
        <ele>1338</ele>
        <time>2018-08-15T14:14:52Z</time>
      </trkpt>
      <trkpt lat="44.58386" lon="5.92218">
        <ele>1346</ele>
        <time>2018-08-15T14:15:11Z</time>
      </trkpt>
      <trkpt lat="44.58357" lon="5.92199">
        <ele>1347</ele>
        <time>2018-08-15T14:15:23Z</time>
      </trkpt>
      <trkpt lat="44.58326" lon="5.9218">
        <ele>1347</ele>
        <time>2018-08-15T14:15:36Z</time>
      </trkpt>
      <trkpt lat="44.58315" lon="5.92178">
        <ele>1347</ele>
        <time>2018-08-15T14:15:39Z</time>
      </trkpt>
      <trkpt lat="44.5827" lon="5.92177">
        <ele>1347</ele>
        <time>2018-08-15T14:15:53Z</time>
      </trkpt>
      <trkpt lat="44.58213" lon="5.92146">
        <ele>1365</ele>
        <time>2018-08-15T14:16:18Z</time>
      </trkpt>
      <trkpt lat="44.58197" lon="5.92142">
        <ele>1365</ele>
        <time>2018-08-15T14:16:25Z</time>
      </trkpt>
      <trkpt lat="44.58149" lon="5.92158">
        <ele>1367</ele>
        <time>2018-08-15T14:16:33Z</time>
      </trkpt>
      <trkpt lat="44.58107" lon="5.92181">
        <ele>1355</ele>
        <time>2018-08-15T14:16:42Z</time>
      </trkpt>
      <trkpt lat="44.58109" lon="5.92172">
        <ele>1356</ele>
        <time>2018-08-15T14:16:59Z</time>
      </trkpt>
      <trkpt lat="44.58121" lon="5.92165">
        <ele>1372</ele>
        <time>2018-08-15T14:17:05Z</time>
      </trkpt>
      <trkpt lat="44.58138" lon="5.92153">
        <ele>1371</ele>
        <time>2018-08-15T14:17:12Z</time>
      </trkpt>
      <trkpt lat="44.58151" lon="5.92139">
        <ele>1372</ele>
        <time>2018-08-15T14:17:19Z</time>
      </trkpt>
      <trkpt lat="44.58155" lon="5.92137">
        <ele>1372</ele>
        <time>2018-08-15T14:17:21Z</time>
      </trkpt>
      <trkpt lat="44.5816" lon="5.92133">
        <ele>1373</ele>
        <time>2018-08-15T14:17:23Z</time>
      </trkpt>
      <trkpt lat="44.58176" lon="5.92123">
        <ele>1369</ele>
        <time>2018-08-15T14:17:30Z</time>
      </trkpt>
      <trkpt lat="44.58182" lon="5.92119">
        <ele>1370</ele>
        <time>2018-08-15T14:17:33Z</time>
      </trkpt>
      <trkpt lat="44.58191" lon="5.9211">
        <ele>1372</ele>
        <time>2018-08-15T14:17:37Z</time>
      </trkpt>
      <trkpt lat="44.58195" lon="5.92107">
        <ele>1372</ele>
        <time>2018-08-15T14:17:39Z</time>
      </trkpt>
      <trkpt lat="44.582" lon="5.92106">
        <ele>1372</ele>
        <time>2018-08-15T14:17:41Z</time>
      </trkpt>
      <trkpt lat="44.58212" lon="5.921">
        <ele>1372</ele>
        <time>2018-08-15T14:17:45Z</time>
      </trkpt>
      <trkpt lat="44.58228" lon="5.92099">
        <ele>1372</ele>
        <time>2018-08-15T14:17:51Z</time>
      </trkpt>
      <trkpt lat="44.58241" lon="5.92096">
        <ele>1374</ele>
        <time>2018-08-15T14:17:56Z</time>
      </trkpt>
      <trkpt lat="44.58246" lon="5.92096">
        <ele>1374</ele>
        <time>2018-08-15T14:17:58Z</time>
      </trkpt>
      <trkpt lat="44.58252" lon="5.92096">
        <ele>1374</ele>
        <time>2018-08-15T14:18:00Z</time>
      </trkpt>
      <trkpt lat="44.58257" lon="5.92094">
        <ele>1374</ele>
        <time>2018-08-15T14:18:02Z</time>
      </trkpt>
      <trkpt lat="44.58264" lon="5.92084">
        <ele>1374</ele>
        <time>2018-08-15T14:18:06Z</time>
      </trkpt>
      <trkpt lat="44.58268" lon="5.92077">
        <ele>1387</ele>
        <time>2018-08-15T14:18:08Z</time>
      </trkpt>
      <trkpt lat="44.58269" lon="5.92068">
        <ele>1389</ele>
        <time>2018-08-15T14:18:10Z</time>
      </trkpt>
      <trkpt lat="44.58268" lon="5.92061">
        <ele>1390</ele>
        <time>2018-08-15T14:18:12Z</time>
      </trkpt>
      <trkpt lat="44.58265" lon="5.9205">
        <ele>1392</ele>
        <time>2018-08-15T14:18:17Z</time>
      </trkpt>
      <trkpt lat="44.58258" lon="5.92048">
        <ele>1393</ele>
        <time>2018-08-15T14:18:20Z</time>
      </trkpt>
      <trkpt lat="44.58253" lon="5.9205">
        <ele>1392</ele>
        <time>2018-08-15T14:18:22Z</time>
      </trkpt>
      <trkpt lat="44.58233" lon="5.92056">
        <ele>1392</ele>
        <time>2018-08-15T14:18:27Z</time>
      </trkpt>
      <trkpt lat="44.58218" lon="5.92066">
        <ele>1392</ele>
        <time>2018-08-15T14:18:31Z</time>
      </trkpt>
      <trkpt lat="44.58212" lon="5.92067">
        <ele>1392</ele>
        <time>2018-08-15T14:18:33Z</time>
      </trkpt>
      <trkpt lat="44.58206" lon="5.92066">
        <ele>1393</ele>
        <time>2018-08-15T14:18:36Z</time>
      </trkpt>
      <trkpt lat="44.582" lon="5.92066">
        <ele>1393</ele>
        <time>2018-08-15T14:18:38Z</time>
      </trkpt>
      <trkpt lat="44.58195" lon="5.92064">
        <ele>1393</ele>
        <time>2018-08-15T14:18:40Z</time>
      </trkpt>
      <trkpt lat="44.58155" lon="5.92071">
        <ele>1397</ele>
        <time>2018-08-15T14:18:49Z</time>
      </trkpt>
      <trkpt lat="44.58149" lon="5.92071">
        <ele>1399</ele>
        <time>2018-08-15T14:18:53Z</time>
      </trkpt>
      <trkpt lat="44.58145" lon="5.9207">
        <ele>1401</ele>
        <time>2018-08-15T14:18:55Z</time>
      </trkpt>
      <trkpt lat="44.58141" lon="5.92064">
        <ele>1403</ele>
        <time>2018-08-15T14:19:00Z</time>
      </trkpt>
      <trkpt lat="44.58157" lon="5.92061">
        <ele>1401</ele>
        <time>2018-08-15T14:19:12Z</time>
      </trkpt>
      <trkpt lat="44.58224" lon="5.92023">
        <ele>1400</ele>
        <time>2018-08-15T14:19:41Z</time>
      </trkpt>
      <trkpt lat="44.58232" lon="5.92013">
        <ele>1402</ele>
        <time>2018-08-15T14:19:46Z</time>
      </trkpt>
      <trkpt lat="44.58238" lon="5.92009">
        <ele>1403</ele>
        <time>2018-08-15T14:19:49Z</time>
      </trkpt>
      <trkpt lat="44.58261" lon="5.92001">
        <ele>1403</ele>
        <time>2018-08-15T14:20:00Z</time>
      </trkpt>
      <trkpt lat="44.58267" lon="5.92002">
        <ele>1402</ele>
        <time>2018-08-15T14:20:03Z</time>
      </trkpt>
      <trkpt lat="44.58277" lon="5.91999">
        <ele>1417</ele>
        <time>2018-08-15T14:20:07Z</time>
      </trkpt>
      <trkpt lat="44.58282" lon="5.91997">
        <ele>1417</ele>
        <time>2018-08-15T14:20:09Z</time>
      </trkpt>
      <trkpt lat="44.58287" lon="5.91998">
        <ele>1417</ele>
        <time>2018-08-15T14:20:12Z</time>
      </trkpt>
      <trkpt lat="44.58293" lon="5.92003">
        <ele>1400</ele>
        <time>2018-08-15T14:20:15Z</time>
      </trkpt>
      <trkpt lat="44.58302" lon="5.92007">
        <ele>1400</ele>
        <time>2018-08-15T14:20:19Z</time>
      </trkpt>
      <trkpt lat="44.58327" lon="5.92007">
        <ele>1404</ele>
        <time>2018-08-15T14:20:27Z</time>
      </trkpt>
      <trkpt lat="44.58347" lon="5.92007">
        <ele>1405</ele>
        <time>2018-08-15T14:20:35Z</time>
      </trkpt>
      <trkpt lat="44.58352" lon="5.92009">
        <ele>1404</ele>
        <time>2018-08-15T14:20:37Z</time>
      </trkpt>
      <trkpt lat="44.5837" lon="5.92008">
        <ele>1404</ele>
        <time>2018-08-15T14:20:44Z</time>
      </trkpt>
      <trkpt lat="44.58405" lon="5.91994">
        <ele>1421</ele>
        <time>2018-08-15T14:20:56Z</time>
      </trkpt>
      <trkpt lat="44.58435" lon="5.91997">
        <ele>1429</ele>
        <time>2018-08-15T14:21:07Z</time>
      </trkpt>
      <trkpt lat="44.58446" lon="5.92002">
        <ele>1417</ele>
        <time>2018-08-15T14:21:13Z</time>
      </trkpt>
      <trkpt lat="44.58459" lon="5.92004">
        <ele>1418</ele>
        <time>2018-08-15T14:21:19Z</time>
      </trkpt>
      <trkpt lat="44.58485" lon="5.92016">
        <ele>1423</ele>
        <time>2018-08-15T14:21:33Z</time>
      </trkpt>
      <trkpt lat="44.58496" lon="5.92021">
        <ele>1423</ele>
        <time>2018-08-15T14:21:37Z</time>
      </trkpt>
      <trkpt lat="44.58505" lon="5.92026">
        <ele>1432</ele>
        <time>2018-08-15T14:21:41Z</time>
      </trkpt>
      <trkpt lat="44.58516" lon="5.92028">
        <ele>1432</ele>
        <time>2018-08-15T14:21:45Z</time>
      </trkpt>
      <trkpt lat="44.58534" lon="5.92037">
        <ele>1431</ele>
        <time>2018-08-15T14:21:52Z</time>
      </trkpt>
      <trkpt lat="44.58566" lon="5.9206">
        <ele>1430</ele>
        <time>2018-08-15T14:22:08Z</time>
      </trkpt>
      <trkpt lat="44.58587" lon="5.92065">
        <ele>1437</ele>
        <time>2018-08-15T14:22:18Z</time>
      </trkpt>
      <trkpt lat="44.58633" lon="5.92062">
        <ele>1444</ele>
        <time>2018-08-15T14:22:35Z</time>
      </trkpt>
      <trkpt lat="44.58642" lon="5.92064">
        <ele>1444</ele>
        <time>2018-08-15T14:22:40Z</time>
      </trkpt>
      <trkpt lat="44.58653" lon="5.92073">
        <ele>1443</ele>
        <time>2018-08-15T14:22:46Z</time>
      </trkpt>
      <trkpt lat="44.58662" lon="5.9208">
        <ele>1442</ele>
        <time>2018-08-15T14:22:50Z</time>
      </trkpt>
      <trkpt lat="44.58672" lon="5.92085">
        <ele>1438</ele>
        <time>2018-08-15T14:22:53Z</time>
      </trkpt>
      <trkpt lat="44.58682" lon="5.92091">
        <ele>1434</ele>
        <time>2018-08-15T14:22:57Z</time>
      </trkpt>
      <trkpt lat="44.58709" lon="5.92095">
        <ele>1432</ele>
        <time>2018-08-15T14:23:07Z</time>
      </trkpt>
      <trkpt lat="44.58714" lon="5.92092">
        <ele>1433</ele>
        <time>2018-08-15T14:23:09Z</time>
      </trkpt>
      <trkpt lat="44.58719" lon="5.92086">
        <ele>1434</ele>
        <time>2018-08-15T14:23:11Z</time>
      </trkpt>
      <trkpt lat="44.58722" lon="5.92081">
        <ele>1452</ele>
        <time>2018-08-15T14:23:13Z</time>
      </trkpt>
      <trkpt lat="44.5873" lon="5.92073">
        <ele>1452</ele>
        <time>2018-08-15T14:23:17Z</time>
      </trkpt>
      <trkpt lat="44.58734" lon="5.9207">
        <ele>1452</ele>
        <time>2018-08-15T14:23:19Z</time>
      </trkpt>
      <trkpt lat="44.58743" lon="5.92065">
        <ele>1453</ele>
        <time>2018-08-15T14:23:23Z</time>
      </trkpt>
      <trkpt lat="44.58757" lon="5.9206">
        <ele>1457</ele>
        <time>2018-08-15T14:23:29Z</time>
      </trkpt>
      <trkpt lat="44.58764" lon="5.92058">
        <ele>1458</ele>
        <time>2018-08-15T14:23:32Z</time>
      </trkpt>
      <trkpt lat="44.58771" lon="5.92054">
        <ele>1459</ele>
        <time>2018-08-15T14:23:36Z</time>
      </trkpt>
      <trkpt lat="44.58774" lon="5.9205">
        <ele>1460</ele>
        <time>2018-08-15T14:23:40Z</time>
      </trkpt>
      <trkpt lat="44.58774" lon="5.9204">
        <ele>1462</ele>
        <time>2018-08-15T14:24:18Z</time>
      </trkpt>
      <trkpt lat="44.58769" lon="5.92035">
        <ele>1463</ele>
        <time>2018-08-15T14:24:22Z</time>
      </trkpt>
      <trkpt lat="44.58764" lon="5.92033">
        <ele>1463</ele>
        <time>2018-08-15T14:24:24Z</time>
      </trkpt>
      <trkpt lat="44.58754" lon="5.9203">
        <ele>1464</ele>
        <time>2018-08-15T14:24:28Z</time>
      </trkpt>
      <trkpt lat="44.58749" lon="5.92026">
        <ele>1462</ele>
        <time>2018-08-15T14:24:30Z</time>
      </trkpt>
      <trkpt lat="44.58746" lon="5.92021">
        <ele>1463</ele>
        <time>2018-08-15T14:24:32Z</time>
      </trkpt>
      <trkpt lat="44.58737" lon="5.92007">
        <ele>1466</ele>
        <time>2018-08-15T14:24:36Z</time>
      </trkpt>
      <trkpt lat="44.58731" lon="5.92001">
        <ele>1465</ele>
        <time>2018-08-15T14:24:38Z</time>
      </trkpt>
      <trkpt lat="44.58719" lon="5.91991">
        <ele>1474</ele>
        <time>2018-08-15T14:24:42Z</time>
      </trkpt>
      <trkpt lat="44.58711" lon="5.91987">
        <ele>1474</ele>
        <time>2018-08-15T14:24:44Z</time>
      </trkpt>
      <trkpt lat="44.58703" lon="5.91981">
        <ele>1474</ele>
        <time>2018-08-15T14:24:46Z</time>
      </trkpt>
      <trkpt lat="44.58699" lon="5.91976">
        <ele>1474</ele>
        <time>2018-08-15T14:24:48Z</time>
      </trkpt>
      <trkpt lat="44.58694" lon="5.91971">
        <ele>1474</ele>
        <time>2018-08-15T14:24:50Z</time>
      </trkpt>
      <trkpt lat="44.58689" lon="5.91969">
        <ele>1474</ele>
        <time>2018-08-15T14:24:52Z</time>
      </trkpt>
      <trkpt lat="44.58675" lon="5.91969">
        <ele>1473</ele>
        <time>2018-08-15T14:24:55Z</time>
      </trkpt>
      <trkpt lat="44.58661" lon="5.91965">
        <ele>1467</ele>
        <time>2018-08-15T14:24:59Z</time>
      </trkpt>
      <trkpt lat="44.58654" lon="5.91959">
        <ele>1467</ele>
        <time>2018-08-15T14:25:01Z</time>
      </trkpt>
      <trkpt lat="44.58649" lon="5.91954">
        <ele>1468</ele>
        <time>2018-08-15T14:25:02Z</time>
      </trkpt>
      <trkpt lat="44.58638" lon="5.91946">
        <ele>1468</ele>
        <time>2018-08-15T14:25:04Z</time>
      </trkpt>
      <trkpt lat="44.58622" lon="5.91924">
        <ele>1468</ele>
        <time>2018-08-15T14:25:10Z</time>
      </trkpt>
      <trkpt lat="44.58545" lon="5.91872">
        <ele>1473</ele>
        <time>2018-08-15T14:25:29Z</time>
      </trkpt>
      <trkpt lat="44.58533" lon="5.91866">
        <ele>1473</ele>
        <time>2018-08-15T14:25:32Z</time>
      </trkpt>
      <trkpt lat="44.58522" lon="5.91863">
        <ele>1473</ele>
        <time>2018-08-15T14:25:35Z</time>
      </trkpt>
      <trkpt lat="44.58524" lon="5.91862">
        <ele>1473</ele>
        <time>2018-08-15T14:25:53Z</time>
      </trkpt>
      <trkpt lat="44.58563" lon="5.9185">
        <ele>1478</ele>
        <time>2018-08-15T14:26:16Z</time>
      </trkpt>
      <trkpt lat="44.58583" lon="5.91854">
        <ele>1480</ele>
        <time>2018-08-15T14:26:27Z</time>
      </trkpt>
      <trkpt lat="44.58602" lon="5.91847">
        <ele>1485</ele>
        <time>2018-08-15T14:26:36Z</time>
      </trkpt>
      <trkpt lat="44.58607" lon="5.91848">
        <ele>1485</ele>
        <time>2018-08-15T14:26:39Z</time>
      </trkpt>
      <trkpt lat="44.58612" lon="5.91845">
        <ele>1485</ele>
        <time>2018-08-15T14:26:41Z</time>
      </trkpt>
      <trkpt lat="44.58618" lon="5.91841">
        <ele>1486</ele>
        <time>2018-08-15T14:26:45Z</time>
      </trkpt>
      <trkpt lat="44.58628" lon="5.91831">
        <ele>1502</ele>
        <time>2018-08-15T14:26:49Z</time>
      </trkpt>
      <trkpt lat="44.58632" lon="5.91829">
        <ele>1503</ele>
        <time>2018-08-15T14:26:51Z</time>
      </trkpt>
      <trkpt lat="44.58637" lon="5.91828">
        <ele>1503</ele>
        <time>2018-08-15T14:26:53Z</time>
      </trkpt>
      <trkpt lat="44.58647" lon="5.91827">
        <ele>1502</ele>
        <time>2018-08-15T14:26:57Z</time>
      </trkpt>
      <trkpt lat="44.58678" lon="5.9183">
        <ele>1504</ele>
        <time>2018-08-15T14:27:11Z</time>
      </trkpt>
      <trkpt lat="44.58702" lon="5.91829">
        <ele>1511</ele>
        <time>2018-08-15T14:27:24Z</time>
      </trkpt>
      <trkpt lat="44.58706" lon="5.91831">
        <ele>1511</ele>
        <time>2018-08-15T14:27:26Z</time>
      </trkpt>
      <trkpt lat="44.58715" lon="5.91837">
        <ele>1496</ele>
        <time>2018-08-15T14:27:30Z</time>
      </trkpt>
      <trkpt lat="44.58764" lon="5.91843">
        <ele>1505</ele>
        <time>2018-08-15T14:27:51Z</time>
      </trkpt>
      <trkpt lat="44.58769" lon="5.91839">
        <ele>1506</ele>
        <time>2018-08-15T14:27:58Z</time>
      </trkpt>
      <trkpt lat="44.58774" lon="5.91838">
        <ele>1506</ele>
        <time>2018-08-15T14:28:08Z</time>
      </trkpt>
      <trkpt lat="44.58783" lon="5.91838">
        <ele>1507</ele>
        <time>2018-08-15T14:28:25Z</time>
      </trkpt>
      <trkpt lat="44.58788" lon="5.91836">
        <ele>1507</ele>
        <time>2018-08-15T14:28:30Z</time>
      </trkpt>
      <trkpt lat="44.58795" lon="5.91838">
        <ele>1508</ele>
        <time>2018-08-15T14:28:33Z</time>
      </trkpt>
      <trkpt lat="44.588" lon="5.91838">
        <ele>1509</ele>
        <time>2018-08-15T14:28:36Z</time>
      </trkpt>
      <trkpt lat="44.58806" lon="5.91838">
        <ele>1510</ele>
        <time>2018-08-15T14:28:39Z</time>
      </trkpt>
      <trkpt lat="44.58817" lon="5.91837">
        <ele>1513</ele>
        <time>2018-08-15T14:28:44Z</time>
      </trkpt>
      <trkpt lat="44.58831" lon="5.91832">
        <ele>1522</ele>
        <time>2018-08-15T14:28:50Z</time>
      </trkpt>
      <trkpt lat="44.58836" lon="5.91834">
        <ele>1521</ele>
        <time>2018-08-15T14:28:53Z</time>
      </trkpt>
      <trkpt lat="44.5884" lon="5.91836">
        <ele>1521</ele>
        <time>2018-08-15T14:28:56Z</time>
      </trkpt>
      <trkpt lat="44.58847" lon="5.91837">
        <ele>1522</ele>
        <time>2018-08-15T14:29:02Z</time>
      </trkpt>
      <trkpt lat="44.58853" lon="5.91839">
        <ele>1523</ele>
        <time>2018-08-15T14:29:05Z</time>
      </trkpt>
      <trkpt lat="44.58863" lon="5.91843">
        <ele>1524</ele>
        <time>2018-08-15T14:29:09Z</time>
      </trkpt>
      <trkpt lat="44.58903" lon="5.9187">
        <ele>1526</ele>
        <time>2018-08-15T14:29:31Z</time>
      </trkpt>
      <trkpt lat="44.58965" lon="5.91879">
        <ele>1541</ele>
        <time>2018-08-15T14:29:57Z</time>
      </trkpt>
      <trkpt lat="44.59013" lon="5.91875">
        <ele>1552</ele>
        <time>2018-08-15T14:30:15Z</time>
      </trkpt>
      <trkpt lat="44.59034" lon="5.91863">
        <ele>1556</ele>
        <time>2018-08-15T14:30:27Z</time>
      </trkpt>
      <trkpt lat="44.59054" lon="5.91862">
        <ele>1557</ele>
        <time>2018-08-15T14:30:38Z</time>
      </trkpt>
      <trkpt lat="44.59083" lon="5.91855">
        <ele>1562</ele>
        <time>2018-08-15T14:30:49Z</time>
      </trkpt>
      <trkpt lat="44.59092" lon="5.91855">
        <ele>1568</ele>
        <time>2018-08-15T14:30:53Z</time>
      </trkpt>
      <trkpt lat="44.59111" lon="5.9186">
        <ele>1568</ele>
        <time>2018-08-15T14:31:03Z</time>
      </trkpt>
      <trkpt lat="44.5912" lon="5.91859">
        <ele>1568</ele>
        <time>2018-08-15T14:31:08Z</time>
      </trkpt>
      <trkpt lat="44.59131" lon="5.91862">
        <ele>1569</ele>
        <time>2018-08-15T14:31:14Z</time>
      </trkpt>
      <trkpt lat="44.59162" lon="5.91866">
        <ele>1572</ele>
        <time>2018-08-15T14:31:31Z</time>
      </trkpt>
      <trkpt lat="44.59221" lon="5.91905">
        <ele>1588</ele>
        <time>2018-08-15T14:32:02Z</time>
      </trkpt>
      <trkpt lat="44.59276" lon="5.91948">
        <ele>1592</ele>
        <time>2018-08-15T14:32:33Z</time>
      </trkpt>
      <trkpt lat="44.59294" lon="5.9196">
        <ele>1593</ele>
        <time>2018-08-15T14:32:43Z</time>
      </trkpt>
      <trkpt lat="44.59301" lon="5.91964">
        <ele>1593</ele>
        <time>2018-08-15T14:32:46Z</time>
      </trkpt>
      <trkpt lat="44.59313" lon="5.91967">
        <ele>1595</ele>
        <time>2018-08-15T14:32:50Z</time>
      </trkpt>
      <trkpt lat="44.59359" lon="5.91977">
        <ele>1611</ele>
        <time>2018-08-15T14:33:14Z</time>
      </trkpt>
      <trkpt lat="44.59368" lon="5.91984">
        <ele>1612</ele>
        <time>2018-08-15T14:33:20Z</time>
      </trkpt>
      <trkpt lat="44.59375" lon="5.91987">
        <ele>1613</ele>
        <time>2018-08-15T14:33:23Z</time>
      </trkpt>
      <trkpt lat="44.59379" lon="5.9199">
        <ele>1614</ele>
        <time>2018-08-15T14:33:25Z</time>
      </trkpt>
      <trkpt lat="44.59389" lon="5.91997">
        <ele>1615</ele>
        <time>2018-08-15T14:33:30Z</time>
      </trkpt>
      <trkpt lat="44.59394" lon="5.92">
        <ele>1615</ele>
        <time>2018-08-15T14:33:33Z</time>
      </trkpt>
      <trkpt lat="44.59406" lon="5.92007">
        <ele>1606</ele>
        <time>2018-08-15T14:33:38Z</time>
      </trkpt>
      <trkpt lat="44.59419" lon="5.92011">
        <ele>1615</ele>
        <time>2018-08-15T14:33:44Z</time>
      </trkpt>
      <trkpt lat="44.59424" lon="5.92013">
        <ele>1614</ele>
        <time>2018-08-15T14:33:47Z</time>
      </trkpt>
      <trkpt lat="44.59435" lon="5.92016">
        <ele>1614</ele>
        <time>2018-08-15T14:33:52Z</time>
      </trkpt>
      <trkpt lat="44.59485" lon="5.92034">
        <ele>1618</ele>
        <time>2018-08-15T14:34:22Z</time>
      </trkpt>
      <trkpt lat="44.59491" lon="5.92036">
        <ele>1618</ele>
        <time>2018-08-15T14:34:24Z</time>
      </trkpt>
      <trkpt lat="44.5951" lon="5.92041">
        <ele>1632</ele>
        <time>2018-08-15T14:34:33Z</time>
      </trkpt>
      <trkpt lat="44.59525" lon="5.92039">
        <ele>1634</ele>
        <time>2018-08-15T14:34:39Z</time>
      </trkpt>
      <trkpt lat="44.5954" lon="5.92039">
        <ele>1636</ele>
        <time>2018-08-15T14:34:46Z</time>
      </trkpt>
      <trkpt lat="44.59544" lon="5.9204">
        <ele>1637</ele>
        <time>2018-08-15T14:34:48Z</time>
      </trkpt>
      <trkpt lat="44.5955" lon="5.92041">
        <ele>1637</ele>
        <time>2018-08-15T14:34:51Z</time>
      </trkpt>
      <trkpt lat="44.59558" lon="5.92046">
        <ele>1638</ele>
        <time>2018-08-15T14:34:56Z</time>
      </trkpt>
      <trkpt lat="44.59568" lon="5.92049">
        <ele>1638</ele>
        <time>2018-08-15T14:35:08Z</time>
      </trkpt>
      <trkpt lat="44.5958" lon="5.92059">
        <ele>1638</ele>
        <time>2018-08-15T14:35:27Z</time>
      </trkpt>
      <trkpt lat="44.59588" lon="5.92063">
        <ele>1649</ele>
        <time>2018-08-15T14:35:32Z</time>
      </trkpt>
      <trkpt lat="44.59592" lon="5.92068">
        <ele>1647</ele>
        <time>2018-08-15T14:35:35Z</time>
      </trkpt>
      <trkpt lat="44.59597" lon="5.92073">
        <ele>1647</ele>
        <time>2018-08-15T14:35:38Z</time>
      </trkpt>
      <trkpt lat="44.59601" lon="5.92077">
        <ele>1648</ele>
        <time>2018-08-15T14:35:42Z</time>
      </trkpt>
      <trkpt lat="44.5961" lon="5.92085">
        <ele>1637</ele>
        <time>2018-08-15T14:35:48Z</time>
      </trkpt>
      <trkpt lat="44.59615" lon="5.92089">
        <ele>1637</ele>
        <time>2018-08-15T14:35:52Z</time>
      </trkpt>
      <trkpt lat="44.59619" lon="5.92093">
        <ele>1638</ele>
        <time>2018-08-15T14:35:55Z</time>
      </trkpt>
      <trkpt lat="44.59624" lon="5.92098">
        <ele>1638</ele>
        <time>2018-08-15T14:35:58Z</time>
      </trkpt>
      <trkpt lat="44.59629" lon="5.92102">
        <ele>1639</ele>
        <time>2018-08-15T14:36:00Z</time>
      </trkpt>
      <trkpt lat="44.59633" lon="5.92104">
        <ele>1639</ele>
        <time>2018-08-15T14:36:02Z</time>
      </trkpt>
      <trkpt lat="44.59681" lon="5.92129">
        <ele>1652</ele>
        <time>2018-08-15T14:36:28Z</time>
      </trkpt>
      <trkpt lat="44.5969" lon="5.92137">
        <ele>1651</ele>
        <time>2018-08-15T14:36:32Z</time>
      </trkpt>
      <trkpt lat="44.59704" lon="5.92149">
        <ele>1652</ele>
        <time>2018-08-15T14:36:39Z</time>
      </trkpt>
      <trkpt lat="44.59735" lon="5.92162">
        <ele>1655</ele>
        <time>2018-08-15T14:36:58Z</time>
      </trkpt>
      <trkpt lat="44.59744" lon="5.9216">
        <ele>1655</ele>
        <time>2018-08-15T14:37:03Z</time>
      </trkpt>
      <trkpt lat="44.59753" lon="5.92152">
        <ele>1660</ele>
        <time>2018-08-15T14:37:07Z</time>
      </trkpt>
      <trkpt lat="44.59764" lon="5.92142">
        <ele>1661</ele>
        <time>2018-08-15T14:37:13Z</time>
      </trkpt>
      <trkpt lat="44.59769" lon="5.92141">
        <ele>1662</ele>
        <time>2018-08-15T14:37:16Z</time>
      </trkpt>
      <trkpt lat="44.59774" lon="5.9214">
        <ele>1662</ele>
        <time>2018-08-15T14:37:26Z</time>
      </trkpt>
      <trkpt lat="44.59779" lon="5.92139">
        <ele>1663</ele>
        <time>2018-08-15T14:37:38Z</time>
      </trkpt>
      <trkpt lat="44.59779" lon="5.92137">
        <ele>1663</ele>
        <time>2018-08-15T14:45:53Z</time>
      </trkpt>
      <trkpt lat="44.59772" lon="5.92139">
        <ele>1662</ele>
        <time>2018-08-15T14:46:02Z</time>
      </trkpt>
      <trkpt lat="44.59768" lon="5.92144">
        <ele>1662</ele>
        <time>2018-08-15T14:46:05Z</time>
      </trkpt>
      <trkpt lat="44.59763" lon="5.9215">
        <ele>1661</ele>
        <time>2018-08-15T14:46:07Z</time>
      </trkpt>
      <trkpt lat="44.59753" lon="5.92159">
        <ele>1658</ele>
        <time>2018-08-15T14:46:13Z</time>
      </trkpt>
      <trkpt lat="44.59748" lon="5.92159">
        <ele>1655</ele>
        <time>2018-08-15T14:46:15Z</time>
      </trkpt>
      <trkpt lat="44.59743" lon="5.92157">
        <ele>1655</ele>
        <time>2018-08-15T14:46:17Z</time>
      </trkpt>
      <trkpt lat="44.59738" lon="5.92152">
        <ele>1655</ele>
        <time>2018-08-15T14:46:19Z</time>
      </trkpt>
      <trkpt lat="44.59732" lon="5.92149">
        <ele>1655</ele>
        <time>2018-08-15T14:46:21Z</time>
      </trkpt>
      <trkpt lat="44.59719" lon="5.92142">
        <ele>1654</ele>
        <time>2018-08-15T14:46:24Z</time>
      </trkpt>
      <trkpt lat="44.59711" lon="5.92137">
        <ele>1653</ele>
        <time>2018-08-15T14:46:26Z</time>
      </trkpt>
      <trkpt lat="44.59674" lon="5.92108">
        <ele>1655</ele>
        <time>2018-08-15T14:46:34Z</time>
      </trkpt>
      <trkpt lat="44.59669" lon="5.92106">
        <ele>1655</ele>
        <time>2018-08-15T14:46:35Z</time>
      </trkpt>
      <trkpt lat="44.59631" lon="5.92098">
        <ele>1640</ele>
        <time>2018-08-15T14:46:41Z</time>
      </trkpt>
      <trkpt lat="44.59611" lon="5.92079">
        <ele>1651</ele>
        <time>2018-08-15T14:46:46Z</time>
      </trkpt>
      <trkpt lat="44.59607" lon="5.92075">
        <ele>1650</ele>
        <time>2018-08-15T14:46:47Z</time>
      </trkpt>
      <trkpt lat="44.59598" lon="5.92069">
        <ele>1649</ele>
        <time>2018-08-15T14:46:49Z</time>
      </trkpt>
      <trkpt lat="44.59589" lon="5.92062">
        <ele>1649</ele>
        <time>2018-08-15T14:46:51Z</time>
      </trkpt>
      <trkpt lat="44.59584" lon="5.9206">
        <ele>1650</ele>
        <time>2018-08-15T14:46:52Z</time>
      </trkpt>
      <trkpt lat="44.59581" lon="5.92056">
        <ele>1638</ele>
        <time>2018-08-15T14:46:56Z</time>
      </trkpt>
      <trkpt lat="44.59575" lon="5.92059">
        <ele>1637</ele>
        <time>2018-08-15T14:46:58Z</time>
      </trkpt>
      <trkpt lat="44.59568" lon="5.92053">
        <ele>1638</ele>
        <time>2018-08-15T14:47:31Z</time>
      </trkpt>
      <trkpt lat="44.59557" lon="5.92043">
        <ele>1638</ele>
        <time>2018-08-15T14:47:35Z</time>
      </trkpt>
      <trkpt lat="44.59548" lon="5.92041">
        <ele>1637</ele>
        <time>2018-08-15T14:47:37Z</time>
      </trkpt>
      <trkpt lat="44.59536" lon="5.92043">
        <ele>1635</ele>
        <time>2018-08-15T14:47:40Z</time>
      </trkpt>
      <trkpt lat="44.59531" lon="5.92044">
        <ele>1634</ele>
        <time>2018-08-15T14:47:41Z</time>
      </trkpt>
      <trkpt lat="44.59517" lon="5.92043">
        <ele>1632</ele>
        <time>2018-08-15T14:47:44Z</time>
      </trkpt>
      <trkpt lat="44.59481" lon="5.92029">
        <ele>1618</ele>
        <time>2018-08-15T14:47:52Z</time>
      </trkpt>
      <trkpt lat="44.59429" lon="5.92006">
        <ele>1615</ele>
        <time>2018-08-15T14:48:03Z</time>
      </trkpt>
      <trkpt lat="44.59423" lon="5.92004">
        <ele>1615</ele>
        <time>2018-08-15T14:48:04Z</time>
      </trkpt>
      <trkpt lat="44.59407" lon="5.91998">
        <ele>1616</ele>
        <time>2018-08-15T14:48:07Z</time>
      </trkpt>
      <trkpt lat="44.59402" lon="5.91995">
        <ele>1616</ele>
        <time>2018-08-15T14:48:08Z</time>
      </trkpt>
      <trkpt lat="44.59396" lon="5.91991">
        <ele>1616</ele>
        <time>2018-08-15T14:48:09Z</time>
      </trkpt>
      <trkpt lat="44.59373" lon="5.9198">
        <ele>1614</ele>
        <time>2018-08-15T14:48:13Z</time>
      </trkpt>
      <trkpt lat="44.59362" lon="5.91977">
        <ele>1612</ele>
        <time>2018-08-15T14:48:15Z</time>
      </trkpt>
      <trkpt lat="44.59352" lon="5.91974">
        <ele>1611</ele>
        <time>2018-08-15T14:48:17Z</time>
      </trkpt>
      <trkpt lat="44.5934" lon="5.91972">
        <ele>1609</ele>
        <time>2018-08-15T14:48:19Z</time>
      </trkpt>
      <trkpt lat="44.59334" lon="5.91971">
        <ele>1609</ele>
        <time>2018-08-15T14:48:20Z</time>
      </trkpt>
      <trkpt lat="44.59311" lon="5.91959">
        <ele>1596</ele>
        <time>2018-08-15T14:48:25Z</time>
      </trkpt>
      <trkpt lat="44.59291" lon="5.91951">
        <ele>1594</ele>
        <time>2018-08-15T14:48:29Z</time>
      </trkpt>
      <trkpt lat="44.59278" lon="5.91944">
        <ele>1593</ele>
        <time>2018-08-15T14:48:32Z</time>
      </trkpt>
      <trkpt lat="44.5927" lon="5.91939">
        <ele>1593</ele>
        <time>2018-08-15T14:48:34Z</time>
      </trkpt>
      <trkpt lat="44.59224" lon="5.91892">
        <ele>1590</ele>
        <time>2018-08-15T14:48:46Z</time>
      </trkpt>
      <trkpt lat="44.59217" lon="5.91889">
        <ele>1589</ele>
        <time>2018-08-15T14:48:47Z</time>
      </trkpt>
      <trkpt lat="44.59211" lon="5.91886">
        <ele>1588</ele>
        <time>2018-08-15T14:48:48Z</time>
      </trkpt>
      <trkpt lat="44.59174" lon="5.91872">
        <ele>1585</ele>
        <time>2018-08-15T14:48:55Z</time>
      </trkpt>
      <trkpt lat="44.59156" lon="5.91867">
        <ele>1571</ele>
        <time>2018-08-15T14:48:58Z</time>
      </trkpt>
      <trkpt lat="44.5915" lon="5.91866">
        <ele>1571</ele>
        <time>2018-08-15T14:48:59Z</time>
      </trkpt>
      <trkpt lat="44.59145" lon="5.91865">
        <ele>1570</ele>
        <time>2018-08-15T14:49:00Z</time>
      </trkpt>
      <trkpt lat="44.59135" lon="5.91863">
        <ele>1570</ele>
        <time>2018-08-15T14:49:02Z</time>
      </trkpt>
      <trkpt lat="44.59128" lon="5.91861">
        <ele>1569</ele>
        <time>2018-08-15T14:49:03Z</time>
      </trkpt>
      <trkpt lat="44.5911" lon="5.9186">
        <ele>1568</ele>
        <time>2018-08-15T14:49:06Z</time>
      </trkpt>
      <trkpt lat="44.5909" lon="5.91864">
        <ele>1566</ele>
        <time>2018-08-15T14:49:09Z</time>
      </trkpt>
      <trkpt lat="44.59085" lon="5.91866">
        <ele>1566</ele>
        <time>2018-08-15T14:49:10Z</time>
      </trkpt>
      <trkpt lat="44.59076" lon="5.91871">
        <ele>1556</ele>
        <time>2018-08-15T14:49:12Z</time>
      </trkpt>
      <trkpt lat="44.59068" lon="5.91876">
        <ele>1555</ele>
        <time>2018-08-15T14:49:14Z</time>
      </trkpt>
      <trkpt lat="44.5906" lon="5.9188">
        <ele>1554</ele>
        <time>2018-08-15T14:49:16Z</time>
      </trkpt>
      <trkpt lat="44.59055" lon="5.9188">
        <ele>1554</ele>
        <time>2018-08-15T14:49:17Z</time>
      </trkpt>
      <trkpt lat="44.5905" lon="5.9188">
        <ele>1553</ele>
        <time>2018-08-15T14:49:18Z</time>
      </trkpt>
      <trkpt lat="44.59045" lon="5.91881">
        <ele>1553</ele>
        <time>2018-08-15T14:49:19Z</time>
      </trkpt>
      <trkpt lat="44.5904" lon="5.91881">
        <ele>1553</ele>
        <time>2018-08-15T14:49:20Z</time>
      </trkpt>
      <trkpt lat="44.59031" lon="5.91882">
        <ele>1552</ele>
        <time>2018-08-15T14:49:22Z</time>
      </trkpt>
      <trkpt lat="44.59012" lon="5.91886">
        <ele>1549</ele>
        <time>2018-08-15T14:49:25Z</time>
      </trkpt>
      <trkpt lat="44.59" lon="5.91888">
        <ele>1540</ele>
        <time>2018-08-15T14:49:27Z</time>
      </trkpt>
      <trkpt lat="44.58982" lon="5.91889">
        <ele>1540</ele>
        <time>2018-08-15T14:49:30Z</time>
      </trkpt>
      <trkpt lat="44.58976" lon="5.91888">
        <ele>1540</ele>
        <time>2018-08-15T14:49:31Z</time>
      </trkpt>
      <trkpt lat="44.58945" lon="5.91882">
        <ele>1538</ele>
        <time>2018-08-15T14:49:35Z</time>
      </trkpt>
      <trkpt lat="44.58925" lon="5.91873">
        <ele>1538</ele>
        <time>2018-08-15T14:49:39Z</time>
      </trkpt>
      <trkpt lat="44.58921" lon="5.91872">
        <ele>1538</ele>
        <time>2018-08-15T14:49:44Z</time>
      </trkpt>
      <trkpt lat="44.58913" lon="5.91873">
        <ele>1526</ele>
        <time>2018-08-15T14:49:46Z</time>
      </trkpt>
      <trkpt lat="44.58901" lon="5.91885">
        <ele>1523</ele>
        <time>2018-08-15T14:50:06Z</time>
      </trkpt>
      <trkpt lat="44.58893" lon="5.91876">
        <ele>1524</ele>
        <time>2018-08-15T14:51:23Z</time>
      </trkpt>
      <trkpt lat="44.58887" lon="5.91864">
        <ele>1525</ele>
        <time>2018-08-15T14:51:27Z</time>
      </trkpt>
      <trkpt lat="44.5888" lon="5.9185">
        <ele>1526</ele>
        <time>2018-08-15T14:51:31Z</time>
      </trkpt>
      <trkpt lat="44.58859" lon="5.91834">
        <ele>1523</ele>
        <time>2018-08-15T14:51:36Z</time>
      </trkpt>
      <trkpt lat="44.58849" lon="5.9183">
        <ele>1533</ele>
        <time>2018-08-15T14:51:38Z</time>
      </trkpt>
      <trkpt lat="44.58839" lon="5.91828">
        <ele>1528</ele>
        <time>2018-08-15T14:51:40Z</time>
      </trkpt>
      <trkpt lat="44.58788" lon="5.91841">
        <ele>1507</ele>
        <time>2018-08-15T14:51:50Z</time>
      </trkpt>
      <trkpt lat="44.58775" lon="5.91845">
        <ele>1506</ele>
        <time>2018-08-15T14:51:52Z</time>
      </trkpt>
      <trkpt lat="44.5876" lon="5.91845">
        <ele>1505</ele>
        <time>2018-08-15T14:51:54Z</time>
      </trkpt>
      <trkpt lat="44.58735" lon="5.9185">
        <ele>1498</ele>
        <time>2018-08-15T14:51:58Z</time>
      </trkpt>
      <trkpt lat="44.58738" lon="5.9184">
        <ele>1500</ele>
        <time>2018-08-15T14:52:02Z</time>
      </trkpt>
      <trkpt lat="44.58727" lon="5.91834">
        <ele>1498</ele>
        <time>2018-08-15T14:52:05Z</time>
      </trkpt>
      <trkpt lat="44.58698" lon="5.91829">
        <ele>1510</ele>
        <time>2018-08-15T14:52:09Z</time>
      </trkpt>
      <trkpt lat="44.5867" lon="5.91834">
        <ele>1496</ele>
        <time>2018-08-15T14:52:13Z</time>
      </trkpt>
      <trkpt lat="44.58659" lon="5.91836">
        <ele>1493</ele>
        <time>2018-08-15T14:52:16Z</time>
      </trkpt>
      <trkpt lat="44.58645" lon="5.91835">
        <ele>1489</ele>
        <time>2018-08-15T14:52:19Z</time>
      </trkpt>
      <trkpt lat="44.58621" lon="5.91844">
        <ele>1486</ele>
        <time>2018-08-15T14:52:23Z</time>
      </trkpt>
      <trkpt lat="44.58557" lon="5.91844">
        <ele>1478</ele>
        <time>2018-08-15T14:52:36Z</time>
      </trkpt>
      <trkpt lat="44.5852" lon="5.9186">
        <ele>1473</ele>
        <time>2018-08-15T14:52:42Z</time>
      </trkpt>
      <trkpt lat="44.58507" lon="5.91862">
        <ele>1473</ele>
        <time>2018-08-15T14:52:45Z</time>
      </trkpt>
      <trkpt lat="44.58496" lon="5.91866">
        <ele>1466</ele>
        <time>2018-08-15T14:52:48Z</time>
      </trkpt>
      <trkpt lat="44.58498" lon="5.91876">
        <ele>1464</ele>
        <time>2018-08-15T14:52:51Z</time>
      </trkpt>
      <trkpt lat="44.58516" lon="5.91883">
        <ele>1470</ele>
        <time>2018-08-15T14:52:55Z</time>
      </trkpt>
      <trkpt lat="44.58523" lon="5.91889">
        <ele>1469</ele>
        <time>2018-08-15T14:52:57Z</time>
      </trkpt>
      <trkpt lat="44.58527" lon="5.91892">
        <ele>1469</ele>
        <time>2018-08-15T14:52:58Z</time>
      </trkpt>
      <trkpt lat="44.58544" lon="5.91901">
        <ele>1470</ele>
        <time>2018-08-15T14:53:02Z</time>
      </trkpt>
      <trkpt lat="44.58549" lon="5.91904">
        <ele>1470</ele>
        <time>2018-08-15T14:53:03Z</time>
      </trkpt>
      <trkpt lat="44.58582" lon="5.91922">
        <ele>1466</ele>
        <time>2018-08-15T14:53:11Z</time>
      </trkpt>
      <trkpt lat="44.58587" lon="5.91924">
        <ele>1468</ele>
        <time>2018-08-15T14:53:12Z</time>
      </trkpt>
      <trkpt lat="44.58593" lon="5.91928">
        <ele>1468</ele>
        <time>2018-08-15T14:53:13Z</time>
      </trkpt>
      <trkpt lat="44.58606" lon="5.91937">
        <ele>1467</ele>
        <time>2018-08-15T14:53:16Z</time>
      </trkpt>
      <trkpt lat="44.58627" lon="5.91968">
        <ele>1465</ele>
        <time>2018-08-15T14:53:22Z</time>
      </trkpt>
      <trkpt lat="44.58632" lon="5.91971">
        <ele>1465</ele>
        <time>2018-08-15T14:53:23Z</time>
      </trkpt>
      <trkpt lat="44.5864" lon="5.91976">
        <ele>1465</ele>
        <time>2018-08-15T14:53:25Z</time>
      </trkpt>
      <trkpt lat="44.58649" lon="5.91983">
        <ele>1465</ele>
        <time>2018-08-15T14:53:27Z</time>
      </trkpt>
      <trkpt lat="44.58656" lon="5.91982">
        <ele>1465</ele>
        <time>2018-08-15T14:53:30Z</time>
      </trkpt>
      <trkpt lat="44.58661" lon="5.91984">
        <ele>1465</ele>
        <time>2018-08-15T14:53:32Z</time>
      </trkpt>
      <trkpt lat="44.58667" lon="5.91986">
        <ele>1465</ele>
        <time>2018-08-15T14:53:34Z</time>
      </trkpt>
      <trkpt lat="44.58672" lon="5.91988">
        <ele>1469</ele>
        <time>2018-08-15T14:53:36Z</time>
      </trkpt>
      <trkpt lat="44.58678" lon="5.91992">
        <ele>1469</ele>
        <time>2018-08-15T14:53:38Z</time>
      </trkpt>
      <trkpt lat="44.58684" lon="5.91997">
        <ele>1470</ele>
        <time>2018-08-15T14:53:40Z</time>
      </trkpt>
      <trkpt lat="44.58691" lon="5.92">
        <ele>1460</ele>
        <time>2018-08-15T14:53:42Z</time>
      </trkpt>
      <trkpt lat="44.58702" lon="5.92006">
        <ele>1460</ele>
        <time>2018-08-15T14:53:45Z</time>
      </trkpt>
      <trkpt lat="44.58706" lon="5.92009">
        <ele>1460</ele>
        <time>2018-08-15T14:53:46Z</time>
      </trkpt>
      <trkpt lat="44.58723" lon="5.92029">
        <ele>1459</ele>
        <time>2018-08-15T14:53:49Z</time>
      </trkpt>
      <trkpt lat="44.58726" lon="5.9203">
        <ele>1459</ele>
        <time>2018-08-15T14:53:50Z</time>
      </trkpt>
      <trkpt lat="44.58736" lon="5.92033">
        <ele>1459</ele>
        <time>2018-08-15T14:53:52Z</time>
      </trkpt>
      <trkpt lat="44.58743" lon="5.92036">
        <ele>1459</ele>
        <time>2018-08-15T14:53:53Z</time>
      </trkpt>
      <trkpt lat="44.58753" lon="5.92038">
        <ele>1462</ele>
        <time>2018-08-15T14:53:55Z</time>
      </trkpt>
      <trkpt lat="44.58759" lon="5.92042">
        <ele>1462</ele>
        <time>2018-08-15T14:53:56Z</time>
      </trkpt>
      <trkpt lat="44.58763" lon="5.92044">
        <ele>1461</ele>
        <time>2018-08-15T14:53:57Z</time>
      </trkpt>
      <trkpt lat="44.58768" lon="5.92046">
        <ele>1461</ele>
        <time>2018-08-15T14:53:58Z</time>
      </trkpt>
      <trkpt lat="44.58773" lon="5.9205">
        <ele>1460</ele>
        <time>2018-08-15T14:53:59Z</time>
      </trkpt>
      <trkpt lat="44.58776" lon="5.92055">
        <ele>1459</ele>
        <time>2018-08-15T14:54:00Z</time>
      </trkpt>
      <trkpt lat="44.5877" lon="5.92061">
        <ele>1458</ele>
        <time>2018-08-15T14:54:03Z</time>
      </trkpt>
      <trkpt lat="44.58745" lon="5.92058">
        <ele>1454</ele>
        <time>2018-08-15T14:54:08Z</time>
      </trkpt>
      <trkpt lat="44.5874" lon="5.92058">
        <ele>1454</ele>
        <time>2018-08-15T14:54:09Z</time>
      </trkpt>
      <trkpt lat="44.58734" lon="5.92059">
        <ele>1454</ele>
        <time>2018-08-15T14:54:10Z</time>
      </trkpt>
      <trkpt lat="44.58728" lon="5.92065">
        <ele>1453</ele>
        <time>2018-08-15T14:54:12Z</time>
      </trkpt>
      <trkpt lat="44.58717" lon="5.92084">
        <ele>1434</ele>
        <time>2018-08-15T14:54:16Z</time>
      </trkpt>
      <trkpt lat="44.58709" lon="5.92091">
        <ele>1433</ele>
        <time>2018-08-15T14:54:18Z</time>
      </trkpt>
      <trkpt lat="44.58683" lon="5.92085">
        <ele>1435</ele>
        <time>2018-08-15T14:54:25Z</time>
      </trkpt>
      <trkpt lat="44.58658" lon="5.92068">
        <ele>1444</ele>
        <time>2018-08-15T14:54:31Z</time>
      </trkpt>
      <trkpt lat="44.5865" lon="5.92066">
        <ele>1444</ele>
        <time>2018-08-15T14:54:33Z</time>
      </trkpt>
      <trkpt lat="44.5864" lon="5.92068">
        <ele>1444</ele>
        <time>2018-08-15T14:54:35Z</time>
      </trkpt>
      <trkpt lat="44.58629" lon="5.9207">
        <ele>1443</ele>
        <time>2018-08-15T14:54:37Z</time>
      </trkpt>
      <trkpt lat="44.58614" lon="5.92069">
        <ele>1441</ele>
        <time>2018-08-15T14:54:40Z</time>
      </trkpt>
      <trkpt lat="44.58609" lon="5.92068">
        <ele>1440</ele>
        <time>2018-08-15T14:54:41Z</time>
      </trkpt>
      <trkpt lat="44.58596" lon="5.92065">
        <ele>1439</ele>
        <time>2018-08-15T14:54:43Z</time>
      </trkpt>
      <trkpt lat="44.5859" lon="5.92065">
        <ele>1438</ele>
        <time>2018-08-15T14:54:44Z</time>
      </trkpt>
      <trkpt lat="44.58578" lon="5.92062">
        <ele>1430</ele>
        <time>2018-08-15T14:54:46Z</time>
      </trkpt>
      <trkpt lat="44.58549" lon="5.92045">
        <ele>1431</ele>
        <time>2018-08-15T14:54:51Z</time>
      </trkpt>
      <trkpt lat="44.58543" lon="5.92044">
        <ele>1431</ele>
        <time>2018-08-15T14:54:52Z</time>
      </trkpt>
      <trkpt lat="44.58536" lon="5.92042">
        <ele>1430</ele>
        <time>2018-08-15T14:54:53Z</time>
      </trkpt>
      <trkpt lat="44.58523" lon="5.92033">
        <ele>1431</ele>
        <time>2018-08-15T14:54:57Z</time>
      </trkpt>
      <trkpt lat="44.58505" lon="5.92024">
        <ele>1432</ele>
        <time>2018-08-15T14:54:59Z</time>
      </trkpt>
      <trkpt lat="44.58499" lon="5.92021">
        <ele>1423</ele>
        <time>2018-08-15T14:55:00Z</time>
      </trkpt>
      <trkpt lat="44.58492" lon="5.92019">
        <ele>1423</ele>
        <time>2018-08-15T14:55:01Z</time>
      </trkpt>
      <trkpt lat="44.58485" lon="5.92017">
        <ele>1423</ele>
        <time>2018-08-15T14:55:02Z</time>
      </trkpt>
      <trkpt lat="44.5847" lon="5.92013">
        <ele>1420</ele>
        <time>2018-08-15T14:55:04Z</time>
      </trkpt>
      <trkpt lat="44.58459" lon="5.92013">
        <ele>1418</ele>
        <time>2018-08-15T14:55:05Z</time>
      </trkpt>
      <trkpt lat="44.58438" lon="5.92004">
        <ele>1416</ele>
        <time>2018-08-15T14:55:07Z</time>
      </trkpt>
      <trkpt lat="44.58433" lon="5.92002">
        <ele>1416</ele>
        <time>2018-08-15T14:55:08Z</time>
      </trkpt>
      <trkpt lat="44.58425" lon="5.92001">
        <ele>1417</ele>
        <time>2018-08-15T14:55:09Z</time>
      </trkpt>
      <trkpt lat="44.58411" lon="5.92002">
        <ele>1414</ele>
        <time>2018-08-15T14:55:11Z</time>
      </trkpt>
      <trkpt lat="44.58405" lon="5.92004">
        <ele>1411</ele>
        <time>2018-08-15T14:55:12Z</time>
      </trkpt>
      <trkpt lat="44.58386" lon="5.9201">
        <ele>1406</ele>
        <time>2018-08-15T14:55:15Z</time>
      </trkpt>
      <trkpt lat="44.58329" lon="5.92009">
        <ele>1404</ele>
        <time>2018-08-15T14:55:24Z</time>
      </trkpt>
      <trkpt lat="44.58317" lon="5.92009">
        <ele>1401</ele>
        <time>2018-08-15T14:55:27Z</time>
      </trkpt>
      <trkpt lat="44.58305" lon="5.92002">
        <ele>1401</ele>
        <time>2018-08-15T14:55:30Z</time>
      </trkpt>
      <trkpt lat="44.5829" lon="5.91998">
        <ele>1418</ele>
        <time>2018-08-15T14:55:32Z</time>
      </trkpt>
      <trkpt lat="44.58255" lon="5.92">
        <ele>1406</ele>
        <time>2018-08-15T14:55:38Z</time>
      </trkpt>
      <trkpt lat="44.58243" lon="5.92007">
        <ele>1404</ele>
        <time>2018-08-15T14:55:41Z</time>
      </trkpt>
      <trkpt lat="44.58236" lon="5.92017">
        <ele>1401</ele>
        <time>2018-08-15T14:55:43Z</time>
      </trkpt>
      <trkpt lat="44.58226" lon="5.92029">
        <ele>1398</ele>
        <time>2018-08-15T14:55:46Z</time>
      </trkpt>
      <trkpt lat="44.58203" lon="5.9204">
        <ele>1397</ele>
        <time>2018-08-15T14:55:51Z</time>
      </trkpt>
      <trkpt lat="44.58172" lon="5.9206">
        <ele>1393</ele>
        <time>2018-08-15T14:55:57Z</time>
      </trkpt>
      <trkpt lat="44.58142" lon="5.9206">
        <ele>1403</ele>
        <time>2018-08-15T14:56:11Z</time>
      </trkpt>
      <trkpt lat="44.58134" lon="5.9207">
        <ele>1403</ele>
        <time>2018-08-15T14:56:14Z</time>
      </trkpt>
      <trkpt lat="44.58133" lon="5.92076">
        <ele>1402</ele>
        <time>2018-08-15T14:56:15Z</time>
      </trkpt>
      <trkpt lat="44.58135" lon="5.92087">
        <ele>1382</ele>
        <time>2018-08-15T14:56:17Z</time>
      </trkpt>
      <trkpt lat="44.5814" lon="5.92094">
        <ele>1381</ele>
        <time>2018-08-15T14:56:19Z</time>
      </trkpt>
      <trkpt lat="44.58148" lon="5.92098">
        <ele>1381</ele>
        <time>2018-08-15T14:56:21Z</time>
      </trkpt>
      <trkpt lat="44.58156" lon="5.92097">
        <ele>1381</ele>
        <time>2018-08-15T14:56:23Z</time>
      </trkpt>
      <trkpt lat="44.5816" lon="5.92092">
        <ele>1383</ele>
        <time>2018-08-15T14:56:24Z</time>
      </trkpt>
      <trkpt lat="44.58168" lon="5.92086">
        <ele>1384</ele>
        <time>2018-08-15T14:56:26Z</time>
      </trkpt>
      <trkpt lat="44.58173" lon="5.92084">
        <ele>1382</ele>
        <time>2018-08-15T14:56:27Z</time>
      </trkpt>
      <trkpt lat="44.58186" lon="5.92083">
        <ele>1391</ele>
        <time>2018-08-15T14:56:30Z</time>
      </trkpt>
      <trkpt lat="44.58191" lon="5.92084">
        <ele>1376</ele>
        <time>2018-08-15T14:56:31Z</time>
      </trkpt>
      <trkpt lat="44.58203" lon="5.92084">
        <ele>1374</ele>
        <time>2018-08-15T14:56:33Z</time>
      </trkpt>
      <trkpt lat="44.58209" lon="5.92083">
        <ele>1391</ele>
        <time>2018-08-15T14:56:34Z</time>
      </trkpt>
      <trkpt lat="44.58225" lon="5.92074">
        <ele>1390</ele>
        <time>2018-08-15T14:56:37Z</time>
      </trkpt>
      <trkpt lat="44.58241" lon="5.92065">
        <ele>1389</ele>
        <time>2018-08-15T14:56:40Z</time>
      </trkpt>
      <trkpt lat="44.58252" lon="5.92063">
        <ele>1388</ele>
        <time>2018-08-15T14:56:42Z</time>
      </trkpt>
      <trkpt lat="44.5826" lon="5.92064">
        <ele>1388</ele>
        <time>2018-08-15T14:56:44Z</time>
      </trkpt>
      <trkpt lat="44.58264" lon="5.92068">
        <ele>1388</ele>
        <time>2018-08-15T14:56:46Z</time>
      </trkpt>
      <trkpt lat="44.58265" lon="5.92075">
        <ele>1386</ele>
        <time>2018-08-15T14:56:48Z</time>
      </trkpt>
      <trkpt lat="44.58265" lon="5.92083">
        <ele>1385</ele>
        <time>2018-08-15T14:56:50Z</time>
      </trkpt>
      <trkpt lat="44.58264" lon="5.9209">
        <ele>1374</ele>
        <time>2018-08-15T14:56:52Z</time>
      </trkpt>
      <trkpt lat="44.5826" lon="5.92095">
        <ele>1373</ele>
        <time>2018-08-15T14:56:54Z</time>
      </trkpt>
      <trkpt lat="44.58255" lon="5.92098">
        <ele>1373</ele>
        <time>2018-08-15T14:56:56Z</time>
      </trkpt>
      <trkpt lat="44.58249" lon="5.92097">
        <ele>1374</ele>
        <time>2018-08-15T14:56:58Z</time>
      </trkpt>
      <trkpt lat="44.58242" lon="5.92095">
        <ele>1374</ele>
        <time>2018-08-15T14:57:00Z</time>
      </trkpt>
      <trkpt lat="44.58222" lon="5.92094">
        <ele>1372</ele>
        <time>2018-08-15T14:57:04Z</time>
      </trkpt>
      <trkpt lat="44.58217" lon="5.92095">
        <ele>1372</ele>
        <time>2018-08-15T14:57:05Z</time>
      </trkpt>
      <trkpt lat="44.58212" lon="5.92097">
        <ele>1372</ele>
        <time>2018-08-15T14:57:06Z</time>
      </trkpt>
      <trkpt lat="44.58207" lon="5.92099">
        <ele>1372</ele>
        <time>2018-08-15T14:57:07Z</time>
      </trkpt>
      <trkpt lat="44.58189" lon="5.92107">
        <ele>1373</ele>
        <time>2018-08-15T14:57:11Z</time>
      </trkpt>
      <trkpt lat="44.58185" lon="5.9211">
        <ele>1372</ele>
        <time>2018-08-15T14:57:12Z</time>
      </trkpt>
      <trkpt lat="44.58181" lon="5.92113">
        <ele>1372</ele>
        <time>2018-08-15T14:57:13Z</time>
      </trkpt>
      <trkpt lat="44.58129" lon="5.92162">
        <ele>1371</ele>
        <time>2018-08-15T14:57:24Z</time>
      </trkpt>
      <trkpt lat="44.58125" lon="5.92165">
        <ele>1372</ele>
        <time>2018-08-15T14:57:25Z</time>
      </trkpt>
      <trkpt lat="44.58108" lon="5.92172">
        <ele>1356</ele>
        <time>2018-08-15T14:57:29Z</time>
      </trkpt>
      <trkpt lat="44.5809" lon="5.9218">
        <ele>1360</ele>
        <time>2018-08-15T14:57:35Z</time>
      </trkpt>
      <trkpt lat="44.58086" lon="5.92184">
        <ele>1358</ele>
        <time>2018-08-15T14:57:37Z</time>
      </trkpt>
      <trkpt lat="44.58085" lon="5.92193">
        <ele>1355</ele>
        <time>2018-08-15T14:57:40Z</time>
      </trkpt>
      <trkpt lat="44.58089" lon="5.92199">
        <ele>1352</ele>
        <time>2018-08-15T14:57:42Z</time>
      </trkpt>
      <trkpt lat="44.58095" lon="5.92202">
        <ele>1351</ele>
        <time>2018-08-15T14:57:44Z</time>
      </trkpt>
      <trkpt lat="44.58106" lon="5.92199">
        <ele>1351</ele>
        <time>2018-08-15T14:57:48Z</time>
      </trkpt>
      <trkpt lat="44.58142" lon="5.92188">
        <ele>1350</ele>
        <time>2018-08-15T14:57:58Z</time>
      </trkpt>
      <trkpt lat="44.58152" lon="5.92184">
        <ele>1350</ele>
        <time>2018-08-15T14:58:00Z</time>
      </trkpt>
      <trkpt lat="44.58163" lon="5.92179">
        <ele>1352</ele>
        <time>2018-08-15T14:58:03Z</time>
      </trkpt>
      <trkpt lat="44.58174" lon="5.92173">
        <ele>1351</ele>
        <time>2018-08-15T14:58:06Z</time>
      </trkpt>
      <trkpt lat="44.58176" lon="5.92161">
        <ele>1360</ele>
        <time>2018-08-15T14:58:23Z</time>
      </trkpt>
      <trkpt lat="44.58183" lon="5.92163">
        <ele>1361</ele>
        <time>2018-08-15T14:58:34Z</time>
      </trkpt>
      <trkpt lat="44.58194" lon="5.92165">
        <ele>1363</ele>
        <time>2018-08-15T14:58:39Z</time>
      </trkpt>
      <trkpt lat="44.58202" lon="5.92163">
        <ele>1363</ele>
        <time>2018-08-15T14:58:41Z</time>
      </trkpt>
      <trkpt lat="44.58211" lon="5.92168">
        <ele>1346</ele>
        <time>2018-08-15T14:58:43Z</time>
      </trkpt>
      <trkpt lat="44.58216" lon="5.92171">
        <ele>1346</ele>
        <time>2018-08-15T14:58:44Z</time>
      </trkpt>
      <trkpt lat="44.58227" lon="5.92185">
        <ele>1345</ele>
        <time>2018-08-15T14:58:47Z</time>
      </trkpt>
      <trkpt lat="44.58239" lon="5.92203">
        <ele>1342</ele>
        <time>2018-08-15T14:58:49Z</time>
      </trkpt>
      <trkpt lat="44.58243" lon="5.92204">
        <ele>1342</ele>
        <time>2018-08-15T14:58:50Z</time>
      </trkpt>
      <trkpt lat="44.58256" lon="5.92206">
        <ele>1342</ele>
        <time>2018-08-15T14:58:52Z</time>
      </trkpt>
      <trkpt lat="44.58263" lon="5.92206">
        <ele>1342</ele>
        <time>2018-08-15T14:58:54Z</time>
      </trkpt>
      <trkpt lat="44.58276" lon="5.92206">
        <ele>1342</ele>
        <time>2018-08-15T14:58:57Z</time>
      </trkpt>
      <trkpt lat="44.58288" lon="5.92208">
        <ele>1341</ele>
        <time>2018-08-15T14:58:59Z</time>
      </trkpt>
      <trkpt lat="44.58294" lon="5.92209">
        <ele>1341</ele>
        <time>2018-08-15T14:59:00Z</time>
      </trkpt>
      <trkpt lat="44.58309" lon="5.92211">
        <ele>1341</ele>
        <time>2018-08-15T14:59:02Z</time>
      </trkpt>
      <trkpt lat="44.58326" lon="5.92213">
        <ele>1340</ele>
        <time>2018-08-15T14:59:04Z</time>
      </trkpt>
      <trkpt lat="44.58333" lon="5.92213">
        <ele>1340</ele>
        <time>2018-08-15T14:59:05Z</time>
      </trkpt>
      <trkpt lat="44.58339" lon="5.92213">
        <ele>1343</ele>
        <time>2018-08-15T14:59:06Z</time>
      </trkpt>
      <trkpt lat="44.58345" lon="5.92215">
        <ele>1343</ele>
        <time>2018-08-15T14:59:07Z</time>
      </trkpt>
      <trkpt lat="44.58365" lon="5.92231">
        <ele>1342</ele>
        <time>2018-08-15T14:59:10Z</time>
      </trkpt>
      <trkpt lat="44.5837" lon="5.92237">
        <ele>1342</ele>
        <time>2018-08-15T14:59:11Z</time>
      </trkpt>
      <trkpt lat="44.58388" lon="5.92251">
        <ele>1331</ele>
        <time>2018-08-15T14:59:15Z</time>
      </trkpt>
      <trkpt lat="44.58393" lon="5.92263">
        <ele>1331</ele>
        <time>2018-08-15T14:59:17Z</time>
      </trkpt>
      <trkpt lat="44.58401" lon="5.9228">
        <ele>1330</ele>
        <time>2018-08-15T14:59:20Z</time>
      </trkpt>
      <trkpt lat="44.58404" lon="5.9229">
        <ele>1328</ele>
        <time>2018-08-15T14:59:22Z</time>
      </trkpt>
      <trkpt lat="44.58409" lon="5.92291">
        <ele>1328</ele>
        <time>2018-08-15T14:59:23Z</time>
      </trkpt>
      <trkpt lat="44.58418" lon="5.92294">
        <ele>1334</ele>
        <time>2018-08-15T14:59:25Z</time>
      </trkpt>
      <trkpt lat="44.58423" lon="5.92299">
        <ele>1334</ele>
        <time>2018-08-15T14:59:27Z</time>
      </trkpt>
      <trkpt lat="44.58426" lon="5.92304">
        <ele>1333</ele>
        <time>2018-08-15T14:59:30Z</time>
      </trkpt>
      <trkpt lat="44.58422" lon="5.92319">
        <ele>1328</ele>
        <time>2018-08-15T14:59:33Z</time>
      </trkpt>
      <trkpt lat="44.58424" lon="5.92332">
        <ele>1325</ele>
        <time>2018-08-15T14:59:36Z</time>
      </trkpt>
      <trkpt lat="44.58431" lon="5.92342">
        <ele>1317</ele>
        <time>2018-08-15T14:59:39Z</time>
      </trkpt>
      <trkpt lat="44.5844" lon="5.92349">
        <ele>1316</ele>
        <time>2018-08-15T14:59:41Z</time>
      </trkpt>
      <trkpt lat="44.58472" lon="5.92361">
        <ele>1316</ele>
        <time>2018-08-15T14:59:47Z</time>
      </trkpt>
      <trkpt lat="44.58483" lon="5.92367">
        <ele>1316</ele>
        <time>2018-08-15T14:59:49Z</time>
      </trkpt>
      <trkpt lat="44.58493" lon="5.9237">
        <ele>1316</ele>
        <time>2018-08-15T14:59:51Z</time>
      </trkpt>
      <trkpt lat="44.58504" lon="5.92375">
        <ele>1320</ele>
        <time>2018-08-15T14:59:54Z</time>
      </trkpt>
      <trkpt lat="44.58533" lon="5.92399">
        <ele>1318</ele>
        <time>2018-08-15T15:00:00Z</time>
      </trkpt>
      <trkpt lat="44.58549" lon="5.92418">
        <ele>1307</ele>
        <time>2018-08-15T15:00:05Z</time>
      </trkpt>
      <trkpt lat="44.58547" lon="5.92434">
        <ele>1306</ele>
        <time>2018-08-15T15:00:09Z</time>
      </trkpt>
      <trkpt lat="44.58543" lon="5.92446">
        <ele>1304</ele>
        <time>2018-08-15T15:00:11Z</time>
      </trkpt>
      <trkpt lat="44.58541" lon="5.92463">
        <ele>1302</ele>
        <time>2018-08-15T15:00:13Z</time>
      </trkpt>
      <trkpt lat="44.58547" lon="5.92478">
        <ele>1301</ele>
        <time>2018-08-15T15:00:15Z</time>
      </trkpt>
      <trkpt lat="44.58566" lon="5.92497">
        <ele>1300</ele>
        <time>2018-08-15T15:00:19Z</time>
      </trkpt>
      <trkpt lat="44.586" lon="5.92509">
        <ele>1298</ele>
        <time>2018-08-15T15:00:25Z</time>
      </trkpt>
      <trkpt lat="44.5861" lon="5.92518">
        <ele>1298</ele>
        <time>2018-08-15T15:00:28Z</time>
      </trkpt>
      <trkpt lat="44.586" lon="5.92519">
        <ele>1297</ele>
        <time>2018-08-15T15:00:35Z</time>
      </trkpt>
      <trkpt lat="44.58589" lon="5.9251">
        <ele>1297</ele>
        <time>2018-08-15T15:00:37Z</time>
      </trkpt>
      <trkpt lat="44.58579" lon="5.92504">
        <ele>1295</ele>
        <time>2018-08-15T15:00:40Z</time>
      </trkpt>
      <trkpt lat="44.58554" lon="5.92518">
        <ele>1288</ele>
        <time>2018-08-15T15:00:47Z</time>
      </trkpt>
      <trkpt lat="44.58544" lon="5.92519">
        <ele>1287</ele>
        <time>2018-08-15T15:00:49Z</time>
      </trkpt>
      <trkpt lat="44.58526" lon="5.92512">
        <ele>1287</ele>
        <time>2018-08-15T15:00:53Z</time>
      </trkpt>
      <trkpt lat="44.58517" lon="5.92503">
        <ele>1287</ele>
        <time>2018-08-15T15:00:55Z</time>
      </trkpt>
      <trkpt lat="44.58478" lon="5.9247">
        <ele>1292</ele>
        <time>2018-08-15T15:01:04Z</time>
      </trkpt>
      <trkpt lat="44.58469" lon="5.92459">
        <ele>1293</ele>
        <time>2018-08-15T15:01:07Z</time>
      </trkpt>
      <trkpt lat="44.58456" lon="5.9245">
        <ele>1293</ele>
        <time>2018-08-15T15:01:10Z</time>
      </trkpt>
      <trkpt lat="44.5843" lon="5.92462">
        <ele>1291</ele>
        <time>2018-08-15T15:01:14Z</time>
      </trkpt>
      <trkpt lat="44.58418" lon="5.9247">
        <ele>1289</ele>
        <time>2018-08-15T15:01:16Z</time>
      </trkpt>
      <trkpt lat="44.58393" lon="5.92502">
        <ele>1275</ele>
        <time>2018-08-15T15:01:22Z</time>
      </trkpt>
      <trkpt lat="44.58362" lon="5.92518">
        <ele>1274</ele>
        <time>2018-08-15T15:01:28Z</time>
      </trkpt>
      <trkpt lat="44.5834" lon="5.92538">
        <ele>1272</ele>
        <time>2018-08-15T15:01:32Z</time>
      </trkpt>
      <trkpt lat="44.58324" lon="5.9256">
        <ele>1265</ele>
        <time>2018-08-15T15:01:36Z</time>
      </trkpt>
      <trkpt lat="44.58317" lon="5.92567">
        <ele>1264</ele>
        <time>2018-08-15T15:01:38Z</time>
      </trkpt>
      <trkpt lat="44.58307" lon="5.92573">
        <ele>1263</ele>
        <time>2018-08-15T15:01:41Z</time>
      </trkpt>
      <trkpt lat="44.58296" lon="5.92567">
        <ele>1263</ele>
        <time>2018-08-15T15:01:44Z</time>
      </trkpt>
      <trkpt lat="44.58252" lon="5.92524">
        <ele>1264</ele>
        <time>2018-08-15T15:01:54Z</time>
      </trkpt>
      <trkpt lat="44.58228" lon="5.92516">
        <ele>1255</ele>
        <time>2018-08-15T15:01:59Z</time>
      </trkpt>
      <trkpt lat="44.58217" lon="5.92506">
        <ele>1254</ele>
        <time>2018-08-15T15:02:01Z</time>
      </trkpt>
      <trkpt lat="44.58209" lon="5.92492">
        <ele>1263</ele>
        <time>2018-08-15T15:02:03Z</time>
      </trkpt>
      <trkpt lat="44.58206" lon="5.92478">
        <ele>1264</ele>
        <time>2018-08-15T15:02:05Z</time>
      </trkpt>
      <trkpt lat="44.582" lon="5.92463">
        <ele>1265</ele>
        <time>2018-08-15T15:02:07Z</time>
      </trkpt>
      <trkpt lat="44.5818" lon="5.92439">
        <ele>1266</ele>
        <time>2018-08-15T15:02:11Z</time>
      </trkpt>
      <trkpt lat="44.58168" lon="5.92437">
        <ele>1266</ele>
        <time>2018-08-15T15:02:13Z</time>
      </trkpt>
      <trkpt lat="44.58126" lon="5.92461">
        <ele>1259</ele>
        <time>2018-08-15T15:02:19Z</time>
      </trkpt>
      <trkpt lat="44.58108" lon="5.92468">
        <ele>1258</ele>
        <time>2018-08-15T15:02:23Z</time>
      </trkpt>
      <trkpt lat="44.58026" lon="5.92527">
        <ele>1246</ele>
        <time>2018-08-15T15:02:39Z</time>
      </trkpt>
      <trkpt lat="44.58021" lon="5.92538">
        <ele>1245</ele>
        <time>2018-08-15T15:02:50Z</time>
      </trkpt>
      <trkpt lat="44.58024" lon="5.92544">
        <ele>1244</ele>
        <time>2018-08-15T15:02:59Z</time>
      </trkpt>
      <trkpt lat="44.58023" lon="5.92552">
        <ele>1243</ele>
        <time>2018-08-15T15:03:33Z</time>
      </trkpt>
      <trkpt lat="44.58035" lon="5.92568">
        <ele>1241</ele>
        <time>2018-08-15T15:03:37Z</time>
      </trkpt>
      <trkpt lat="44.58084" lon="5.92598">
        <ele>1234</ele>
        <time>2018-08-15T15:03:53Z</time>
      </trkpt>
      <trkpt lat="44.58089" lon="5.92602">
        <ele>1234</ele>
        <time>2018-08-15T15:03:57Z</time>
      </trkpt>
      <trkpt lat="44.581" lon="5.92617">
        <ele>1233</ele>
        <time>2018-08-15T15:04:01Z</time>
      </trkpt>
      <trkpt lat="44.58106" lon="5.92623">
        <ele>1232</ele>
        <time>2018-08-15T15:04:03Z</time>
      </trkpt>
      <trkpt lat="44.58142" lon="5.92656">
        <ele>1231</ele>
        <time>2018-08-15T15:04:13Z</time>
      </trkpt>
      <trkpt lat="44.58154" lon="5.92665">
        <ele>1231</ele>
        <time>2018-08-15T15:04:16Z</time>
      </trkpt>
      <trkpt lat="44.58162" lon="5.92672">
        <ele>1227</ele>
        <time>2018-08-15T15:04:18Z</time>
      </trkpt>
      <trkpt lat="44.5817" lon="5.9268">
        <ele>1227</ele>
        <time>2018-08-15T15:04:20Z</time>
      </trkpt>
      <trkpt lat="44.58189" lon="5.92706">
        <ele>1223</ele>
        <time>2018-08-15T15:04:24Z</time>
      </trkpt>
      <trkpt lat="44.582" lon="5.92723">
        <ele>1221</ele>
        <time>2018-08-15T15:04:26Z</time>
      </trkpt>
      <trkpt lat="44.58217" lon="5.9274">
        <ele>1221</ele>
        <time>2018-08-15T15:04:28Z</time>
      </trkpt>
      <trkpt lat="44.58221" lon="5.92758">
        <ele>1208</ele>
        <time>2018-08-15T15:04:30Z</time>
      </trkpt>
      <trkpt lat="44.58228" lon="5.92771">
        <ele>1207</ele>
        <time>2018-08-15T15:04:32Z</time>
      </trkpt>
      <trkpt lat="44.58246" lon="5.92776">
        <ele>1208</ele>
        <time>2018-08-15T15:04:35Z</time>
      </trkpt>
      <trkpt lat="44.58291" lon="5.92772">
        <ele>1211</ele>
        <time>2018-08-15T15:04:43Z</time>
      </trkpt>
      <trkpt lat="44.58301" lon="5.92769">
        <ele>1212</ele>
        <time>2018-08-15T15:04:45Z</time>
      </trkpt>
      <trkpt lat="44.5831" lon="5.92768">
        <ele>1213</ele>
        <time>2018-08-15T15:04:47Z</time>
      </trkpt>
      <trkpt lat="44.58322" lon="5.92766">
        <ele>1214</ele>
        <time>2018-08-15T15:04:50Z</time>
      </trkpt>
      <trkpt lat="44.58335" lon="5.9277">
        <ele>1217</ele>
        <time>2018-08-15T15:04:52Z</time>
      </trkpt>
      <trkpt lat="44.58355" lon="5.92788">
        <ele>1214</ele>
        <time>2018-08-15T15:04:56Z</time>
      </trkpt>
      <trkpt lat="44.58365" lon="5.92796">
        <ele>1213</ele>
        <time>2018-08-15T15:04:59Z</time>
      </trkpt>
      <trkpt lat="44.58373" lon="5.92809">
        <ele>1211</ele>
        <time>2018-08-15T15:05:03Z</time>
      </trkpt>
      <trkpt lat="44.5838" lon="5.9282">
        <ele>1210</ele>
        <time>2018-08-15T15:05:05Z</time>
      </trkpt>
      <trkpt lat="44.58387" lon="5.9283">
        <ele>1210</ele>
        <time>2018-08-15T15:05:07Z</time>
      </trkpt>
      <trkpt lat="44.58395" lon="5.92839">
        <ele>1196</ele>
        <time>2018-08-15T15:05:09Z</time>
      </trkpt>
      <trkpt lat="44.58405" lon="5.92847">
        <ele>1197</ele>
        <time>2018-08-15T15:05:11Z</time>
      </trkpt>
      <trkpt lat="44.58418" lon="5.9285">
        <ele>1198</ele>
        <time>2018-08-15T15:05:13Z</time>
      </trkpt>
      <trkpt lat="44.5843" lon="5.92852">
        <ele>1197</ele>
        <time>2018-08-15T15:05:15Z</time>
      </trkpt>
      <trkpt lat="44.5844" lon="5.92857">
        <ele>1195</ele>
        <time>2018-08-15T15:05:17Z</time>
      </trkpt>
      <trkpt lat="44.58465" lon="5.92856">
        <ele>1194</ele>
        <time>2018-08-15T15:05:21Z</time>
      </trkpt>
      <trkpt lat="44.58476" lon="5.92852">
        <ele>1195</ele>
        <time>2018-08-15T15:05:23Z</time>
      </trkpt>
      <trkpt lat="44.5849" lon="5.92852">
        <ele>1196</ele>
        <time>2018-08-15T15:05:25Z</time>
      </trkpt>
      <trkpt lat="44.58503" lon="5.92859">
        <ele>1194</ele>
        <time>2018-08-15T15:05:27Z</time>
      </trkpt>
      <trkpt lat="44.58519" lon="5.92857">
        <ele>1194</ele>
        <time>2018-08-15T15:05:29Z</time>
      </trkpt>
      <trkpt lat="44.58537" lon="5.92858">
        <ele>1193</ele>
        <time>2018-08-15T15:05:31Z</time>
      </trkpt>
      <trkpt lat="44.58551" lon="5.92865">
        <ele>1192</ele>
        <time>2018-08-15T15:05:33Z</time>
      </trkpt>
      <trkpt lat="44.58591" lon="5.92842">
        <ele>1199</ele>
        <time>2018-08-15T15:05:38Z</time>
      </trkpt>
      <trkpt lat="44.586" lon="5.92847">
        <ele>1198</ele>
        <time>2018-08-15T15:05:41Z</time>
      </trkpt>
      <trkpt lat="44.58614" lon="5.92844">
        <ele>1198</ele>
        <time>2018-08-15T15:05:43Z</time>
      </trkpt>
      <trkpt lat="44.58628" lon="5.92845">
        <ele>1198</ele>
        <time>2018-08-15T15:05:45Z</time>
      </trkpt>
      <trkpt lat="44.58651" lon="5.92861">
        <ele>1199</ele>
        <time>2018-08-15T15:05:49Z</time>
      </trkpt>
      <trkpt lat="44.58658" lon="5.92876">
        <ele>1197</ele>
        <time>2018-08-15T15:05:51Z</time>
      </trkpt>
      <trkpt lat="44.58664" lon="5.92894">
        <ele>1194</ele>
        <time>2018-08-15T15:05:53Z</time>
      </trkpt>
      <trkpt lat="44.58673" lon="5.92912">
        <ele>1197</ele>
        <time>2018-08-15T15:05:55Z</time>
      </trkpt>
      <trkpt lat="44.58685" lon="5.9292">
        <ele>1197</ele>
        <time>2018-08-15T15:05:57Z</time>
      </trkpt>
      <trkpt lat="44.58699" lon="5.92953">
        <ele>1199</ele>
        <time>2018-08-15T15:06:00Z</time>
      </trkpt>
      <trkpt lat="44.58708" lon="5.92951">
        <ele>1201</ele>
        <time>2018-08-15T15:06:02Z</time>
      </trkpt>
      <trkpt lat="44.58716" lon="5.92964">
        <ele>1201</ele>
        <time>2018-08-15T15:06:04Z</time>
      </trkpt>
      <trkpt lat="44.58726" lon="5.92973">
        <ele>1203</ele>
        <time>2018-08-15T15:06:06Z</time>
      </trkpt>
      <trkpt lat="44.58734" lon="5.92983">
        <ele>1204</ele>
        <time>2018-08-15T15:06:08Z</time>
      </trkpt>
      <trkpt lat="44.58722" lon="5.92998">
        <ele>1202</ele>
        <time>2018-08-15T15:06:14Z</time>
      </trkpt>
      <trkpt lat="44.58719" lon="5.93011">
        <ele>1203</ele>
        <time>2018-08-15T15:06:16Z</time>
      </trkpt>
      <trkpt lat="44.58725" lon="5.93025">
        <ele>1204</ele>
        <time>2018-08-15T15:06:20Z</time>
      </trkpt>
      <trkpt lat="44.58733" lon="5.93036">
        <ele>1205</ele>
        <time>2018-08-15T15:06:23Z</time>
      </trkpt>
      <trkpt lat="44.58741" lon="5.93048">
        <ele>1205</ele>
        <time>2018-08-15T15:06:26Z</time>
      </trkpt>
      <trkpt lat="44.58752" lon="5.93059">
        <ele>1217</ele>
        <time>2018-08-15T15:06:29Z</time>
      </trkpt>
      <trkpt lat="44.5876" lon="5.93065">
        <ele>1217</ele>
        <time>2018-08-15T15:06:31Z</time>
      </trkpt>
      <trkpt lat="44.58769" lon="5.93071">
        <ele>1218</ele>
        <time>2018-08-15T15:06:34Z</time>
      </trkpt>
      <trkpt lat="44.58779" lon="5.93081">
        <ele>1220</ele>
        <time>2018-08-15T15:06:37Z</time>
      </trkpt>
      <trkpt lat="44.58798" lon="5.93096">
        <ele>1225</ele>
        <time>2018-08-15T15:06:43Z</time>
      </trkpt>
      <trkpt lat="44.58802" lon="5.93112">
        <ele>1225</ele>
        <time>2018-08-15T15:06:47Z</time>
      </trkpt>
      <trkpt lat="44.58796" lon="5.93124">
        <ele>1223</ele>
        <time>2018-08-15T15:06:51Z</time>
      </trkpt>
      <trkpt lat="44.58778" lon="5.93116">
        <ele>1221</ele>
        <time>2018-08-15T15:07:08Z</time>
      </trkpt>
      <trkpt lat="44.58768" lon="5.93115">
        <ele>1219</ele>
        <time>2018-08-15T15:07:11Z</time>
      </trkpt>
      <trkpt lat="44.58755" lon="5.93119">
        <ele>1218</ele>
        <time>2018-08-15T15:07:15Z</time>
      </trkpt>
      <trkpt lat="44.58746" lon="5.93124">
        <ele>1215</ele>
        <time>2018-08-15T15:07:18Z</time>
      </trkpt>
      <trkpt lat="44.58717" lon="5.9313">
        <ele>1217</ele>
        <time>2018-08-15T15:07:28Z</time>
      </trkpt>
      <trkpt lat="44.58708" lon="5.93144">
        <ele>1219</ele>
        <time>2018-08-15T15:07:31Z</time>
      </trkpt>
      <trkpt lat="44.58707" lon="5.93156">
        <ele>1220</ele>
        <time>2018-08-15T15:07:34Z</time>
      </trkpt>
      <trkpt lat="44.58707" lon="5.93172">
        <ele>1231</ele>
        <time>2018-08-15T15:07:38Z</time>
      </trkpt>
      <trkpt lat="44.58703" lon="5.93185">
        <ele>1232</ele>
        <time>2018-08-15T15:07:42Z</time>
      </trkpt>
      <trkpt lat="44.58703" lon="5.93199">
        <ele>1233</ele>
        <time>2018-08-15T15:07:47Z</time>
      </trkpt>
      <trkpt lat="44.58706" lon="5.93214">
        <ele>1234</ele>
        <time>2018-08-15T15:07:50Z</time>
      </trkpt>
      <trkpt lat="44.58708" lon="5.93227">
        <ele>1235</ele>
        <time>2018-08-15T15:07:55Z</time>
      </trkpt>
      <trkpt lat="44.58718" lon="5.93235">
        <ele>1234</ele>
        <time>2018-08-15T15:08:03Z</time>
      </trkpt>
      <trkpt lat="44.58726" lon="5.93238">
        <ele>1233</ele>
        <time>2018-08-15T15:08:09Z</time>
      </trkpt>
      <trkpt lat="44.58736" lon="5.93241">
        <ele>1232</ele>
        <time>2018-08-15T15:08:13Z</time>
      </trkpt>
      <trkpt lat="44.58776" lon="5.93265">
        <ele>1235</ele>
        <time>2018-08-15T15:08:28Z</time>
      </trkpt>
      <trkpt lat="44.58792" lon="5.93282">
        <ele>1236</ele>
        <time>2018-08-15T15:08:35Z</time>
      </trkpt>
      <trkpt lat="44.58787" lon="5.93278">
        <ele>1236</ele>
        <time>2018-08-15T15:08:51Z</time>
      </trkpt>
      <trkpt lat="44.58753" lon="5.93249">
        <ele>1230</ele>
        <time>2018-08-15T15:09:09Z</time>
      </trkpt>
      <trkpt lat="44.58739" lon="5.93244">
        <ele>1232</ele>
        <time>2018-08-15T15:09:15Z</time>
      </trkpt>
      <trkpt lat="44.58729" lon="5.93243">
        <ele>1233</ele>
        <time>2018-08-15T15:09:19Z</time>
      </trkpt>
      <trkpt lat="44.58719" lon="5.93241">
        <ele>1235</ele>
        <time>2018-08-15T15:09:24Z</time>
      </trkpt>
      <trkpt lat="44.58699" lon="5.93225">
        <ele>1236</ele>
        <time>2018-08-15T15:09:31Z</time>
      </trkpt>
      <trkpt lat="44.58691" lon="5.93211">
        <ele>1236</ele>
        <time>2018-08-15T15:09:36Z</time>
      </trkpt>
      <trkpt lat="44.58684" lon="5.93202">
        <ele>1235</ele>
        <time>2018-08-15T15:09:40Z</time>
      </trkpt>
      <trkpt lat="44.58657" lon="5.93192">
        <ele>1245</ele>
        <time>2018-08-15T15:09:51Z</time>
      </trkpt>
      <trkpt lat="44.58647" lon="5.93191">
        <ele>1246</ele>
        <time>2018-08-15T15:09:55Z</time>
      </trkpt>
      <trkpt lat="44.58636" lon="5.93195">
        <ele>1248</ele>
        <time>2018-08-15T15:09:59Z</time>
      </trkpt>
      <trkpt lat="44.58605" lon="5.93199">
        <ele>1250</ele>
        <time>2018-08-15T15:10:07Z</time>
      </trkpt>
      <trkpt lat="44.58594" lon="5.93199">
        <ele>1251</ele>
        <time>2018-08-15T15:10:12Z</time>
      </trkpt>
      <trkpt lat="44.58586" lon="5.93196">
        <ele>1250</ele>
        <time>2018-08-15T15:10:15Z</time>
      </trkpt>
      <trkpt lat="44.58573" lon="5.93202">
        <ele>1258</ele>
        <time>2018-08-15T15:10:21Z</time>
      </trkpt>
      <trkpt lat="44.58562" lon="5.93223">
        <ele>1262</ele>
        <time>2018-08-15T15:10:27Z</time>
      </trkpt>
      <trkpt lat="44.58567" lon="5.93236">
        <ele>1264</ele>
        <time>2018-08-15T15:10:32Z</time>
      </trkpt>
      <trkpt lat="44.58584" lon="5.93252">
        <ele>1268</ele>
        <time>2018-08-15T15:10:40Z</time>
      </trkpt>
      <trkpt lat="44.58594" lon="5.93255">
        <ele>1269</ele>
        <time>2018-08-15T15:10:43Z</time>
      </trkpt>
      <trkpt lat="44.58612" lon="5.93269">
        <ele>1269</ele>
        <time>2018-08-15T15:10:49Z</time>
      </trkpt>
      <trkpt lat="44.58625" lon="5.93297">
        <ele>1271</ele>
        <time>2018-08-15T15:10:58Z</time>
      </trkpt>
      <trkpt lat="44.58632" lon="5.9331">
        <ele>1272</ele>
        <time>2018-08-15T15:11:00Z</time>
      </trkpt>
      <trkpt lat="44.58638" lon="5.93322">
        <ele>1273</ele>
        <time>2018-08-15T15:11:04Z</time>
      </trkpt>
      <trkpt lat="44.58651" lon="5.93338">
        <ele>1282</ele>
        <time>2018-08-15T15:11:11Z</time>
      </trkpt>
      <trkpt lat="44.58661" lon="5.93349">
        <ele>1283</ele>
        <time>2018-08-15T15:11:16Z</time>
      </trkpt>
      <trkpt lat="44.58676" lon="5.93352">
        <ele>1279</ele>
        <time>2018-08-15T15:11:21Z</time>
      </trkpt>
      <trkpt lat="44.58694" lon="5.93357">
        <ele>1279</ele>
        <time>2018-08-15T15:11:28Z</time>
      </trkpt>
      <trkpt lat="44.58758" lon="5.93421">
        <ele>1287</ele>
        <time>2018-08-15T15:12:00Z</time>
      </trkpt>
      <trkpt lat="44.58796" lon="5.93454">
        <ele>1285</ele>
        <time>2018-08-15T15:12:16Z</time>
      </trkpt>
      <trkpt lat="44.58813" lon="5.93482">
        <ele>1287</ele>
        <time>2018-08-15T15:12:28Z</time>
      </trkpt>
      <trkpt lat="44.58844" lon="5.93503">
        <ele>1287</ele>
        <time>2018-08-15T15:12:37Z</time>
      </trkpt>
      <trkpt lat="44.58849" lon="5.93514">
        <ele>1286</ele>
        <time>2018-08-15T15:12:41Z</time>
      </trkpt>
      <trkpt lat="44.58844" lon="5.93529">
        <ele>1287</ele>
        <time>2018-08-15T15:12:45Z</time>
      </trkpt>
      <trkpt lat="44.58837" lon="5.9356">
        <ele>1294</ele>
        <time>2018-08-15T15:12:53Z</time>
      </trkpt>
      <trkpt lat="44.58836" lon="5.93576">
        <ele>1301</ele>
        <time>2018-08-15T15:12:57Z</time>
      </trkpt>
      <trkpt lat="44.58844" lon="5.93575">
        <ele>1298</ele>
        <time>2018-08-15T15:13:12Z</time>
      </trkpt>
      <trkpt lat="44.58847" lon="5.93562">
        <ele>1293</ele>
        <time>2018-08-15T15:13:15Z</time>
      </trkpt>
      <trkpt lat="44.58849" lon="5.93534">
        <ele>1287</ele>
        <time>2018-08-15T15:13:22Z</time>
      </trkpt>
      <trkpt lat="44.58845" lon="5.93521">
        <ele>1286</ele>
        <time>2018-08-15T15:13:25Z</time>
      </trkpt>
      <trkpt lat="44.58837" lon="5.9351">
        <ele>1287</ele>
        <time>2018-08-15T15:13:28Z</time>
      </trkpt>
      <trkpt lat="44.58802" lon="5.93476">
        <ele>1287</ele>
        <time>2018-08-15T15:13:38Z</time>
      </trkpt>
      <trkpt lat="44.58794" lon="5.9347">
        <ele>1287</ele>
        <time>2018-08-15T15:13:40Z</time>
      </trkpt>
      <trkpt lat="44.58781" lon="5.93465">
        <ele>1288</ele>
        <time>2018-08-15T15:13:43Z</time>
      </trkpt>
      <trkpt lat="44.58769" lon="5.93464">
        <ele>1290</ele>
        <time>2018-08-15T15:13:46Z</time>
      </trkpt>
      <trkpt lat="44.5874" lon="5.93464">
        <ele>1301</ele>
        <time>2018-08-15T15:13:52Z</time>
      </trkpt>
      <trkpt lat="44.58729" lon="5.93463">
        <ele>1301</ele>
        <time>2018-08-15T15:13:54Z</time>
      </trkpt>
      <trkpt lat="44.58715" lon="5.93463">
        <ele>1301</ele>
        <time>2018-08-15T15:13:56Z</time>
      </trkpt>
      <trkpt lat="44.5869" lon="5.93453">
        <ele>1301</ele>
        <time>2018-08-15T15:14:00Z</time>
      </trkpt>
      <trkpt lat="44.58675" lon="5.93449">
        <ele>1301</ele>
        <time>2018-08-15T15:14:02Z</time>
      </trkpt>
      <trkpt lat="44.5864" lon="5.93439">
        <ele>1304</ele>
        <time>2018-08-15T15:14:08Z</time>
      </trkpt>
      <trkpt lat="44.58629" lon="5.93433">
        <ele>1304</ele>
        <time>2018-08-15T15:14:10Z</time>
      </trkpt>
      <trkpt lat="44.58617" lon="5.93431">
        <ele>1304</ele>
        <time>2018-08-15T15:14:12Z</time>
      </trkpt>
      <trkpt lat="44.58594" lon="5.93443">
        <ele>1304</ele>
        <time>2018-08-15T15:14:16Z</time>
      </trkpt>
      <trkpt lat="44.58582" lon="5.93446">
        <ele>1309</ele>
        <time>2018-08-15T15:14:18Z</time>
      </trkpt>
      <trkpt lat="44.5857" lon="5.93449">
        <ele>1310</ele>
        <time>2018-08-15T15:14:20Z</time>
      </trkpt>
      <trkpt lat="44.5855" lon="5.93462">
        <ele>1313</ele>
        <time>2018-08-15T15:14:25Z</time>
      </trkpt>
      <trkpt lat="44.5854" lon="5.93456">
        <ele>1313</ele>
        <time>2018-08-15T15:14:28Z</time>
      </trkpt>
      <trkpt lat="44.58531" lon="5.93449">
        <ele>1313</ele>
        <time>2018-08-15T15:14:31Z</time>
      </trkpt>
      <trkpt lat="44.5852" lon="5.93447">
        <ele>1313</ele>
        <time>2018-08-15T15:14:34Z</time>
      </trkpt>
      <trkpt lat="44.58497" lon="5.93432">
        <ele>1317</ele>
        <time>2018-08-15T15:14:40Z</time>
      </trkpt>
      <trkpt lat="44.58443" lon="5.9338">
        <ele>1312</ele>
        <time>2018-08-15T15:14:48Z</time>
      </trkpt>
      <trkpt lat="44.58438" lon="5.93368">
        <ele>1310</ele>
        <time>2018-08-15T15:14:50Z</time>
      </trkpt>
      <trkpt lat="44.58439" lon="5.93354">
        <ele>1309</ele>
        <time>2018-08-15T15:14:52Z</time>
      </trkpt>
      <trkpt lat="44.58435" lon="5.93341">
        <ele>1308</ele>
        <time>2018-08-15T15:14:54Z</time>
      </trkpt>
      <trkpt lat="44.58427" lon="5.93333">
        <ele>1301</ele>
        <time>2018-08-15T15:14:56Z</time>
      </trkpt>
      <trkpt lat="44.58415" lon="5.9333">
        <ele>1303</ele>
        <time>2018-08-15T15:14:58Z</time>
      </trkpt>
      <trkpt lat="44.584" lon="5.93335">
        <ele>1309</ele>
        <time>2018-08-15T15:15:00Z</time>
      </trkpt>
      <trkpt lat="44.58388" lon="5.9334">
        <ele>1310</ele>
        <time>2018-08-15T15:15:02Z</time>
      </trkpt>
      <trkpt lat="44.58368" lon="5.93355">
        <ele>1311</ele>
        <time>2018-08-15T15:15:06Z</time>
      </trkpt>
      <trkpt lat="44.58355" lon="5.93363">
        <ele>1311</ele>
        <time>2018-08-15T15:15:08Z</time>
      </trkpt>
      <trkpt lat="44.58333" lon="5.93377">
        <ele>1315</ele>
        <time>2018-08-15T15:15:12Z</time>
      </trkpt>
      <trkpt lat="44.58324" lon="5.93387">
        <ele>1315</ele>
        <time>2018-08-15T15:15:15Z</time>
      </trkpt>
      <trkpt lat="44.58296" lon="5.9339">
        <ele>1312</ele>
        <time>2018-08-15T15:15:19Z</time>
      </trkpt>
      <trkpt lat="44.58283" lon="5.93393">
        <ele>1312</ele>
        <time>2018-08-15T15:15:21Z</time>
      </trkpt>
      <trkpt lat="44.58261" lon="5.93407">
        <ele>1316</ele>
        <time>2018-08-15T15:15:25Z</time>
      </trkpt>
      <trkpt lat="44.58239" lon="5.93426">
        <ele>1326</ele>
        <time>2018-08-15T15:15:29Z</time>
      </trkpt>
      <trkpt lat="44.58231" lon="5.9342">
        <ele>1326</ele>
        <time>2018-08-15T15:15:31Z</time>
      </trkpt>
      <trkpt lat="44.58224" lon="5.93402">
        <ele>1308</ele>
        <time>2018-08-15T15:15:33Z</time>
      </trkpt>
      <trkpt lat="44.58214" lon="5.934">
        <ele>1306</ele>
        <time>2018-08-15T15:15:35Z</time>
      </trkpt>
      <trkpt lat="44.58202" lon="5.93393">
        <ele>1304</ele>
        <time>2018-08-15T15:15:38Z</time>
      </trkpt>
      <trkpt lat="44.58149" lon="5.93399">
        <ele>1304</ele>
        <time>2018-08-15T15:15:46Z</time>
      </trkpt>
      <trkpt lat="44.58134" lon="5.93404">
        <ele>1303</ele>
        <time>2018-08-15T15:15:48Z</time>
      </trkpt>
      <trkpt lat="44.58123" lon="5.93406">
        <ele>1303</ele>
        <time>2018-08-15T15:15:50Z</time>
      </trkpt>
      <trkpt lat="44.58092" lon="5.934">
        <ele>1305</ele>
        <time>2018-08-15T15:15:56Z</time>
      </trkpt>
      <trkpt lat="44.58051" lon="5.93407">
        <ele>1306</ele>
        <time>2018-08-15T15:16:03Z</time>
      </trkpt>
      <trkpt lat="44.58039" lon="5.93395">
        <ele>1305</ele>
        <time>2018-08-15T15:16:05Z</time>
      </trkpt>
      <trkpt lat="44.58006" lon="5.93362">
        <ele>1300</ele>
        <time>2018-08-15T15:16:10Z</time>
      </trkpt>
      <trkpt lat="44.57996" lon="5.93347">
        <ele>1296</ele>
        <time>2018-08-15T15:16:12Z</time>
      </trkpt>
      <trkpt lat="44.57987" lon="5.93341">
        <ele>1295</ele>
        <time>2018-08-15T15:16:14Z</time>
      </trkpt>
      <trkpt lat="44.57975" lon="5.93337">
        <ele>1296</ele>
        <time>2018-08-15T15:16:16Z</time>
      </trkpt>
      <trkpt lat="44.57943" lon="5.93345">
        <ele>1294</ele>
        <time>2018-08-15T15:16:20Z</time>
      </trkpt>
      <trkpt lat="44.57934" lon="5.93353">
        <ele>1294</ele>
        <time>2018-08-15T15:16:22Z</time>
      </trkpt>
      <trkpt lat="44.5792" lon="5.93366">
        <ele>1297</ele>
        <time>2018-08-15T15:16:24Z</time>
      </trkpt>
      <trkpt lat="44.57907" lon="5.93373">
        <ele>1283</ele>
        <time>2018-08-15T15:16:26Z</time>
      </trkpt>
      <trkpt lat="44.57873" lon="5.93386">
        <ele>1279</ele>
        <time>2018-08-15T15:16:30Z</time>
      </trkpt>
      <trkpt lat="44.57861" lon="5.93401">
        <ele>1277</ele>
        <time>2018-08-15T15:16:32Z</time>
      </trkpt>
      <trkpt lat="44.57862" lon="5.93416">
        <ele>1278</ele>
        <time>2018-08-15T15:16:33Z</time>
      </trkpt>
      <trkpt lat="44.57845" lon="5.93471">
        <ele>1297</ele>
        <time>2018-08-15T15:16:38Z</time>
      </trkpt>
      <trkpt lat="44.57837" lon="5.93488">
        <ele>1296</ele>
        <time>2018-08-15T15:16:40Z</time>
      </trkpt>
      <trkpt lat="44.57824" lon="5.93499">
        <ele>1284</ele>
        <time>2018-08-15T15:16:42Z</time>
      </trkpt>
      <trkpt lat="44.57814" lon="5.93511">
        <ele>1287</ele>
        <time>2018-08-15T15:16:44Z</time>
      </trkpt>
      <trkpt lat="44.57811" lon="5.93565">
        <ele>1293</ele>
        <time>2018-08-15T15:16:49Z</time>
      </trkpt>
      <trkpt lat="44.57802" lon="5.93607">
        <ele>1305</ele>
        <time>2018-08-15T15:16:53Z</time>
      </trkpt>
      <trkpt lat="44.57782" lon="5.93627">
        <ele>1304</ele>
        <time>2018-08-15T15:16:56Z</time>
      </trkpt>
      <trkpt lat="44.57767" lon="5.9363">
        <ele>1302</ele>
        <time>2018-08-15T15:16:58Z</time>
      </trkpt>
      <trkpt lat="44.57759" lon="5.93637">
        <ele>1302</ele>
        <time>2018-08-15T15:17:00Z</time>
      </trkpt>
      <trkpt lat="44.57719" lon="5.93619">
        <ele>1287</ele>
        <time>2018-08-15T15:17:06Z</time>
      </trkpt>
      <trkpt lat="44.57709" lon="5.93619">
        <ele>1286</ele>
        <time>2018-08-15T15:17:07Z</time>
      </trkpt>
      <trkpt lat="44.57692" lon="5.93624">
        <ele>1286</ele>
        <time>2018-08-15T15:17:09Z</time>
      </trkpt>
      <trkpt lat="44.57677" lon="5.93628">
        <ele>1287</ele>
        <time>2018-08-15T15:17:11Z</time>
      </trkpt>
      <trkpt lat="44.57652" lon="5.93626">
        <ele>1282</ele>
        <time>2018-08-15T15:17:15Z</time>
      </trkpt>
      <trkpt lat="44.57638" lon="5.93631">
        <ele>1282</ele>
        <time>2018-08-15T15:17:18Z</time>
      </trkpt>
      <trkpt lat="44.57619" lon="5.93634">
        <ele>1282</ele>
        <time>2018-08-15T15:17:20Z</time>
      </trkpt>
      <trkpt lat="44.57605" lon="5.93631">
        <ele>1281</ele>
        <time>2018-08-15T15:17:21Z</time>
      </trkpt>
      <trkpt lat="44.57593" lon="5.93624">
        <ele>1280</ele>
        <time>2018-08-15T15:17:22Z</time>
      </trkpt>
      <trkpt lat="44.5757" lon="5.93623">
        <ele>1274</ele>
        <time>2018-08-15T15:17:25Z</time>
      </trkpt>
      <trkpt lat="44.57552" lon="5.93628">
        <ele>1274</ele>
        <time>2018-08-15T15:17:27Z</time>
      </trkpt>
      <trkpt lat="44.57541" lon="5.93636">
        <ele>1274</ele>
        <time>2018-08-15T15:17:29Z</time>
      </trkpt>
      <trkpt lat="44.57529" lon="5.93629">
        <ele>1272</ele>
        <time>2018-08-15T15:17:32Z</time>
      </trkpt>
      <trkpt lat="44.57526" lon="5.93617">
        <ele>1271</ele>
        <time>2018-08-15T15:17:34Z</time>
      </trkpt>
      <trkpt lat="44.5754" lon="5.93618">
        <ele>1272</ele>
        <time>2018-08-15T15:17:37Z</time>
      </trkpt>
      <trkpt lat="44.57552" lon="5.93613">
        <ele>1272</ele>
        <time>2018-08-15T15:17:40Z</time>
      </trkpt>
      <trkpt lat="44.57563" lon="5.93606">
        <ele>1272</ele>
        <time>2018-08-15T15:17:43Z</time>
      </trkpt>
      <trkpt lat="44.57575" lon="5.93601">
        <ele>1272</ele>
        <time>2018-08-15T15:17:46Z</time>
      </trkpt>
      <trkpt lat="44.57594" lon="5.93584">
        <ele>1273</ele>
        <time>2018-08-15T15:17:50Z</time>
      </trkpt>
      <trkpt lat="44.57617" lon="5.93544">
        <ele>1261</ele>
        <time>2018-08-15T15:17:56Z</time>
      </trkpt>
      <trkpt lat="44.57621" lon="5.9353">
        <ele>1259</ele>
        <time>2018-08-15T15:17:58Z</time>
      </trkpt>
      <trkpt lat="44.5762" lon="5.93515">
        <ele>1258</ele>
        <time>2018-08-15T15:18:00Z</time>
      </trkpt>
      <trkpt lat="44.57607" lon="5.93507">
        <ele>1258</ele>
        <time>2018-08-15T15:18:02Z</time>
      </trkpt>
      <trkpt lat="44.57592" lon="5.93509">
        <ele>1258</ele>
        <time>2018-08-15T15:18:04Z</time>
      </trkpt>
      <trkpt lat="44.57546" lon="5.93515">
        <ele>1259</ele>
        <time>2018-08-15T15:18:10Z</time>
      </trkpt>
      <trkpt lat="44.57524" lon="5.93512">
        <ele>1258</ele>
        <time>2018-08-15T15:18:14Z</time>
      </trkpt>
      <trkpt lat="44.57506" lon="5.93517">
        <ele>1257</ele>
        <time>2018-08-15T15:18:16Z</time>
      </trkpt>
      <trkpt lat="44.57498" lon="5.93523">
        <ele>1252</ele>
        <time>2018-08-15T15:18:17Z</time>
      </trkpt>
      <trkpt lat="44.57473" lon="5.93548">
        <ele>1252</ele>
        <time>2018-08-15T15:18:21Z</time>
      </trkpt>
      <trkpt lat="44.57461" lon="5.93553">
        <ele>1251</ele>
        <time>2018-08-15T15:18:23Z</time>
      </trkpt>
      <trkpt lat="44.57448" lon="5.93556">
        <ele>1250</ele>
        <time>2018-08-15T15:18:26Z</time>
      </trkpt>
      <trkpt lat="44.57427" lon="5.93536">
        <ele>1248</ele>
        <time>2018-08-15T15:18:30Z</time>
      </trkpt>
      <trkpt lat="44.57421" lon="5.93524">
        <ele>1247</ele>
        <time>2018-08-15T15:18:32Z</time>
      </trkpt>
      <trkpt lat="44.57418" lon="5.93508">
        <ele>1243</ele>
        <time>2018-08-15T15:18:34Z</time>
      </trkpt>
      <trkpt lat="44.57418" lon="5.93489">
        <ele>1242</ele>
        <time>2018-08-15T15:18:36Z</time>
      </trkpt>
      <trkpt lat="44.57417" lon="5.9347">
        <ele>1243</ele>
        <time>2018-08-15T15:18:38Z</time>
      </trkpt>
      <trkpt lat="44.57424" lon="5.93455">
        <ele>1243</ele>
        <time>2018-08-15T15:18:40Z</time>
      </trkpt>
      <trkpt lat="44.5744" lon="5.93413">
        <ele>1240</ele>
        <time>2018-08-15T15:18:46Z</time>
      </trkpt>
      <trkpt lat="44.57443" lon="5.93398">
        <ele>1239</ele>
        <time>2018-08-15T15:18:48Z</time>
      </trkpt>
      <trkpt lat="44.57445" lon="5.93383">
        <ele>1239</ele>
        <time>2018-08-15T15:18:50Z</time>
      </trkpt>
      <trkpt lat="44.57444" lon="5.93369">
        <ele>1238</ele>
        <time>2018-08-15T15:18:52Z</time>
      </trkpt>
      <trkpt lat="44.57435" lon="5.9334">
        <ele>1238</ele>
        <time>2018-08-15T15:18:57Z</time>
      </trkpt>
      <trkpt lat="44.57432" lon="5.93314">
        <ele>1232</ele>
        <time>2018-08-15T15:19:02Z</time>
      </trkpt>
      <trkpt lat="44.57434" lon="5.93299">
        <ele>1230</ele>
        <time>2018-08-15T15:19:07Z</time>
      </trkpt>
      <trkpt lat="44.57431" lon="5.93286">
        <ele>1229</ele>
        <time>2018-08-15T15:19:09Z</time>
      </trkpt>
      <trkpt lat="44.57423" lon="5.93276">
        <ele>1229</ele>
        <time>2018-08-15T15:19:11Z</time>
      </trkpt>
      <trkpt lat="44.57413" lon="5.93273">
        <ele>1226</ele>
        <time>2018-08-15T15:19:13Z</time>
      </trkpt>
      <trkpt lat="44.574" lon="5.93264">
        <ele>1225</ele>
        <time>2018-08-15T15:19:17Z</time>
      </trkpt>
      <trkpt lat="44.57386" lon="5.93265">
        <ele>1223</ele>
        <time>2018-08-15T15:19:19Z</time>
      </trkpt>
      <trkpt lat="44.57371" lon="5.93274">
        <ele>1221</ele>
        <time>2018-08-15T15:19:21Z</time>
      </trkpt>
      <trkpt lat="44.5736" lon="5.9329">
        <ele>1220</ele>
        <time>2018-08-15T15:19:23Z</time>
      </trkpt>
      <trkpt lat="44.57356" lon="5.93309">
        <ele>1220</ele>
        <time>2018-08-15T15:19:24Z</time>
      </trkpt>
      <trkpt lat="44.57345" lon="5.93357">
        <ele>1222</ele>
        <time>2018-08-15T15:19:29Z</time>
      </trkpt>
      <trkpt lat="44.57331" lon="5.93443">
        <ele>1206</ele>
        <time>2018-08-15T15:19:37Z</time>
      </trkpt>
      <trkpt lat="44.57327" lon="5.93463">
        <ele>1205</ele>
        <time>2018-08-15T15:19:39Z</time>
      </trkpt>
      <trkpt lat="44.57311" lon="5.93532">
        <ele>1205</ele>
        <time>2018-08-15T15:19:45Z</time>
      </trkpt>
      <trkpt lat="44.5727" lon="5.9362">
        <ele>1204</ele>
        <time>2018-08-15T15:19:55Z</time>
      </trkpt>
      <trkpt lat="44.5726" lon="5.93664">
        <ele>1201</ele>
        <time>2018-08-15T15:19:59Z</time>
      </trkpt>
      <trkpt lat="44.57252" lon="5.93682">
        <ele>1202</ele>
        <time>2018-08-15T15:20:01Z</time>
      </trkpt>
      <trkpt lat="44.5724" lon="5.93721">
        <ele>1181</ele>
        <time>2018-08-15T15:20:05Z</time>
      </trkpt>
      <trkpt lat="44.57235" lon="5.93738">
        <ele>1183</ele>
        <time>2018-08-15T15:20:07Z</time>
      </trkpt>
      <trkpt lat="44.57238" lon="5.93755">
        <ele>1184</ele>
        <time>2018-08-15T15:20:09Z</time>
      </trkpt>
      <trkpt lat="44.57253" lon="5.93786">
        <ele>1194</ele>
        <time>2018-08-15T15:20:13Z</time>
      </trkpt>
      <trkpt lat="44.57263" lon="5.93799">
        <ele>1193</ele>
        <time>2018-08-15T15:20:15Z</time>
      </trkpt>
      <trkpt lat="44.57273" lon="5.93811">
        <ele>1192</ele>
        <time>2018-08-15T15:20:17Z</time>
      </trkpt>
      <trkpt lat="44.57282" lon="5.93818">
        <ele>1193</ele>
        <time>2018-08-15T15:20:19Z</time>
      </trkpt>
      <trkpt lat="44.57289" lon="5.93827">
        <ele>1194</ele>
        <time>2018-08-15T15:20:21Z</time>
      </trkpt>
      <trkpt lat="44.57299" lon="5.93824">
        <ele>1196</ele>
        <time>2018-08-15T15:20:23Z</time>
      </trkpt>
      <trkpt lat="44.57307" lon="5.93827">
        <ele>1197</ele>
        <time>2018-08-15T15:20:26Z</time>
      </trkpt>
      <trkpt lat="44.57302" lon="5.93842">
        <ele>1200</ele>
        <time>2018-08-15T15:20:28Z</time>
      </trkpt>
      <trkpt lat="44.57288" lon="5.93853">
        <ele>1199</ele>
        <time>2018-08-15T15:20:30Z</time>
      </trkpt>
      <trkpt lat="44.57275" lon="5.93863">
        <ele>1198</ele>
        <time>2018-08-15T15:20:32Z</time>
      </trkpt>
      <trkpt lat="44.5726" lon="5.93857">
        <ele>1194</ele>
        <time>2018-08-15T15:20:34Z</time>
      </trkpt>
      <trkpt lat="44.57234" lon="5.93846">
        <ele>1180</ele>
        <time>2018-08-15T15:20:38Z</time>
      </trkpt>
      <trkpt lat="44.57209" lon="5.93851">
        <ele>1178</ele>
        <time>2018-08-15T15:20:41Z</time>
      </trkpt>
      <trkpt lat="44.57177" lon="5.9387">
        <ele>1177</ele>
        <time>2018-08-15T15:20:45Z</time>
      </trkpt>
      <trkpt lat="44.57163" lon="5.93875">
        <ele>1161</ele>
        <time>2018-08-15T15:20:47Z</time>
      </trkpt>
      <trkpt lat="44.57146" lon="5.93873">
        <ele>1158</ele>
        <time>2018-08-15T15:20:49Z</time>
      </trkpt>
      <trkpt lat="44.57133" lon="5.93868">
        <ele>1155</ele>
        <time>2018-08-15T15:20:51Z</time>
      </trkpt>
      <trkpt lat="44.57119" lon="5.9387">
        <ele>1153</ele>
        <time>2018-08-15T15:20:53Z</time>
      </trkpt>
      <trkpt lat="44.57106" lon="5.93879">
        <ele>1152</ele>
        <time>2018-08-15T15:20:55Z</time>
      </trkpt>
      <trkpt lat="44.57077" lon="5.93923">
        <ele>1147</ele>
        <time>2018-08-15T15:21:01Z</time>
      </trkpt>
      <trkpt lat="44.57072" lon="5.93941">
        <ele>1142</ele>
        <time>2018-08-15T15:21:03Z</time>
      </trkpt>
      <trkpt lat="44.57068" lon="5.93957">
        <ele>1141</ele>
        <time>2018-08-15T15:21:05Z</time>
      </trkpt>
      <trkpt lat="44.57066" lon="5.93972">
        <ele>1143</ele>
        <time>2018-08-15T15:21:06Z</time>
      </trkpt>
      <trkpt lat="44.57067" lon="5.94002">
        <ele>1154</ele>
        <time>2018-08-15T15:21:08Z</time>
      </trkpt>
      <trkpt lat="44.57066" lon="5.94054">
        <ele>1150</ele>
        <time>2018-08-15T15:21:12Z</time>
      </trkpt>
      <trkpt lat="44.57065" lon="5.94068">
        <ele>1153</ele>
        <time>2018-08-15T15:21:13Z</time>
      </trkpt>
      <trkpt lat="44.57058" lon="5.94108">
        <ele>1150</ele>
        <time>2018-08-15T15:21:16Z</time>
      </trkpt>
      <trkpt lat="44.57054" lon="5.94147">
        <ele>1150</ele>
        <time>2018-08-15T15:21:19Z</time>
      </trkpt>
      <trkpt lat="44.57053" lon="5.9418">
        <ele>1150</ele>
        <time>2018-08-15T15:21:22Z</time>
      </trkpt>
      <trkpt lat="44.57054" lon="5.94194">
        <ele>1150</ele>
        <time>2018-08-15T15:21:23Z</time>
      </trkpt>
      <trkpt lat="44.57047" lon="5.94205">
        <ele>1147</ele>
        <time>2018-08-15T15:21:24Z</time>
      </trkpt>
      <trkpt lat="44.57042" lon="5.94294">
        <ele>1139</ele>
        <time>2018-08-15T15:21:33Z</time>
      </trkpt>
      <trkpt lat="44.57042" lon="5.94314">
        <ele>1138</ele>
        <time>2018-08-15T15:21:35Z</time>
      </trkpt>
      <trkpt lat="44.57046" lon="5.94348">
        <ele>1129</ele>
        <time>2018-08-15T15:21:39Z</time>
      </trkpt>
      <trkpt lat="44.57063" lon="5.94408">
        <ele>1130</ele>
        <time>2018-08-15T15:21:45Z</time>
      </trkpt>
      <trkpt lat="44.57068" lon="5.94429">
        <ele>1123</ele>
        <time>2018-08-15T15:21:47Z</time>
      </trkpt>
      <trkpt lat="44.57071" lon="5.94442">
        <ele>1120</ele>
        <time>2018-08-15T15:21:48Z</time>
      </trkpt>
      <trkpt lat="44.57073" lon="5.94455">
        <ele>1117</ele>
        <time>2018-08-15T15:21:49Z</time>
      </trkpt>
      <trkpt lat="44.57074" lon="5.9447">
        <ele>1116</ele>
        <time>2018-08-15T15:21:50Z</time>
      </trkpt>
      <trkpt lat="44.57071" lon="5.94482">
        <ele>1116</ele>
        <time>2018-08-15T15:21:51Z</time>
      </trkpt>
      <trkpt lat="44.5707" lon="5.94529">
        <ele>1104</ele>
        <time>2018-08-15T15:21:55Z</time>
      </trkpt>
      <trkpt lat="44.57074" lon="5.94551">
        <ele>1102</ele>
        <time>2018-08-15T15:21:57Z</time>
      </trkpt>
      <trkpt lat="44.57092" lon="5.94589">
        <ele>1118</ele>
        <time>2018-08-15T15:22:01Z</time>
      </trkpt>
      <trkpt lat="44.57096" lon="5.94597">
        <ele>1121</ele>
        <time>2018-08-15T15:22:02Z</time>
      </trkpt>
      <trkpt lat="44.57102" lon="5.94605">
        <ele>1124</ele>
        <time>2018-08-15T15:22:03Z</time>
      </trkpt>
      <trkpt lat="44.57107" lon="5.94613">
        <ele>1126</ele>
        <time>2018-08-15T15:22:04Z</time>
      </trkpt>
      <trkpt lat="44.57112" lon="5.94631">
        <ele>1126</ele>
        <time>2018-08-15T15:22:06Z</time>
      </trkpt>
      <trkpt lat="44.5711" lon="5.94639">
        <ele>1124</ele>
        <time>2018-08-15T15:22:07Z</time>
      </trkpt>
      <trkpt lat="44.57111" lon="5.94657">
        <ele>1121</ele>
        <time>2018-08-15T15:22:09Z</time>
      </trkpt>
      <trkpt lat="44.57112" lon="5.94664">
        <ele>1121</ele>
        <time>2018-08-15T15:22:10Z</time>
      </trkpt>
      <trkpt lat="44.57114" lon="5.94671">
        <ele>1115</ele>
        <time>2018-08-15T15:22:11Z</time>
      </trkpt>
      <trkpt lat="44.57114" lon="5.94683">
        <ele>1115</ele>
        <time>2018-08-15T15:22:13Z</time>
      </trkpt>
      <trkpt lat="44.57113" lon="5.94693">
        <ele>1115</ele>
        <time>2018-08-15T15:22:15Z</time>
      </trkpt>
      <trkpt lat="44.57108" lon="5.94711">
        <ele>1113</ele>
        <time>2018-08-15T15:22:18Z</time>
      </trkpt>
      <trkpt lat="44.57112" lon="5.94761">
        <ele>1105</ele>
        <time>2018-08-15T15:22:23Z</time>
      </trkpt>
      <trkpt lat="44.57108" lon="5.94774">
        <ele>1105</ele>
        <time>2018-08-15T15:22:25Z</time>
      </trkpt>
      <trkpt lat="44.57108" lon="5.94782">
        <ele>1104</ele>
        <time>2018-08-15T15:22:26Z</time>
      </trkpt>
      <trkpt lat="44.57103" lon="5.94793">
        <ele>1103</ele>
        <time>2018-08-15T15:22:28Z</time>
      </trkpt>
      <trkpt lat="44.57098" lon="5.94827">
        <ele>1096</ele>
        <time>2018-08-15T15:22:32Z</time>
      </trkpt>
      <trkpt lat="44.57097" lon="5.94836">
        <ele>1092</ele>
        <time>2018-08-15T15:22:33Z</time>
      </trkpt>
      <trkpt lat="44.57102" lon="5.94859">
        <ele>1095</ele>
        <time>2018-08-15T15:22:35Z</time>
      </trkpt>
      <trkpt lat="44.57104" lon="5.94868">
        <ele>1096</ele>
        <time>2018-08-15T15:22:36Z</time>
      </trkpt>
      <trkpt lat="44.57108" lon="5.94884">
        <ele>1096</ele>
        <time>2018-08-15T15:22:38Z</time>
      </trkpt>
      <trkpt lat="44.5711" lon="5.94908">
        <ele>1094</ele>
        <time>2018-08-15T15:22:41Z</time>
      </trkpt>
      <trkpt lat="44.57102" lon="5.94908">
        <ele>1091</ele>
        <time>2018-08-15T15:22:44Z</time>
      </trkpt>
      <trkpt lat="44.57096" lon="5.94906">
        <ele>1090</ele>
        <time>2018-08-15T15:22:45Z</time>
      </trkpt>
      <trkpt lat="44.5709" lon="5.94902">
        <ele>1089</ele>
        <time>2018-08-15T15:22:46Z</time>
      </trkpt>
      <trkpt lat="44.57078" lon="5.94877">
        <ele>1075</ele>
        <time>2018-08-15T15:22:49Z</time>
      </trkpt>
      <trkpt lat="44.57075" lon="5.9487">
        <ele>1075</ele>
        <time>2018-08-15T15:22:50Z</time>
      </trkpt>
      <trkpt lat="44.57066" lon="5.94857">
        <ele>1076</ele>
        <time>2018-08-15T15:22:52Z</time>
      </trkpt>
      <trkpt lat="44.57062" lon="5.9485">
        <ele>1075</ele>
        <time>2018-08-15T15:22:53Z</time>
      </trkpt>
      <trkpt lat="44.57059" lon="5.94844">
        <ele>1075</ele>
        <time>2018-08-15T15:22:54Z</time>
      </trkpt>
      <trkpt lat="44.57055" lon="5.94832">
        <ele>1076</ele>
        <time>2018-08-15T15:22:56Z</time>
      </trkpt>
      <trkpt lat="44.5705" lon="5.94823">
        <ele>1075</ele>
        <time>2018-08-15T15:22:58Z</time>
      </trkpt>
      <trkpt lat="44.57045" lon="5.94815">
        <ele>1074</ele>
        <time>2018-08-15T15:23:00Z</time>
      </trkpt>
      <trkpt lat="44.57036" lon="5.94807">
        <ele>1072</ele>
        <time>2018-08-15T15:23:03Z</time>
      </trkpt>
      <trkpt lat="44.57019" lon="5.94816">
        <ele>1069</ele>
        <time>2018-08-15T15:23:06Z</time>
      </trkpt>
      <trkpt lat="44.56972" lon="5.94865">
        <ele>1051</ele>
        <time>2018-08-15T15:23:12Z</time>
      </trkpt>
      <trkpt lat="44.56947" lon="5.94943">
        <ele>1046</ele>
        <time>2018-08-15T15:23:21Z</time>
      </trkpt>
      <trkpt lat="44.56929" lon="5.94955">
        <ele>1045</ele>
        <time>2018-08-15T15:23:25Z</time>
      </trkpt>
      <trkpt lat="44.56923" lon="5.94967">
        <ele>1044</ele>
        <time>2018-08-15T15:23:27Z</time>
      </trkpt>
      <trkpt lat="44.56926" lon="5.94982">
        <ele>1043</ele>
        <time>2018-08-15T15:23:29Z</time>
      </trkpt>
      <trkpt lat="44.56936" lon="5.95026">
        <ele>1042</ele>
        <time>2018-08-15T15:23:33Z</time>
      </trkpt>
      <trkpt lat="44.56941" lon="5.95059">
        <ele>1042</ele>
        <time>2018-08-15T15:23:36Z</time>
      </trkpt>
      <trkpt lat="44.56936" lon="5.95073">
        <ele>1040</ele>
        <time>2018-08-15T15:23:37Z</time>
      </trkpt>
      <trkpt lat="44.56937" lon="5.9509">
        <ele>1039</ele>
        <time>2018-08-15T15:23:38Z</time>
      </trkpt>
      <trkpt lat="44.56926" lon="5.95131">
        <ele>1040</ele>
        <time>2018-08-15T15:23:41Z</time>
      </trkpt>
      <trkpt lat="44.56922" lon="5.95143">
        <ele>1039</ele>
        <time>2018-08-15T15:23:42Z</time>
      </trkpt>
      <trkpt lat="44.56917" lon="5.95158">
        <ele>1036</ele>
        <time>2018-08-15T15:23:43Z</time>
      </trkpt>
      <trkpt lat="44.56913" lon="5.9517">
        <ele>1033</ele>
        <time>2018-08-15T15:23:44Z</time>
      </trkpt>
      <trkpt lat="44.56912" lon="5.95188">
        <ele>1031</ele>
        <time>2018-08-15T15:23:45Z</time>
      </trkpt>
      <trkpt lat="44.56889" lon="5.95248">
        <ele>1030</ele>
        <time>2018-08-15T15:23:50Z</time>
      </trkpt>
      <trkpt lat="44.56886" lon="5.95267">
        <ele>1030</ele>
        <time>2018-08-15T15:23:52Z</time>
      </trkpt>
      <trkpt lat="44.56878" lon="5.95257">
        <ele>1029</ele>
        <time>2018-08-15T15:23:53Z</time>
      </trkpt>
      <trkpt lat="44.56873" lon="5.95247">
        <ele>1028</ele>
        <time>2018-08-15T15:23:54Z</time>
      </trkpt>
      <trkpt lat="44.56865" lon="5.9523">
        <ele>1027</ele>
        <time>2018-08-15T15:23:56Z</time>
      </trkpt>
      <trkpt lat="44.56859" lon="5.95222">
        <ele>1027</ele>
        <time>2018-08-15T15:23:57Z</time>
      </trkpt>
      <trkpt lat="44.56851" lon="5.95219">
        <ele>1026</ele>
        <time>2018-08-15T15:23:58Z</time>
      </trkpt>
      <trkpt lat="44.56835" lon="5.9521">
        <ele>1026</ele>
        <time>2018-08-15T15:24:00Z</time>
      </trkpt>
      <trkpt lat="44.56692" lon="5.95141">
        <ele>1010</ele>
        <time>2018-08-15T15:24:15Z</time>
      </trkpt>
      <trkpt lat="44.5668" lon="5.95117">
        <ele>1009</ele>
        <time>2018-08-15T15:24:17Z</time>
      </trkpt>
      <trkpt lat="44.56676" lon="5.95108">
        <ele>1008</ele>
        <time>2018-08-15T15:24:18Z</time>
      </trkpt>
      <trkpt lat="44.5667" lon="5.95098">
        <ele>1007</ele>
        <time>2018-08-15T15:24:19Z</time>
      </trkpt>
      <trkpt lat="44.56678" lon="5.9509">
        <ele>1007</ele>
        <time>2018-08-15T15:24:20Z</time>
      </trkpt>
      <trkpt lat="44.56684" lon="5.95081">
        <ele>1006</ele>
        <time>2018-08-15T15:24:21Z</time>
      </trkpt>
      <trkpt lat="44.56689" lon="5.95075">
        <ele>1006</ele>
        <time>2018-08-15T15:24:22Z</time>
      </trkpt>
      <trkpt lat="44.5669" lon="5.95067">
        <ele>1006</ele>
        <time>2018-08-15T15:24:23Z</time>
      </trkpt>
      <trkpt lat="44.56687" lon="5.95061">
        <ele>1006</ele>
        <time>2018-08-15T15:24:24Z</time>
      </trkpt>
      <trkpt lat="44.56676" lon="5.95055">
        <ele>1005</ele>
        <time>2018-08-15T15:24:26Z</time>
      </trkpt>
      <trkpt lat="44.5667" lon="5.95054">
        <ele>1005</ele>
        <time>2018-08-15T15:24:27Z</time>
      </trkpt>
      <trkpt lat="44.56667" lon="5.95061">
        <ele>1005</ele>
        <time>2018-08-15T15:24:28Z</time>
      </trkpt>
      <trkpt lat="44.56664" lon="5.9507">
        <ele>1000</ele>
        <time>2018-08-15T15:24:29Z</time>
      </trkpt>
      <trkpt lat="44.56656" lon="5.95093">
        <ele>1003</ele>
        <time>2018-08-15T15:24:31Z</time>
      </trkpt>
      <trkpt lat="44.56652" lon="5.95104">
        <ele>1002</ele>
        <time>2018-08-15T15:24:32Z</time>
      </trkpt>
      <trkpt lat="44.56622" lon="5.95147">
        <ele>1000</ele>
        <time>2018-08-15T15:24:37Z</time>
      </trkpt>
      <trkpt lat="44.56605" lon="5.95151">
        <ele>998</ele>
        <time>2018-08-15T15:24:39Z</time>
      </trkpt>
      <trkpt lat="44.56569" lon="5.95145">
        <ele>987</ele>
        <time>2018-08-15T15:24:43Z</time>
      </trkpt>
      <trkpt lat="44.56561" lon="5.95144">
        <ele>986</ele>
        <time>2018-08-15T15:24:44Z</time>
      </trkpt>
      <trkpt lat="44.56544" lon="5.95149">
        <ele>984</ele>
        <time>2018-08-15T15:24:46Z</time>
      </trkpt>
      <trkpt lat="44.56528" lon="5.95157">
        <ele>982</ele>
        <time>2018-08-15T15:24:48Z</time>
      </trkpt>
      <trkpt lat="44.56521" lon="5.95164">
        <ele>982</ele>
        <time>2018-08-15T15:24:49Z</time>
      </trkpt>
      <trkpt lat="44.56514" lon="5.95174">
        <ele>983</ele>
        <time>2018-08-15T15:24:50Z</time>
      </trkpt>
      <trkpt lat="44.56512" lon="5.95188">
        <ele>984</ele>
        <time>2018-08-15T15:24:51Z</time>
      </trkpt>
      <trkpt lat="44.56516" lon="5.9522">
        <ele>984</ele>
        <time>2018-08-15T15:24:53Z</time>
      </trkpt>
      <trkpt lat="44.56517" lon="5.9523">
        <ele>984</ele>
        <time>2018-08-15T15:24:54Z</time>
      </trkpt>
      <trkpt lat="44.56519" lon="5.95256">
        <ele>983</ele>
        <time>2018-08-15T15:24:57Z</time>
      </trkpt>
      <trkpt lat="44.56518" lon="5.95263">
        <ele>983</ele>
        <time>2018-08-15T15:24:58Z</time>
      </trkpt>
      <trkpt lat="44.56511" lon="5.95268">
        <ele>982</ele>
        <time>2018-08-15T15:24:59Z</time>
      </trkpt>
      <trkpt lat="44.56504" lon="5.95253">
        <ele>979</ele>
        <time>2018-08-15T15:25:01Z</time>
      </trkpt>
      <trkpt lat="44.56504" lon="5.95244">
        <ele>980</ele>
        <time>2018-08-15T15:25:02Z</time>
      </trkpt>
      <trkpt lat="44.56497" lon="5.95223">
        <ele>969</ele>
        <time>2018-08-15T15:25:04Z</time>
      </trkpt>
      <trkpt lat="44.56493" lon="5.95204">
        <ele>968</ele>
        <time>2018-08-15T15:25:06Z</time>
      </trkpt>
      <trkpt lat="44.56488" lon="5.95201">
        <ele>967</ele>
        <time>2018-08-15T15:25:07Z</time>
      </trkpt>
      <trkpt lat="44.56485" lon="5.95194">
        <ele>967</ele>
        <time>2018-08-15T15:25:08Z</time>
      </trkpt>
      <trkpt lat="44.56477" lon="5.95192">
        <ele>966</ele>
        <time>2018-08-15T15:25:10Z</time>
      </trkpt>
      <trkpt lat="44.56471" lon="5.95197">
        <ele>965</ele>
        <time>2018-08-15T15:25:11Z</time>
      </trkpt>
      <trkpt lat="44.56466" lon="5.95205">
        <ele>963</ele>
        <time>2018-08-15T15:25:12Z</time>
      </trkpt>
      <trkpt lat="44.56468" lon="5.95219">
        <ele>964</ele>
        <time>2018-08-15T15:25:13Z</time>
      </trkpt>
      <trkpt lat="44.56469" lon="5.95229">
        <ele>965</ele>
        <time>2018-08-15T15:25:14Z</time>
      </trkpt>
      <trkpt lat="44.56472" lon="5.95244">
        <ele>966</ele>
        <time>2018-08-15T15:25:15Z</time>
      </trkpt>
      <trkpt lat="44.56474" lon="5.95257">
        <ele>966</ele>
        <time>2018-08-15T15:25:16Z</time>
      </trkpt>
      <trkpt lat="44.56475" lon="5.95267">
        <ele>966</ele>
        <time>2018-08-15T15:25:17Z</time>
      </trkpt>
      <trkpt lat="44.56476" lon="5.9528">
        <ele>965</ele>
        <time>2018-08-15T15:25:18Z</time>
      </trkpt>
      <trkpt lat="44.56477" lon="5.95318">
        <ele>966</ele>
        <time>2018-08-15T15:25:21Z</time>
      </trkpt>
      <trkpt lat="44.56475" lon="5.9533">
        <ele>966</ele>
        <time>2018-08-15T15:25:22Z</time>
      </trkpt>
      <trkpt lat="44.56477" lon="5.95349">
        <ele>965</ele>
        <time>2018-08-15T15:25:23Z</time>
      </trkpt>
      <trkpt lat="44.5647" lon="5.9537">
        <ele>962</ele>
        <time>2018-08-15T15:25:25Z</time>
      </trkpt>
      <trkpt lat="44.56458" lon="5.95421">
        <ele>959</ele>
        <time>2018-08-15T15:25:29Z</time>
      </trkpt>
      <trkpt lat="44.56462" lon="5.95464">
        <ele>960</ele>
        <time>2018-08-15T15:25:32Z</time>
      </trkpt>
      <trkpt lat="44.56464" lon="5.95479">
        <ele>961</ele>
        <time>2018-08-15T15:25:33Z</time>
      </trkpt>
      <trkpt lat="44.56467" lon="5.95546">
        <ele>962</ele>
        <time>2018-08-15T15:25:37Z</time>
      </trkpt>
      <trkpt lat="44.56466" lon="5.95564">
        <ele>962</ele>
        <time>2018-08-15T15:25:38Z</time>
      </trkpt>
      <trkpt lat="44.56467" lon="5.95582">
        <ele>963</ele>
        <time>2018-08-15T15:25:39Z</time>
      </trkpt>
      <trkpt lat="44.56466" lon="5.95595">
        <ele>961</ele>
        <time>2018-08-15T15:25:40Z</time>
      </trkpt>
      <trkpt lat="44.56462" lon="5.95645">
        <ele>958</ele>
        <time>2018-08-15T15:25:43Z</time>
      </trkpt>
      <trkpt lat="44.56461" lon="5.95661">
        <ele>958</ele>
        <time>2018-08-15T15:25:44Z</time>
      </trkpt>
      <trkpt lat="44.56462" lon="5.95695">
        <ele>953</ele>
        <time>2018-08-15T15:25:46Z</time>
      </trkpt>
      <trkpt lat="44.56478" lon="5.9575">
        <ele>951</ele>
        <time>2018-08-15T15:25:49Z</time>
      </trkpt>
      <trkpt lat="44.5648" lon="5.95757">
        <ele>951</ele>
        <time>2018-08-15T15:25:50Z</time>
      </trkpt>
      <trkpt lat="44.56482" lon="5.95769">
        <ele>951</ele>
        <time>2018-08-15T15:25:51Z</time>
      </trkpt>
      <trkpt lat="44.56486" lon="5.95779">
        <ele>951</ele>
        <time>2018-08-15T15:25:52Z</time>
      </trkpt>
      <trkpt lat="44.56483" lon="5.95786">
        <ele>951</ele>
        <time>2018-08-15T15:25:53Z</time>
      </trkpt>
      <trkpt lat="44.56463" lon="5.95796">
        <ele>950</ele>
        <time>2018-08-15T15:25:58Z</time>
      </trkpt>
      <trkpt lat="44.56456" lon="5.95791">
        <ele>949</ele>
        <time>2018-08-15T15:25:59Z</time>
      </trkpt>
      <trkpt lat="44.56448" lon="5.95789">
        <ele>949</ele>
        <time>2018-08-15T15:26:00Z</time>
      </trkpt>
      <trkpt lat="44.56428" lon="5.95784">
        <ele>948</ele>
        <time>2018-08-15T15:26:03Z</time>
      </trkpt>
      <trkpt lat="44.56423" lon="5.95782">
        <ele>947</ele>
        <time>2018-08-15T15:26:04Z</time>
      </trkpt>
      <trkpt lat="44.56415" lon="5.9578">
        <ele>943</ele>
        <time>2018-08-15T15:26:06Z</time>
      </trkpt>
      <trkpt lat="44.5641" lon="5.9578">
        <ele>943</ele>
        <time>2018-08-15T15:26:08Z</time>
      </trkpt>
      <trkpt lat="44.56404" lon="5.95781">
        <ele>943</ele>
        <time>2018-08-15T15:26:10Z</time>
      </trkpt>
      <trkpt lat="44.56401" lon="5.95787">
        <ele>943</ele>
        <time>2018-08-15T15:26:11Z</time>
      </trkpt>
      <trkpt lat="44.56402" lon="5.95795">
        <ele>944</ele>
        <time>2018-08-15T15:26:12Z</time>
      </trkpt>
      <trkpt lat="44.56401" lon="5.95803">
        <ele>944</ele>
        <time>2018-08-15T15:26:13Z</time>
      </trkpt>
      <trkpt lat="44.56401" lon="5.95817">
        <ele>944</ele>
        <time>2018-08-15T15:26:15Z</time>
      </trkpt>
      <trkpt lat="44.564" lon="5.95833">
        <ele>945</ele>
        <time>2018-08-15T15:26:19Z</time>
      </trkpt>
      <trkpt lat="44.564" lon="5.9584">
        <ele>946</ele>
        <time>2018-08-15T15:26:21Z</time>
      </trkpt>
      <trkpt lat="44.56397" lon="5.95847">
        <ele>946</ele>
        <time>2018-08-15T15:26:23Z</time>
      </trkpt>
      <trkpt lat="44.56392" lon="5.95851">
        <ele>945</ele>
        <time>2018-08-15T15:26:25Z</time>
      </trkpt>
      <trkpt lat="44.56386" lon="5.95854">
        <ele>945</ele>
        <time>2018-08-15T15:26:27Z</time>
      </trkpt>
      <trkpt lat="44.56372" lon="5.9585">
        <ele>945</ele>
        <time>2018-08-15T15:26:29Z</time>
      </trkpt>
      <trkpt lat="44.56358" lon="5.95854">
        <ele>945</ele>
        <time>2018-08-15T15:26:33Z</time>
      </trkpt>
      <trkpt lat="44.56351" lon="5.95853">
        <ele>944</ele>
        <time>2018-08-15T15:26:35Z</time>
      </trkpt>
      <trkpt lat="44.56346" lon="5.95848">
        <ele>944</ele>
        <time>2018-08-15T15:26:37Z</time>
      </trkpt>
      <trkpt lat="44.56342" lon="5.95842">
        <ele>944</ele>
        <time>2018-08-15T15:26:39Z</time>
      </trkpt>
      <trkpt lat="44.56337" lon="5.95837">
        <ele>943</ele>
        <time>2018-08-15T15:26:41Z</time>
      </trkpt>
      <trkpt lat="44.56334" lon="5.95831">
        <ele>943</ele>
        <time>2018-08-15T15:26:43Z</time>
      </trkpt>
      <trkpt lat="44.5632" lon="5.95818">
        <ele>942</ele>
        <time>2018-08-15T15:26:47Z</time>
      </trkpt>
      <trkpt lat="44.56316" lon="5.95816">
        <ele>942</ele>
        <time>2018-08-15T15:26:48Z</time>
      </trkpt>
      <trkpt lat="44.56308" lon="5.95813">
        <ele>942</ele>
        <time>2018-08-15T15:26:50Z</time>
      </trkpt>
      <trkpt lat="44.56299" lon="5.9581">
        <ele>942</ele>
        <time>2018-08-15T15:26:52Z</time>
      </trkpt>
      <trkpt lat="44.56292" lon="5.95806">
        <ele>941</ele>
        <time>2018-08-15T15:26:54Z</time>
      </trkpt>
      <trkpt lat="44.56284" lon="5.95799">
        <ele>941</ele>
        <time>2018-08-15T15:26:56Z</time>
      </trkpt>
      <trkpt lat="44.5627" lon="5.95772">
        <ele>941</ele>
        <time>2018-08-15T15:27:00Z</time>
      </trkpt>
      <trkpt lat="44.56267" lon="5.95765">
        <ele>941</ele>
        <time>2018-08-15T15:27:01Z</time>
      </trkpt>
      <trkpt lat="44.56261" lon="5.95751">
        <ele>940</ele>
        <time>2018-08-15T15:27:03Z</time>
      </trkpt>
      <trkpt lat="44.56251" lon="5.95728">
        <ele>940</ele>
        <time>2018-08-15T15:27:06Z</time>
      </trkpt>
      <trkpt lat="44.56248" lon="5.9572">
        <ele>939</ele>
        <time>2018-08-15T15:27:07Z</time>
      </trkpt>
      <trkpt lat="44.56228" lon="5.95693">
        <ele>938</ele>
        <time>2018-08-15T15:27:10Z</time>
      </trkpt>
      <trkpt lat="44.56223" lon="5.95683">
        <ele>938</ele>
        <time>2018-08-15T15:27:11Z</time>
      </trkpt>
      <trkpt lat="44.56201" lon="5.95641">
        <ele>937</ele>
        <time>2018-08-15T15:27:16Z</time>
      </trkpt>
      <trkpt lat="44.56186" lon="5.95604">
        <ele>936</ele>
        <time>2018-08-15T15:27:21Z</time>
      </trkpt>
      <trkpt lat="44.56185" lon="5.95597">
        <ele>936</ele>
        <time>2018-08-15T15:27:22Z</time>
      </trkpt>
      <trkpt lat="44.5618" lon="5.95581">
        <ele>935</ele>
        <time>2018-08-15T15:27:25Z</time>
      </trkpt>
      <trkpt lat="44.56176" lon="5.95576">
        <ele>935</ele>
        <time>2018-08-15T15:27:28Z</time>
      </trkpt>
      <trkpt lat="44.5617" lon="5.95578">
        <ele>935</ele>
        <time>2018-08-15T15:27:31Z</time>
      </trkpt>
      <trkpt lat="44.56163" lon="5.95581">
        <ele>935</ele>
        <time>2018-08-15T15:27:33Z</time>
      </trkpt>
      <trkpt lat="44.56158" lon="5.95589">
        <ele>935</ele>
        <time>2018-08-15T15:27:35Z</time>
      </trkpt>
      <trkpt lat="44.56154" lon="5.95595">
        <ele>936</ele>
        <time>2018-08-15T15:27:37Z</time>
      </trkpt>
      <trkpt lat="44.56153" lon="5.95603">
        <ele>936</ele>
        <time>2018-08-15T15:27:39Z</time>
      </trkpt>
      <trkpt lat="44.56152" lon="5.95613">
        <ele>936</ele>
        <time>2018-08-15T15:27:41Z</time>
      </trkpt>
      <trkpt lat="44.5615" lon="5.95619">
        <ele>936</ele>
        <time>2018-08-15T15:27:43Z</time>
      </trkpt>
      <trkpt lat="44.56147" lon="5.95623">
        <ele>936</ele>
        <time>2018-08-15T15:27:48Z</time>
      </trkpt>
      <trkpt lat="44.56144" lon="5.95619">
        <ele>936</ele>
        <time>2018-08-15T15:31:00Z</time>
      </trkpt>
    </trkseg>
  </trk>
</gpx>